[[{"header":{"parameterUnit":"m.s-1","parameterCategory":1,"la1":30.6,"la2":28.766,"lo1":-90.7593,"lo2":-88.6598,"dy":0.0162,"dx":0.0183,"nx":116,"ny":114,"refTime":"2023-10-07T06:00:00:Z","depth":0,"parameterNumber":2,"parameterNumberName":"U-component_of_WINDS"},"data":[0.0,0.0,0.0,0.0,0.0,0.0,0.0,0.0,0.0,0.0,0.0,0.0,0.0,0.0,0.0,0.0,0.0,0.0,0.0,0.0,0.0,0.0,0.0,0.0,0.0,0.0,0.0,0.0,0.0,0.0,0.0,0.0,0.0,0.0,0.0,0.0,0.0,0.0,0.0,0.0,0.0,0.0,0.0,0.0,0.0,0.0,0.0,0.0,0.0,0.0,0.0,0.0,0.0,0.0,0.0,0.0,0.0,0.0,0.0,0.0,0.0,0.0,0.0,0.0,0.0,0.0,0.0,0.0,0.0,0.0,0.0,0.0,0.0,0.0,0.0,0.0,0.0,0.0,0.0,0.0,0.0,0.0,0.0,0.0,0.0,0.0,0.0,0.0,0.0,0.0,0.0,0.0,0.0,0.0,0.0,0.0,0.0,0.0,0.0,0.0,0.0,0.0,0.0,0.0,0.0,0.0,0.0,0.0,0.0,0.0,0.0,0.0,0.0,0.0,0.0,0.0,0.0,0.0,0.0,0.0,0.0,0.0,0.0,0.0,0.0,0.0,0.0,0.0,0.0,0.0,0.0,0.0,0.0,0.0,0.0,0.0,0.0,0.0,0.0,0.0,0.0,0.0,0.0,0.0,0.0,0.0,0.0,0.0,0.0,0.0,0.0,0.0,0.0,0.0,0.0,0.0,0.0,0.0,0.0,0.0,0.0,0.0,0.0,0.0,0.0,0.0,0.0,0.0,0.0,0.0,0.0,0.0,0.0,0.0,0.0,0.0,0.0,0.0,0.0,0.0,0.0,0.0,0.0,0.0,0.0,0.0,0.0,0.0,0.0,0.0,0.0,0.0,0.0,0.0,0.0,0.0,0.0,0.0,0.0,0.0,0.0,0.0,0.0,0.0,0.0,0.0,0.0,0.0,0.0,0.0,0.0,0.0,0.0,0.0,0.0,0.0,0.0,0.0,0.0,0.0,0.0,0.0,0.0,0.0,0.0,0.0,0.0,0.0,0.0,0.0,0.0,0.0,0.0,0.0,0.0,0.0,0.0,0.0,0.0,0.0,0.0,0.0,0.0,0.0,0.0,0.0,0.0,0.0,0.0,0.0,0.0,0.0,0.0,0.0,0.0,0.0,0.0,0.0,0.0,0.0,0.0,0.0,0.0,0.0,0.0,0.0,0.0,0.0,0.0,0.0,0.0,0.0,0.0,0.0,0.0,0.0,0.0,0.0,0.0,0.0,0.0,0.0,0.0,0.0,0.0,0.0,0.0,0.0,0.0,0.0,0.0,0.0,0.0,0.0,0.0,0.0,0.0,0.0,0.0,0.0,0.0,0.0,0.0,0.0,0.0,0.0,0.0,0.0,0.0,0.0,0.0,0.0,0.0,0.0,0.0,0.0,0.0,0.0,0.0,0.0,0.0,0.0,0.0,0.0,0.0,0.0,0.0,0.0,0.0,0.0,0.0,0.0,0.0,0.0,0.0,0.0,0.0,0.0,0.0,0.0,0.0,0.0,0.0,0.0,0.0,0.0,0.0,0.0,0.0,0.0,0.0,0.0,0.0,0.0,0.0,0.0,0.0,0.0,0.0,0.0,0.0,0.0,0.0,0.0,0.0,0.0,0.0,0.0,0.0,0.0,0.0,0.0,0.0,0.0,0.0,0.0,0.0,0.0,0.0,0.0,0.0,0.0,0.0,0.0,0.0,0.0,0.0,0.0,0.0,0.0,0.0,0.0,0.0,0.0,0.0,0.0,0.0,0.0,0.0,0.0,0.0,0.0,0.0,0.0,0.0,0.0,0.0,0.0,0.0,0.0,0.0,0.0,0.0,0.0,0.0,0.0,0.0,0.0,0.0,0.0,0.0,0.0,0.0,0.0,0.0,0.0,0.0,0.0,0.0,0.0,0.0,0.0,0.0,0.0,0.0,0.0,0.0,0.0,0.0,0.0,0.0,0.0,0.0,0.0,0.0,0.0,0.0,0.0,0.0,0.0,0.0,0.0,0.0,0.0,0.0,0.0,0.0,0.0,0.0,0.0,0.0,0.0,0.0,0.0,0.0,0.0,0.0,0.0,0.0,0.0,0.0,0.0,0.0,0.0,0.0,0.0,0.0,0.0,0.0,0.0,0.0,0.0,0.0,0.0,0.0,0.0,0.0,0.0,0.0,0.0,0.0,0.0,0.0,0.0,0.0,0.0,0.0,0.0,0.0,0.0,0.0,0.0,0.0,0.0,0.0,0.0,0.0,0.0,0.0,0.0,0.0,0.0,0.0,0.0,0.0,0.0,0.0,0.0,0.0,0.0,0.0,0.0,0.0,0.0,0.0,0.0,0.0,0.0,0.0,0.0,0.0,0.0,0.0,0.0,0.0,0.0,0.0,0.0,0.0,0.0,0.0,0.0,0.0,0.0,0.0,0.0,0.0,0.0,0.0,0.0,0.0,0.0,0.0,0.0,0.0,0.0,0.0,0.0,0.0,0.0,0.0,0.0,0.0,0.0,0.0,0.0,0.0,0.0,0.0,0.0,0.0,0.0,0.0,0.0,0.0,0.0,0.0,0.0,0.0,0.0,0.0,0.0,0.0,0.0,0.0,0.0,0.0,0.0,0.0,0.0,0.0,0.0,0.0,0.0,0.0,0.0,0.0,0.0,0.0,0.0,0.0,0.0,0.0,0.0,0.0,0.0,0.0,0.0,0.0,0.0,0.0,0.0,0.0,0.0,0.0,0.0,0.0,0.0,0.0,0.0,0.0,0.0,0.0,0.0,0.0,0.0,0.0,0.0,0.0,0.0,0.0,0.0,0.0,0.0,0.0,0.0,0.0,0.0,0.0,0.0,0.0,0.0,0.0,0.0,0.0,0.0,0.0,0.0,0.0,0.0,0.0,0.0,0.0,0.0,0.0,0.0,0.0,0.0,0.0,0.0,0.0,0.0,0.0,0.0,0.0,0.0,0.0,0.0,0.0,0.0,0.0,0.0,0.0,0.0,0.0,0.0,0.0,0.0,0.0,0.0,0.0,0.0,0.0,0.0,0.0,0.0,0.0,0.0,0.0,0.0,0.0,0.0,0.0,0.0,0.0,0.0,0.0,0.0,0.0,0.0,0.0,0.0,0.0,0.0,0.0,0.0,0.0,0.0,0.0,0.0,0.0,0.0,0.0,0.0,0.0,0.0,0.0,0.0,0.0,0.0,0.0,0.0,0.0,0.0,0.0,0.0,0.0,0.0,0.0,0.0,0.0,0.0,0.0,0.0,0.0,0.0,0.0,0.0,0.0,0.0,0.0,0.0,0.0,0.0,0.0,0.0,0.0,0.0,0.0,0.0,0.0,0.0,0.0,0.0,0.0,0.0,0.0,0.0,0.0,0.0,0.0,0.0,0.0,0.0,0.0,0.0,0.0,0.0,0.0,0.0,0.0,0.0,0.0,0.0,0.0,0.0,0.0,0.0,0.0,0.0,0.0,0.0,0.0,0.0,0.0,0.0,0.0,0.0,0.0,0.0,0.0,0.0,0.0,0.0,0.0,0.0,0.0,0.0,0.0,0.0,0.0,0.0,0.0,0.0,0.0,0.0,0.0,0.0,0.0,0.0,0.0,0.0,0.0,0.0,0.0,0.0,0.0,0.0,0.0,0.0,0.0,0.0,0.0,0.0,0.0,0.0,0.0,0.0,0.0,0.0,0.0,0.0,0.0,0.0,0.0,0.0,0.0,0.0,0.0,0.0,0.0,0.0,0.0,0.0,0.0,0.0,0.0,0.0,0.0,0.0,0.0,0.0,0.0,0.0,0.0,0.0,0.0,0.0,0.0,0.0,0.0,0.0,0.0,0.0,0.0,0.0,0.0,0.0,0.0,0.0,0.0,0.0,0.0,0.0,0.0,0.0,0.0,0.0,0.0,0.0,0.0,0.0,0.0,0.0,0.0,0.0,0.0,0.0,0.0,0.0,0.0,0.0,0.0,0.0,0.0,0.0,0.0,0.0,0.0,0.0,0.0,0.0,0.0,0.0,0.0,0.0,0.0,0.0,0.0,0.0,0.0,0.0,0.0,0.0,0.0,0.0,0.0,0.0,0.0,0.0,0.0,0.0,0.0,0.0,0.0,0.0,0.0,0.0,0.0,0.0,0.0,0.0,0.0,0.0,0.0,0.0,0.0,0.0,0.0,0.0,0.0,0.0,0.0,0.0,0.0,0.0,0.0,0.0,0.0,0.0,0.0,0.0,0.0,0.0,0.0,0.0,0.0,0.0,0.0,0.0,0.0,0.0,0.0,0.0,0.0,0.0,0.0,0.0,0.0,0.0,0.0,0.0,0.0,0.0,0.0,0.0,0.0,0.0,0.0,0.0,0.0,0.0,0.0,0.0,0.0,0.0,0.0,0.0,0.0,0.0,0.0,0.0,0.0,0.0,0.0,0.0,0.0,0.0,0.0,0.0,0.0,0.0,0.0,0.0,0.0,0.0,0.0,0.0,0.0,0.0,0.0,0.0,0.0,0.0,0.0,0.0,0.0,0.0,0.0,0.0,0.0,0.0,0.0,0.0,0.0,0.0,0.0,0.0,0.0,0.0,0.0,0.0,0.0,0.0,0.0,0.0,0.0,0.0,0.0,0.0,0.0,0.0,0.0,0.0,0.0,0.0,0.0,0.0,0.0,0.0,0.0,0.0,0.0,0.0,0.0,0.0,0.0,0.0,0.0,0.0,0.0,0.0,0.0,0.0,0.0,0.0,0.0,0.0,0.0,0.0,0.0,0.0,0.0,0.0,0.0,0.0,0.0,0.0,0.0,0.0,0.0,0.0,0.0,0.0,0.0,0.0,0.0,0.0,0.0,0.0,0.0,0.0,0.0,0.0,0.0,0.0,0.0,0.0,0.0,0.0,0.0,0.0,0.0,0.0,0.0,0.0,0.0,0.0,0.0,0.0,0.0,0.0,0.0,0.0,0.0,0.0,0.0,0.0,0.0,0.0,0.0,0.0,0.0,0.0,0.0,0.0,0.0,0.0,0.0,0.0,0.0,0.0,0.0,0.0,0.0,0.0,0.0,0.0,0.0,0.0,0.0,0.0,0.0,0.0,0.0,0.0,0.0,0.0,0.0,0.0,0.0,0.0,0.0,0.0,0.0,0.0,0.0,0.0,0.0,0.0,0.0,0.0,0.0,0.0,0.0,0.0,0.0,0.0,0.0,0.0,0.0,0.0,0.0,0.0,0.0,0.0,0.0,0.0,0.0,0.0,0.0,0.0,0.0,0.0,0.0,0.0,0.0,0.0,0.0,0.0,0.0,0.0,0.0,0.0,0.0,0.0,0.0,0.0,0.0,0.0,0.0,0.0,0.0,0.0,0.0,0.0,0.0,0.0,0.0,0.0,0.0,0.0,0.0,0.0,0.0,0.0,0.0,0.0,0.0,0.0,0.0,0.0,0.0,0.0,0.0,0.0,0.0,0.0,0.0,0.0,0.0,0.0,0.0,0.0,0.0,0.0,0.0,0.0,0.0,0.0,0.0,0.0,0.0,0.0,0.0,0.0,0.0,0.0,0.0,0.0,0.0,0.0,0.0,0.0,0.0,0.0,0.0,0.0,0.0,0.0,0.0,0.0,0.0,0.0,0.0,0.0,0.0,0.0,0.0,0.0,0.0,0.0,0.0,0.0,0.0,0.0,0.0,0.0,0.0,0.0,0.0,0.0,0.0,0.0,0.0,0.0,0.0,0.0,0.0,0.0,0.0,0.0,0.0,0.0,0.0,0.0,0.0,0.0,0.0,0.0,0.0,0.0,0.0,0.0,0.0,0.0,0.0,0.0,0.0,0.0,0.0,0.0,0.0,0.0,0.0,0.0,0.0,0.0,0.0,0.0,0.0,0.0,0.0,0.0,0.0,0.0,0.0,0.0,0.0,0.0,0.0,0.0,0.0,0.0,0.0,0.0,0.0,0.0,0.0,0.0,0.0,0.0,0.0,0.0,0.0,0.0,0.0,0.0,0.0,0.0,0.0,0.0,0.0,0.0,0.0,0.0,0.0,0.0,0.0,0.0,0.0,0.0,0.0,0.0,0.0,0.0,0.0,0.0,0.0,0.0,0.0,0.0,0.0,0.0,0.0,0.0,0.0,0.0,0.0,0.0,5.7462,0.0,0.0,0.0,0.0,0.0,0.0,0.0,0.0,0.0,0.0,0.0,0.0,0.0,0.0,0.0,0.0,0.0,0.0,0.0,0.0,0.0,0.0,0.0,0.0,0.0,0.0,0.0,0.0,0.0,0.0,0.0,0.0,0.0,0.0,0.0,0.0,0.0,0.0,0.0,6.0149,5.9938,5.9471,5.9075,5.888,5.8883,0.0,0.0,0.0,0.0,0.0,0.0,0.0,0.0,0.0,0.0,0.0,0.0,0.0,0.0,0.0,0.0,0.0,0.0,0.0,0.0,0.0,0.0,0.0,0.0,0.0,0.0,0.0,0.0,0.0,0.0,0.0,0.0,0.0,0.0,0.0,0.0,0.0,0.0,0.0,0.0,0.0,0.0,0.0,0.0,0.0,0.0,0.0,0.0,0.0,0.0,0.0,0.0,0.0,0.0,0.0,0.0,0.0,0.0,0.0,0.0,0.0,0.0,0.0,0.0,0.0,0.0,0.0,0.0,0.0,0.0,0.0,6.0312,0.0,0.0,0.0,0.0,0.0,0.0,0.0,0.0,0.0,0.0,0.0,0.0,0.0,0.0,0.0,0.0,0.0,0.0,0.0,0.0,0.0,0.0,0.0,5.75,5.8398,5.9062,5.9129,5.9111,0.0,0.0,0.0,0.0,0.0,0.0,0.0,5.9713,5.9991,6.0586,6.0168,6.0093,6.0396,6.0673,6.0757,6.0572,5.9702,0.0,0.0,0.0,0.0,0.0,0.0,0.0,0.0,0.0,0.0,0.0,0.0,0.0,0.0,0.0,0.0,0.0,0.0,0.0,0.0,0.0,0.0,0.0,0.0,0.0,0.0,0.0,0.0,0.0,0.0,0.0,0.0,0.0,0.0,0.0,0.0,0.0,0.0,0.0,0.0,0.0,0.0,0.0,0.0,0.0,0.0,0.0,0.0,0.0,0.0,0.0,0.0,0.0,0.0,0.0,0.0,0.0,0.0,0.0,0.0,0.0,0.0,0.0,7.0192,7.1632,7.3688,7.2932,7.3203,7.4048,7.0513,6.6903,6.3419,6.3485,0.0,0.0,0.0,0.0,0.0,0.0,0.0,0.0,0.0,0.0,0.0,0.0,0.0,0.0,0.0,0.0,0.0,0.0,0.0,0.0,0.0,5.832,5.9297,5.9961,6.0043,6.0264,6.0819,0.0,0.0,0.0,0.0,0.0,6.0626,6.0626,6.0308,5.9673,6.1072,6.2501,6.3975,6.5438,6.5716,6.4864,6.0411,5.8867,5.9437,0.0,0.0,0.0,0.0,0.0,0.0,0.0,0.0,0.0,0.0,0.0,0.0,0.0,0.0,0.0,0.0,0.0,0.0,0.0,0.0,0.0,0.0,0.0,0.0,0.0,0.0,0.0,0.0,0.0,0.0,0.0,0.0,0.0,0.0,0.0,0.0,0.0,0.0,0.0,0.0,0.0,4.7871,4.8431,0.0,0.0,0.0,0.0,0.0,0.0,0.0,0.0,0.0,0.0,0.0,0.0,0.0,6.8254,7.0605,7.4438,7.5579,7.4078,7.7617,7.9045,7.8491,7.8299,7.9693,8.2243,8.1675,0.0,6.8476,6.5596,0.0,0.0,0.0,0.0,0.0,0.0,0.0,0.0,0.0,0.0,0.0,0.0,0.0,0.0,0.0,0.0,0.0,0.0,0.0,0.0,0.0,5.914,6.039,6.0625,6.2396,6.2783,6.1098,6.2252,0.0,0.0,0.0,6.0784,6.0784,6.0784,6.1329,6.2376,6.4087,6.5804,6.7486,6.8205,6.8373,6.7917,6.5176,6.3082,6.1536,5.9713,0.0,0.0,0.0,0.0,0.0,0.0,0.0,0.0,0.0,0.0,0.0,0.0,0.0,0.0,0.0,0.0,0.0,0.0,0.0,0.0,0.0,0.0,0.0,0.0,0.0,0.0,0.0,0.0,0.0,0.0,0.0,0.0,0.0,0.0,0.0,0.0,0.0,0.0,0.0,5.0306,5.2339,5.0431,5.335,5.4692,0.0,0.0,0.0,0.0,0.0,0.0,0.0,0.0,0.0,6.8178,7.2285,7.5106,7.6357,8.0358,8.2374,8.2402,8.5093,8.6338,8.6267,8.6222,8.739,8.9393,8.8934,8.6086,8.1325,7.5533,7.116,6.7905,0.0,0.0,0.0,0.0,6.5301,6.5847,0.0,0.0,0.0,0.0,0.0,0.0,0.0,0.0,0.0,0.0,0.0,0.0,5.8503,6.0563,6.2163,6.2899,6.4884,6.5067,6.2565,6.3196,6.2885,6.122,6.0904,6.0902,6.114,6.1775,6.3345,6.5885,6.7999,6.9819,7.1319,7.1732,7.1836,7.1585,7.0503,6.8004,6.4436,6.1655,6.0014,5.9154,0.0,0.0,0.0,0.0,0.0,0.0,0.0,0.0,0.0,0.0,0.0,0.0,0.0,0.0,0.0,0.0,0.0,0.0,0.0,0.0,0.0,0.0,0.0,0.0,0.0,0.0,0.0,0.0,0.0,0.0,0.0,0.0,0.0,0.0,0.0,0.0,0.0,5.3575,5.5594,5.2381,5.6214,5.7703,0.0,0.0,0.0,0.0,0.0,0.0,6.5989,7.0962,7.4071,7.4822,7.9365,8.2353,8.3517,8.6899,8.9271,9.0683,9.2099,9.2935,9.3229,9.3216,9.3681,9.4479,9.4086,9.3145,9.1309,8.4061,7.8113,7.3283,7.0944,6.9636,6.9105,6.9777,7.0141,7.064,0.0,0.0,0.0,0.0,0.0,0.0,0.0,0.0,0.0,0.0,0.0,5.7593,6.1632,6.3015,6.4916,6.7948,6.6938,6.6283,6.6763,6.3153,6.13,6.2013,6.122,6.118,6.2013,6.4391,6.688,6.9442,7.2701,7.4795,7.5731,7.7293,7.7667,7.6829,7.5149,7.2058,6.7912,6.4543,6.2636,6.1678,5.9238,0.0,0.0,0.0,0.0,0.0,0.0,0.0,0.0,0.0,0.0,0.0,0.0,0.0,0.0,0.0,0.0,0.0,0.0,0.0,0.0,0.0,0.0,0.0,0.0,0.0,0.0,0.0,0.0,0.0,0.0,0.0,0.0,0.0,0.0,0.0,0.0,0.0,0.0,5.4441,5.9894,0.0,0.0,0.0,0.0,6.3586,6.8131,7.1026,7.1468,7.6937,8.0904,8.2776,8.6771,9.0374,9.3543,9.5291,9.6577,9.7409,9.8282,9.8287,9.7585,9.7574,9.7171,9.6495,9.7148,9.6011,9.3215,8.7122,8.3044,8.015,7.6002,7.4356,7.4323,7.4362,7.4912,7.5764,0.0,0.0,0.0,0.0,0.0,0.0,0.0,0.0,5.3886,5.5475,5.7273,5.9766,6.3378,6.6054,6.8283,6.9928,7.0569,6.9798,6.7271,6.5202,6.348,6.2172,6.1815,6.2776,6.5245,6.7303,7.0635,7.5352,7.8777,8.1131,8.2528,8.3681,8.3499,8.214,8.0974,7.8687,7.5319,6.858,6.4641,6.2605,5.9516,5.8406,0.0,0.0,0.0,0.0,0.0,0.0,0.0,0.0,0.0,0.0,0.0,0.0,0.0,0.0,0.0,0.0,0.0,0.0,0.0,0.0,0.0,0.0,0.0,0.0,0.0,0.0,0.0,0.0,0.0,0.0,0.0,0.0,0.0,0.0,0.0,0.0,0.0,6.5235,6.9623,0.0,6.7847,6.7857,6.8834,7.0602,7.4025,7.7001,7.9194,8.419,8.8041,9.0351,9.3824,9.6692,9.8904,10.0494,10.148,10.179,10.2584,10.2291,10.1012,10.0496,9.9987,9.9711,9.8923,9.8327,9.7644,9.5014,9.0788,8.571,8.3081,8.1723,8.1341,8.1857,8.2239,8.2708,0.0,0.0,0.0,0.0,0.0,0.0,0.0,0.0,5.3862,5.5171,5.8103,6.1537,6.547,6.9438,7.2502,7.4179,7.4348,7.2885,6.9467,6.6589,6.4415,6.2993,6.3771,6.5416,6.7933,7.1643,7.5874,8.0664,8.4047,8.6278,8.7401,8.7977,8.7521,8.6136,8.5275,8.3619,8.1085,7.4599,6.919,6.4758,6.1659,6.0562,6.0326,0.0,0.0,0.0,0.0,0.0,0.0,0.0,0.0,0.0,0.0,0.0,0.0,0.0,0.0,0.0,0.0,0.0,0.0,0.0,0.0,0.0,0.0,0.0,0.0,0.0,0.0,0.0,0.0,0.0,0.0,0.0,0.0,0.0,0.0,0.0,7.1736,7.2784,7.6738,7.8202,7.5223,7.4959,7.5886,7.8078,8.1245,8.4378,8.7336,9.1542,9.4882,9.7063,9.9721,10.1907,10.3491,10.4593,10.5287,10.5617,10.6102,10.551,10.3897,10.3399,10.249,10.1482,10.0718,10.0218,10.0114,9.9516,9.6628,9.2349,9.0316,8.8856,8.7925,8.8481,8.8476,8.8414,0.0,0.0,0.0,0.0,0.0,0.0,0.0,5.2337,5.3688,5.4637,5.8367,6.2888,6.8001,7.314,7.7586,8.1011,7.8085,7.5355,7.3649,6.7145,6.3787,6.4673,6.7086,6.8908,7.0026,7.7408,8.2524,8.5127,8.8462,9.0115,9.0091,9.011,8.9649,8.8769,8.7887,8.6573,8.4816,8.2306,7.6434,6.8607,6.5853,6.4217,6.3099,0.0,0.0,0.0,0.0,0.0,0.0,0.0,0.0,0.0,0.0,0.0,0.0,0.0,0.0,0.0,0.0,0.0,0.0,0.0,0.0,0.0,0.0,0.0,0.0,0.0,0.0,0.0,0.0,0.0,0.0,0.0,0.0,0.0,6.4947,7.1568,7.6454,7.6612,8.0853,8.255,7.9432,8.1267,8.3637,8.5974,8.9862,9.318,9.5543,9.8662,10.1103,10.281,10.4384,10.5988,10.7689,10.7685,10.8092,10.8802,10.8817,10.7983,10.6491,10.6413,10.4703,10.1698,10.2413,10.1817,10.0296,10.0192,10.0206,9.9904,9.7349,9.5328,9.3818,9.3823,9.3307,9.2594,0.0,0.0,0.0,0.0,0.0,0.0,0.0,5.1536,5.3305,5.5297,6.0862,6.6566,7.1556,7.7152,8.1952,8.538,8.083,7.6816,7.4527,6.8584,6.5828,6.7295,6.8018,7.1388,7.7816,8.1833,8.6028,9.0415,9.3194,9.4527,9.4538,9.4595,9.3493,9.1482,9.0059,8.8453,8.6757,8.5442,8.2389,7.7871,7.1062,6.7036,6.4844,0.0,0.0,0.0,0.0,0.0,0.0,0.0,0.0,0.0,0.0,0.0,0.0,0.0,0.0,0.0,0.0,0.0,0.0,0.0,0.0,0.0,0.0,0.0,0.0,0.0,0.0,0.0,0.0,0.0,0.0,0.0,0.0,7.259,7.329,7.8991,8.4453,8.8015,9.0651,9.1834,9.094,9.1982,9.2994,9.3666,9.5833,9.7909,9.974,10.1193,10.3086,10.5307,10.6384,10.7689,10.931,10.9284,10.9508,10.9713,10.9713,10.9104,10.8116,10.7488,10.6492,10.5002,10.3991,10.2984,10.2008,10.2014,10.1609,10.081,9.8894,9.7438,9.6453,9.6455,9.5966,9.5174,0.0,0.0,0.0,0.0,0.0,0.0,0.0,5.0703,5.2486,5.4585,6.1972,6.8709,7.3031,7.9708,8.4681,8.6679,8.1711,7.7281,7.4397,6.9976,6.8077,6.9383,7.2191,7.6857,8.3589,8.728,9.0942,9.4579,9.6477,9.7207,9.6852,9.6573,9.5454,9.3618,9.2344,9.0849,8.9169,8.8267,8.6417,8.359,7.8286,7.3943,7.0263,6.6466,6.4643,6.3842,6.1785,6.0758,5.999,5.7303,0.0,0.0,0.0,0.0,0.0,0.0,0.0,0.0,0.0,0.0,0.0,0.0,0.0,0.0,0.0,0.0,0.0,0.0,0.0,0.0,0.0,0.0,0.0,0.0,7.5402,8.1346,8.5062,8.8066,9.1411,9.5618,9.6922,9.7772,9.8443,9.8647,9.913,10.0108,10.1117,10.2315,10.3983,10.4808,10.6106,10.7892,10.8713,10.9592,11.0509,11.0509,11.0509,11.0509,11.0509,11.0093,10.9308,10.8818,10.7985,10.6798,10.5489,10.4895,10.4685,10.3617,10.329,0.0,0.0,0.0,0.0,0.0,9.7196,9.6679,0.0,0.0,0.0,0.0,0.0,0.0,0.0,4.9997,5.1587,5.3319,6.2317,6.9764,7.3005,8.0809,8.5904,8.6073,8.1376,7.6926,7.3562,7.1069,7.0415,7.1974,7.8323,8.3848,8.8171,9.2969,9.6297,9.8074,9.8904,9.8935,9.817,9.7413,9.6495,9.5449,9.4647,9.3353,9.1735,9.0882,8.9206,8.6981,8.6067,8.2344,7.694,7.2931,7.1565,7.1537,6.9062,6.6308,6.3547,6.1682,0.0,0.0,0.0,0.0,0.0,0.0,0.0,0.0,0.0,0.0,0.0,0.0,0.0,0.0,0.0,0.0,0.0,0.0,0.0,0.0,0.0,0.0,0.0,0.0,8.336,9.0185,9.7651,9.7644,9.7878,10.0682,10.1017,10.1488,10.2982,10.2605,10.3111,10.5211,10.5515,10.6186,10.7804,0.0,0.0,0.0,0.0,11.13,11.13,11.13,11.13,11.13,11.121,11.0799,11.0093,11.0093,10.9303,10.7783,10.7097,10.7084,10.7284,10.5189,10.5091,10.6013,10.3619,10.1717,10.0183,9.8413,9.778,9.7672,0.0,0.0,0.0,0.0,0.0,0.0,0.0,4.9911,5.1705,5.4116,6.321,7.02,7.2237,7.9412,8.4624,8.5973,8.084,7.6106,7.2673,7.0714,7.2509,7.8861,8.367,8.8487,9.3427,9.6513,9.9245,10.1582,10.1805,10.18,10.1608,10.0914,9.9373,9.7244,9.6506,9.5218,9.36,9.3406,9.225,9.0443,8.9559,8.4591,7.748,7.528,7.2445,6.9398,6.7526,6.6922,6.6556,6.3494,6.2935,6.2835,5.8996,5.6587,0.0,0.0,0.0,0.0,0.0,0.0,0.0,0.0,0.0,0.0,0.0,0.0,0.0,0.0,0.0,0.0,0.0,0.0,0.0,8.428,9.0687,9.6821,10.2887,10.46,10.5191,10.5217,10.5199,10.5308,10.5686,10.61,10.6603,10.7104,10.7682,10.8513,10.9513,10.9684,11.0093,11.0883,11.1711,11.2207,11.2207,11.2207,11.2207,11.2207,0.0,0.0,11.1005,11.1005,11.0382,10.9508,10.9391,10.8299,10.659,10.6787,10.6313,10.5218,10.3302,10.2393,10.1917,10.0195,9.9582,9.9375,0.0,0.0,0.0,0.0,0.0,0.0,0.0,4.9458,5.1246,5.4207,6.1554,6.7305,6.9411,7.4968,7.8713,7.91,7.5696,7.3113,7.2247,7.4599,7.9023,8.5849,9.0605,9.5098,9.9372,10.1099,10.2613,10.3903,10.3405,10.3012,10.2612,10.1881,10.0608,9.9039,9.8251,9.6966,9.5385,9.5352,9.3951,9.1699,9.1625,8.8162,8.2777,8.0513,7.7596,7.4498,7.2799,7.1423,7.0005,6.7465,6.6604,6.5915,6.2031,5.9837,5.8388,0.0,0.0,0.0,0.0,0.0,0.0,0.0,0.0,0.0,0.0,0.0,0.0,0.0,0.0,6.9232,0.0,0.0,8.5377,9.2252,9.7585,10.2486,10.6901,10.829,10.8506,10.7694,10.7604,10.7797,10.8213,10.8887,10.9592,11.0008,11.0382,11.1005,11.1796,11.1385,11.159,11.2419,11.2794,11.299,11.2983,11.2983,11.28,11.2419,11.2002,11.159,11.121,11.121,11.1005,11.0593,11.0214,10.9592,10.8786,10.84,10.7701,10.6884,10.5602,10.4297,10.3105,10.1796,10.111,10.0488,0.0,0.0,0.0,0.0,0.0,0.0,0.0,4.8913,5.0671,5.3856,5.9242,6.3652,6.5882,6.9784,7.1902,7.1068,7.034,7.0944,7.3257,7.9624,8.6108,9.2401,9.7574,10.1581,10.4619,10.5384,10.5784,10.5799,10.5201,10.4389,10.3598,10.2797,10.1884,10.0986,10.0201,9.8929,9.7395,9.7187,9.5454,9.2877,9.3296,9.1733,8.8856,8.6258,8.3496,8.0741,7.8916,7.591,7.2623,7.1366,6.9647,6.7485,6.4513,6.3025,6.1861,5.9036,5.7171,0.0,0.0,0.0,0.0,0.0,0.0,0.0,0.0,0.0,6.7058,7.1003,7.3149,7.6475,8.3493,8.8368,9.3376,9.9714,10.369,10.7117,11.0288,11.0698,11.0488,10.9795,10.959,10.9795,11.0617,11.1315,11.188,11.2588,11.2595,11.2917,11.3618,11.3091,11.3211,11.3798,11.4088,11.4217,11.4093,11.4087,11.3714,11.2883,11.2501,11.2086,11.1385,11.13,11.121,11.121,11.0298,11.0382,11.0911,10.9395,10.8817,10.8787,10.8103,10.6487,10.4505,10.3693,10.2686,10.169,0.0,0.0,0.0,0.0,0.0,0.0,0.0,0.0,5.0354,5.2984,5.7876,6.1463,6.2554,6.5759,6.7507,6.6677,6.9152,7.276,7.7505,8.3484,9.0176,9.7605,10.2789,10.6107,10.7187,10.7987,10.839,10.8391,10.8305,10.7794,10.7006,10.6187,10.5002,10.3515,10.2714,10.1412,9.9858,9.914,9.7779,9.6093,9.5479,9.4167,9.2339,9.0561,8.7044,8.2765,8.0429,7.6533,7.2614,7.313,7.1296,6.869,6.8308,6.666,6.4416,6.1863,0.0,5.7209,5.7225,5.8052,0.0,6.3735,6.4669,6.6877,0.0,0.0,7.6044,8.0806,8.3639,8.6605,9.111,9.5262,9.9896,10.5695,10.82,11.0305,11.2789,11.3211,11.3206,11.311,11.2393,11.2292,11.3082,11.3312,11.3412,11.3496,11.3494,11.3486,11.3607,11.4192,11.4611,11.4696,11.611,11.6506,11.5707,11.5707,11.5312,11.4495,11.3118,11.2419,11.2207,11.1506,11.121,11.121,11.0298,11.0093,11.0098,10.9189,10.8787,10.879,10.8782,10.8082,10.718,10.6284,10.5016,10.3414,0.0,0.0,0.0,0.0,0.0,0.0,0.0,0.0,0.0,5.153,5.5309,5.7989,5.8343,6.0963,6.2756,6.2927,6.7372,7.2982,7.9577,8.7423,9.5223,10.2891,10.7613,10.9988,10.982,11.0206,11.0113,10.9506,10.901,10.8618,10.8287,10.7998,10.7218,10.6014,10.5201,10.3912,10.2317,10.1501,9.9992,9.8014,9.722,9.5919,9.417,9.1085,8.7473,8.3605,7.9715,7.5822,0.0,7.1289,7.0637,7.0199,6.9752,6.795,6.5712,6.4196,6.1232,0.0,5.9352,0.0,0.0,0.0,7.0713,7.4821,7.987,8.1388,8.3141,8.8031,9.1347,9.4569,9.8626,10.1915,10.5307,0.0,11.0714,11.2112,11.3988,11.3508,11.2901,11.2884,11.258,11.2693,11.3496,11.3991,11.4311,11.4282,11.4306,11.4702,11.5588,11.5598,11.5883,11.6908,11.7486,11.7486,11.6696,11.6704,11.6084,11.4797,11.3598,11.2893,11.2419,11.159,11.121,11.121,11.0799,11.0715,11.0593,10.9303,10.9397,11.0186,10.9282,10.8697,10.8313,10.751,10.5803,10.3796,0.0,0.0,0.0,0.0,0.0,0.0,0.0,0.0,0.0,0.0,5.3087,5.5279,5.5964,5.7933,5.9511,6.0352,6.546,7.2075,8.0196,8.9036,9.7683,10.5995,11.0599,11.2681,11.1992,11.2302,11.1899,11.099,11.0386,11.0114,11.0093,10.9713,10.9183,10.8486,10.7492,10.6312,10.4908,10.4099,10.2292,10.0,9.9206,9.7659,9.539,9.1299,8.7051,8.2675,7.8256,7.3999,7.0204,6.8255,6.8042,6.863,6.8752,6.7723,6.6401,6.5815,6.3043,6.0443,6.1625,0.0,0.0,7.1667,7.6973,8.2152,8.4928,8.7403,9.0407,9.4836,9.7942,10.0993,10.46,10.7102,10.9387,11.1796,11.2902,11.3918,11.5294,11.4098,11.2811,11.2101,11.1688,11.1681,11.2518,11.3899,11.4909,11.5105,11.5294,11.6084,11.7494,11.7384,11.7917,11.9094,11.9295,11.8918,11.7913,11.7608,11.6789,11.5416,11.4209,11.339,11.3,11.2002,11.1385,11.121,11.121,11.121,11.1089,10.9508,10.9602,11.0802,10.94,10.8895,10.879,10.8185,10.6397,10.4193,0.0,0.0,0.0,0.0,0.0,0.0,0.0,0.0,0.0,0.0,0.0,0.0,0.0,5.7798,5.8643,5.9474,6.3523,6.9934,7.9242,8.7032,9.579,10.5902,11.1184,11.3805,11.3601,11.4384,11.4396,11.3515,11.35,11.3513,11.3412,11.188,11.1094,11.0984,10.9403,10.8307,10.7384,10.6602,10.4908,10.2506,10.1691,9.948,9.6224,9.2134,8.6146,7.9503,7.6188,7.0908,6.5373,6.4513,6.3209,6.2309,6.4682,6.5929,6.6498,6.6477,6.4658,6.2874,6.3775,0.0,7.0576,7.7721,8.2568,8.7094,9.2661,9.5782,9.8462,10.169,10.3689,10.5712,10.8193,11.0014,11.188,11.4289,11.5393,11.6205,11.6995,11.5713,11.3887,11.1503,10.9914,10.9211,0.0,11.3012,11.51,11.5914,11.6704,11.7494,11.8285,11.9917,12.0802,12.079,12.1583,12.1205,11.9503,11.8813,11.7908,11.708,11.4706,11.4014,11.4702,11.3084,11.188,11.121,11.121,11.121,11.1089,10.9508,10.9312,11.0018,10.9202,10.8895,10.8908,10.8898,10.7311,10.4987,0.0,0.0,0.0,0.0,0.0,0.0,0.0,0.0,0.0,0.0,0.0,0.0,0.0,0.0,0.0,0.0,6.2486,6.7745,7.5121,8.4381,9.2632,9.9442,10.7319,11.1384,11.1281,11.3092,11.3894,11.359,11.3088,11.2797,11.2797,11.221,11.1698,11.121,11.0593,10.9886,10.9106,10.7817,10.6398,10.4891,10.1911,9.9423,9.6745,8.999,8.3207,7.6589,0.0,6.5728,6.1772,5.9885,5.9587,6.0163,6.1003,6.1788,6.2643,6.3745,6.4986,6.681,7.0327,0.0,8.0822,8.7065,9.166,9.5845,10.0386,10.249,10.3802,10.49,10.5116,10.5188,10.5495,10.6384,10.8082,11.1095,11.3598,11.5689,11.702,11.7193,11.5087,10.9504,11.0683,0.0,0.0,0.0,0.0,11.5003,11.6412,11.7786,11.9113,12.081,12.1708,12.1708,12.2019,12.129,11.9588,11.8811,11.8,11.7208,11.4785,11.3508,11.3184,11.2091,11.1506,11.121,11.121,11.121,11.1089,10.9508,10.9312,10.9892,10.9212,10.8492,10.8105,10.8699,10.7687,10.5808,0.0,0.0,0.0,0.0,0.0,0.0,0.0,0.0,0.0,0.0,0.0,0.0,0.0,0.0,0.0,0.0,0.0,6.5183,7.1706,7.902,8.5885,9.2113,9.8251,10.1999,10.3106,10.4114,10.5382,10.7101,10.6896,10.7692,10.9394,10.9394,10.9204,10.8996,10.8694,10.8302,10.7713,10.6384,10.4604,10.2184,9.8695,9.4911,9.0686,8.3691,7.7023,0.0,6.4779,6.0603,5.7601,5.6035,5.6404,5.7511,5.7814,5.9678,6.2037,6.3639,6.7055,7.1578,7.7589,8.3093,8.8677,9.4957,9.9153,10.2493,10.5699,10.6879,10.7099,10.6486,10.5211,10.3782,10.2406,10.2108,10.3407,10.7606,11.0204,11.2891,11.629,11.6501,11.44,10.9509,11.0402,11.0386,0.0,0.0,0.0,11.4511,11.6582,11.8285,12.0017,12.1897,12.2995,12.2995,12.2985,12.22,12.0497,11.971,11.8395,11.6794,11.5186,11.3714,11.2402,11.2212,11.1711,11.121,11.121,11.121,11.1089,10.9797,10.9397,10.9498,10.8998,10.8209,10.7312,10.8106,10.761,10.6318,0.0,0.0,0.0,0.0,0.0,0.0,0.0,0.0,0.0,0.0,0.0,0.0,0.0,0.0,0.0,0.0,0.0,0.0,6.8897,7.1387,7.6164,8.4081,8.5218,8.7096,9.0151,8.8808,9.0422,9.5176,9.5852,9.8597,10.3212,10.319,10.3498,10.4199,10.3495,10.3096,10.3006,10.2211,9.9153,9.4713,9.2137,8.6482,7.9011,7.4129,6.83,6.2306,5.9146,5.5926,5.3211,5.3232,5.3915,5.4861,5.5714,5.9816,6.4642,6.6516,7.1043,7.7219,8.5261,8.9931,9.4249,10.1295,10.4897,10.7098,10.8605,10.8886,10.8204,10.6491,10.3999,10.1405,0.0,0.0,9.8424,10.3996,10.5992,10.8986,11.5382,11.4386,11.2612,0.0,0.0,0.0,0.0,0.0,0.0,11.4808,0.0,11.9118,12.0911,12.3289,12.4495,12.4495,12.4503,12.3705,12.2091,12.1193,11.9187,11.6084,11.5999,11.4711,11.2512,11.3195,11.2709,11.121,11.121,11.121,11.1089,11.0298,10.9501,10.8882,10.8787,10.781,10.6503,10.7299,10.7096,10.6318,0.0,0.0,0.0,0.0,0.0,0.0,0.0,0.0,0.0,0.0,0.0,0.0,0.0,0.0,0.0,0.0,0.0,0.0,6.3827,6.781,7.1242,7.3965,7.9324,8.32,8.5197,8.5995,8.789,9.0957,8.9953,9.0716,9.3089,9.3116,9.2893,9.2534,9.2908,9.2746,9.2116,9.0689,8.9046,8.7073,8.3413,7.9635,7.563,7.0775,6.6,6.1557,5.8925,5.5933,5.3292,5.3891,0.0,0.0,6.0521,6.3624,6.7817,7.3032,7.8575,8.454,9.1445,9.7906,10.3607,10.7215,10.9518,11.0984,11.1398,10.9618,10.6915,10.3481,9.8445,9.3737,0.0,0.0,0.0,10.1591,10.8689,0.0,11.9094,12.0215,0.0,11.5195,0.0,11.5715,11.3517,11.439,0.0,0.0,11.8399,11.941,12.1706,12.4115,12.5114,12.4495,12.389,12.3113,12.2111,12.0096,11.831,11.691,11.5707,11.4515,11.3296,11.2903,11.2207,11.121,11.121,11.121,11.1089,10.9713,10.9284,10.959,10.8413,10.77,10.72,10.6916,10.6584,10.6318,0.0,0.0,0.0,0.0,0.0,0.0,0.0,0.0,0.0,0.0,0.0,0.0,0.0,0.0,0.0,0.0,0.0,0.0,0.0,6.3796,6.5713,6.7043,6.974,7.204,7.379,7.4025,7.567,7.8831,7.8267,7.9535,8.2497,8.2525,8.2453,8.2376,8.2847,8.2806,8.2296,8.1027,7.941,0.0,0.0,7.0645,6.7117,6.3674,6.0524,5.7731,5.6395,5.6074,5.664,0.0,0.0,6.3613,6.662,7.0326,7.4808,8.1256,0.0,9.2069,9.8944,10.4593,10.9098,11.1484,11.2291,11.1919,11.0204,10.7482,10.3596,9.7021,9.2243,0.0,8.4029,0.0,0.0,0.0,0.0,0.0,11.9005,12.0612,12.04,0.0,11.899,0.0,11.7083,11.7694,11.8906,0.0,12.0007,12.0394,12.2509,12.4594,12.5494,12.4991,12.4617,12.3792,12.26,11.9797,11.8188,11.7701,11.6084,11.4706,11.3602,11.3101,11.2298,11.121,0.0,11.121,11.1089,11.0214,10.9708,10.9397,10.8505,10.7186,10.5998,10.5908,10.5614,10.5318,0.0,0.0,0.0,0.0,0.0,0.0,0.0,0.0,0.0,0.0,4.9239,0.0,0.0,0.0,0.0,0.0,0.0,0.0,0.0,0.0,6.08,6.246,6.0078,5.9495,6.1234,5.98,6.0819,6.4482,6.5078,6.758,7.1764,7.1774,7.2156,7.2828,7.2817,7.2832,7.2773,7.1966,6.9958,6.7107,6.4892,6.1354,5.7207,0.0,5.4435,5.3214,5.3324,5.6119,6.0444,6.5013,6.7387,6.9265,7.3968,7.8887,8.4164,9.0363,9.4882,9.9328,10.6313,11.0089,11.25,11.4488,11.3712,11.1405,10.7189,10.3691,9.8773,8.9344,0.0,8.3124,7.8614,8.2091,8.7876,9.4726,0.0,10.959,11.7917,11.8989,11.9489,12.1289,12.0789,12.0282,12.0404,12.0282,12.09,12.249,12.181,12.1991,12.3412,12.4914,12.5616,12.5408,12.5408,12.4607,12.2781,11.9917,11.831,11.82,11.6704,11.521,11.3808,11.3604,11.2794,11.1385,11.121,11.121,11.121,11.1089,11.0191,10.889,10.8707,10.6886,10.4394,10.4908,10.4712,10.4397,0.0,0.0,0.0,0.0,0.0,0.0,0.0,0.0,0.0,0.0,4.9617,5.128,0.0,0.0,0.0,0.0,0.0,0.0,0.0,0.0,0.0,6.0045,5.9157,5.8996,5.9617,5.8673,5.8877,6.0263,5.9739,6.024,6.1718,6.1698,6.179,6.1918,6.1935,6.1926,6.188,6.1075,6.0015,5.881,5.7714,5.5989,5.4,5.3706,0.0,0.0,5.3953,5.5154,5.814,6.9432,7.5572,7.9205,8.3389,8.85,9.3983,9.9103,10.1993,10.4787,11.0083,11.3785,11.6092,11.5889,11.461,11.2003,10.6591,9.9832,0.0,0.0,8.0345,7.6917,7.4097,7.9738,8.7575,9.6113,0.0,0.0,0.0,0.0,12.2286,0.0,0.0,0.0,0.0,0.0,0.0,0.0,0.0,12.4014,12.4301,12.5201,12.5114,12.3791,12.3705,12.2612,12.0289,11.9003,11.8103,11.7409,11.6497,11.5501,11.4602,11.3894,11.3084,11.2207,11.1506,0.0,11.1089,11.0509,11.001,10.9696,10.8298,10.7485,10.6717,10.4794,10.4889,10.5795,0.0,0.0,0.0,0.0,0.0,0.0,0.0,4.7019,4.7772,4.9871,5.1641,5.2806,5.3177,5.6245,5.8284,0.0,0.0,0.0,0.0,0.0,0.0,0.0,5.9184,5.8707,5.796,5.7986,5.7962,5.7959,0.0,5.6953,5.7306,5.6462,5.6074,5.6074,5.6074,5.6074,5.6035,5.5663,5.5289,5.4875,5.4501,5.3881,5.3214,0.0,0.0,0.0,0.0,5.5904,5.9911,6.7867,7.6599,8.5261,9.1836,9.6942,10.1315,10.5311,10.7582,10.979,11.3785,11.6611,11.8385,11.7987,11.5081,11.0199,10.2013,0.0,0.0,0.0,7.3728,7.1994,7.0826,7.761,0.0,9.1803,9.862,10.6811,0.0,0.0,0.0,0.0,0.0,0.0,0.0,0.0,0.0,0.0,0.0,12.5097,12.5091,12.5501,12.52,12.3993,12.3499,12.2294,12.0289,11.9016,11.7997,11.7202,11.6412,11.5416,11.4215,11.3796,11.2884,11.1796,11.1385,11.121,11.121,11.0799,11.0382,10.9889,10.8702,10.771,10.6785,10.5085,10.5092,10.5711,0.0,0.0,0.0,0.0,0.0,0.0,0.0,4.8409,4.9647,5.234,5.4065,5.4865,5.4364,5.6689,5.8238,0.0,0.0,0.0,0.0,0.0,0.0,0.0,0.0,0.0,5.7086,0.0,0.0,5.6799,5.5991,0.0,0.0,0.0,0.0,0.0,5.3214,5.3214,5.3214,5.3214,5.3214,0.0,0.0,5.3214,0.0,0.0,0.0,0.0,0.0,5.6424,6.1034,6.5895,7.5058,8.5995,9.5102,10.1489,10.6108,10.8694,11.119,11.3785,11.6905,11.9009,12.0312,11.9719,11.5086,10.7992,9.7583,8.8922,0.0,0.0,6.8386,6.843,6.8603,7.5051,8.2109,0.0,9.277,10.0489,11.2394,11.3888,0.0,0.0,0.0,0.0,0.0,0.0,0.0,0.0,0.0,0.0,12.5702,12.5702,12.5285,12.4287,12.3609,12.2408,12.0411,11.9106,11.7908,11.691,11.629,11.5294,11.4093,11.3804,11.2899,11.1711,11.13,11.121,11.121,11.121,11.0715,10.9915,10.91,10.7919,10.6507,10.551,10.5101,10.5187,0.0,0.0,0.0,0.0,0.0,0.0,0.0,4.9434,5.1647,5.4903,5.6194,5.7058,5.7754,5.8099,5.7992,0.0,0.0,0.0,0.0,0.0,0.0,0.0,0.0,0.0,0.0,0.0,0.0,5.6785,5.6001,0.0,0.0,0.0,0.0,0.0,0.0,5.3214,5.3214,5.3214,0.0,0.0,0.0,0.0,0.0,0.0,0.0,0.0,0.0,5.5101,5.7644,0.0,0.0,7.7696,8.7344,9.8227,10.7414,10.7713,0.0,0.0,11.8715,12.1101,12.2386,12.0192,11.4308,10.6482,9.6649,0.0,0.0,6.8292,6.6702,6.693,6.7667,7.1464,7.7504,8.6704,8.9939,9.6002,10.9614,11.341,11.6893,12.2909,0.0,0.0,0.0,0.0,0.0,0.0,0.0,0.0,12.5702,12.5702,12.4991,12.3497,12.3316,12.1791,11.871,11.8484,11.7616,11.6084,11.5999,11.5914,11.5682,11.431,11.3505,11.329,11.1796,0.0,0.0,11.121,11.0715,10.9887,10.9094,10.8319,10.7295,10.5715,10.5117,10.5207,0.0,0.0,0.0,0.0,0.0,0.0,4.7851,4.9139,5.1327,5.5205,5.6442,5.7538,5.8884,5.8598,5.7944,5.7093,0.0,0.0,0.0,0.0,0.0,0.0,0.0,0.0,0.0,0.0,5.7378,5.7508,5.624,0.0,0.0,0.0,0.0,0.0,0.0,5.3214,5.3214,5.3214,0.0,0.0,0.0,0.0,0.0,0.0,0.0,0.0,0.0,0.0,5.6966,0.0,0.0,0.0,7.5285,8.4368,0.0,0.0,10.7996,11.2785,11.8208,12.1791,12.3389,12.0999,11.3795,10.4791,9.5078,0.0,7.2774,6.6983,6.4577,6.4408,6.7176,6.9405,7.3184,8.0452,8.1365,8.5485,9.7823,10.0782,10.5813,11.6913,12.0705,0.0,0.0,0.0,0.0,0.0,0.0,12.5702,12.5702,12.5702,12.52,12.4115,12.3609,12.1993,11.9088,11.8606,11.7616,11.5999,11.5999,11.5501,11.4506,11.3883,11.3099,11.2086,11.1506,11.121,0.0,11.121,11.1005,11.0593,10.9303,10.8613,10.8088,10.6507,10.5883,10.5902,0.0,0.0,0.0,0.0,0.0,4.6227,4.7891,4.9511,5.1755,5.5261,5.6894,5.8201,5.936,5.854,5.7683,5.7052,5.7349,0.0,0.0,0.0,0.0,0.0,0.0,0.0,0.0,0.0,5.6966,5.7305,5.5913,5.5252,0.0,0.0,5.3214,5.3214,0.0,0.0,0.0,0.0,0.0,0.0,0.0,0.0,0.0,0.0,0.0,0.0,0.0,0.0,0.0,0.0,0.0,0.0,6.6652,7.2589,8.2067,0.0,10.3017,10.9484,11.6115,12.0705,12.3315,12.11,11.3013,10.3203,0.0,0.0,7.077,6.5926,6.3171,6.2692,6.633,6.8043,7.0598,7.5733,7.6239,7.971,9.0409,9.3214,9.8684,0.0,0.0,0.0,0.0,0.0,0.0,0.0,0.0,12.5702,12.5702,12.5702,12.5285,12.4495,12.3695,12.2202,12.0003,11.8899,11.7701,11.629,11.5914,11.521,11.4299,11.3589,11.2806,11.188,11.1385,11.121,0.0,11.121,11.121,11.1005,10.9387,10.8781,10.8582,10.7006,10.6213,10.6093,0.0,0.0,0.0,0.0,0.0,0.0,4.8049,5.1055,5.3754,5.5493,5.7886,5.9472,5.9487,5.801,5.6993,5.701,5.6222,0.0,0.0,0.0,0.0,0.0,0.0,0.0,0.0,0.0,5.6415,5.5622,5.4806,5.4399,5.4399,5.3584,5.3214,5.3214,0.0,0.0,0.0,0.0,0.0,0.0,0.0,0.0,5.3256,0.0,0.0,0.0,0.0,0.0,0.0,0.0,0.0,0.0,0.0,6.5856,7.0587,8.4302,9.6928,10.7488,11.2312,11.7817,12.1705,11.9989,11.1704,10.1602,0.0,8.0604,6.9936,6.5096,6.2756,6.2376,6.4862,6.7282,7.0222,7.4286,7.6964,8.1668,9.0621,9.4648,9.9064,0.0,0.0,0.0,0.0,0.0,0.0,0.0,0.0,0.0,12.5702,12.5702,12.5285,12.4495,12.3705,12.2496,12.0912,11.9191,11.7993,11.7202,11.5586,11.521,11.5889,11.3513,11.2788,11.3496,11.188,11.121,0.0,11.121,11.121,11.1005,10.9387,10.8781,10.8582,10.7006,10.5883,10.5385,0.0,0.0,0.0,0.0,0.0,0.0,0.0,4.7019,4.9216,5.2645,5.3812,5.5208,5.7545,5.6309,5.5275,5.5293,5.5025,0.0,0.0,0.0,0.0,0.0,0.0,0.0,0.0,0.0,5.572,5.6006,5.5467,5.4955,5.4399,5.414,5.3445,5.2383,5.2399,5.2394,0.0,0.0,0.0,0.0,0.0,5.3214,5.3254,0.0,0.0,0.0,0.0,0.0,0.0,0.0,0.0,0.0,0.0,0.0,0.0,7.2104,8.3956,9.5946,10.1388,10.6582,10.9686,10.6406,10.0197,9.3063,8.6393,7.6991,6.86,6.4865,6.2342,6.1708,6.4742,6.5916,6.8672,7.5441,7.6756,7.9235,8.596,0.0,0.0,10.5505,11.6286,0.0,0.0,0.0,0.0,0.0,12.6199,12.5702,12.5702,12.5702,12.5616,12.5285,12.3993,12.2784,12.1699,11.9512,11.7988,11.7202,11.6084,11.5194,11.4296,11.3604,11.2811,11.188,11.1385,11.121,11.121,11.0593,11.0382,11.0214,10.8592,10.7992,10.7915,10.6796,10.6213,10.6093,0.0,0.0,0.0,0.0,0.0,0.0,0.0,4.5472,4.7286,5.0515,5.1526,5.2965,5.5747,5.4821,5.4241,5.4898,5.4055,0.0,0.0,0.0,0.0,0.0,0.0,0.0,0.0,5.5477,5.5557,5.6203,5.5969,5.5667,5.5314,5.5294,5.4449,5.2892,5.2581,5.2463,0.0,0.0,0.0,0.0,5.3088,5.3009,5.2839,0.0,0.0,0.0,0.0,0.0,0.0,0.0,0.0,0.0,0.0,0.0,0.0,0.0,7.3158,8.3121,9.1868,9.8001,10.1292,9.8802,9.3681,0.0,8.2136,7.4162,6.7154,6.4208,6.1892,6.1199,6.3858,6.5362,6.8022,7.3666,7.5175,7.7753,8.3758,0.0,0.0,0.0,0.0,0.0,0.0,0.0,0.0,12.6996,12.6199,12.5702,12.5702,12.5408,12.52,12.52,12.3993,12.2784,12.1699,11.9503,11.781,11.6704,11.5586,11.4595,11.3596,11.2997,11.2301,11.159,11.13,11.121,0.0,11.0715,11.0313,10.9886,10.8596,10.7891,10.7505,10.6712,10.6386,10.6507,0.0,0.0,0.0,0.0,0.0,0.0,0.0,4.587,4.742,4.9101,5.0673,5.2308,5.4054,5.351,5.3663,5.5207,0.0,0.0,0.0,0.0,0.0,0.0,0.0,0.0,0.0,5.5485,5.5803,5.6151,5.6235,5.6455,5.6805,5.6853,5.5958,5.4285,5.3455,5.3073,0.0,0.0,0.0,0.0,5.2913,5.2784,0.0,0.0,0.0,0.0,0.0,0.0,0.0,0.0,0.0,0.0,0.0,0.0,0.0,0.0,0.0,0.0,0.0,9.0621,9.4964,9.484,9.0207,8.4325,7.8946,7.1791,0.0,6.3134,6.1436,6.0896,6.2662,6.5424,6.8148,7.0273,7.3112,7.7303,8.3769,8.9496,0.0,0.0,0.0,0.0,0.0,0.0,12.7709,12.7002,12.6199,12.5702,12.5702,12.4912,12.4507,12.441,12.3583,12.2398,12.0912,11.9203,11.7505,11.5999,11.4407,11.3588,11.3515,11.1999,11.1711,0.0,11.1506,11.121,11.121,11.1089,11.0581,10.9787,10.8987,10.8209,10.7384,10.6712,10.6386,10.6507,0.0,0.0,0.0,0.0,0.0,0.0,0.0,0.0,0.0,0.0,4.8733,4.9661,5.1399,5.1399,5.1438,0.0,0.0,0.0,0.0,0.0,0.0,0.0,0.0,0.0,0.0,5.5354,5.5423,5.5812,5.6684,5.7019,5.6824,5.7423,5.6204,5.3454,5.2647,5.1938,0.0,0.0,0.0,0.0,5.3118,5.326,0.0,0.0,0.0,0.0,5.4159,5.4655,0.0,0.0,0.0,0.0,0.0,0.0,0.0,0.0,6.0994,6.4021,6.8532,0.0,7.7901,7.6658,7.4744,7.2467,0.0,6.6676,6.3587,6.1417,0.0,6.0978,6.4116,6.483,6.7277,7.4444,7.6253,7.8796,8.4687,0.0,0.0,0.0,0.0,0.0,0.0,0.0,12.7087,12.6898,12.6199,12.5702,12.5702,12.4912,12.4184,12.3584,12.2184,12.1316,12.0912,11.8592,11.7019,11.6005,11.4988,11.3897,11.2692,11.2296,11.188,11.1506,11.13,11.121,11.1089,10.9887,10.9284,10.8905,10.7498,10.6796,10.6712,10.6507,10.6386,10.6507,0.0,0.0,0.0,0.0,0.0,0.0,0.0,0.0,0.0,0.0,0.0,4.8772,5.0515,5.0709,0.0,0.0,0.0,0.0,0.0,0.0,0.0,0.0,0.0,5.5167,5.5167,5.4921,5.5266,5.6195,5.682,5.7586,5.8445,5.8524,5.7035,5.4245,5.2674,5.1566,0.0,0.0,0.0,5.2695,5.3054,0.0,0.0,0.0,0.0,0.0,5.3958,5.4494,0.0,5.6403,5.7231,5.7914,0.0,0.0,0.0,0.0,5.8124,5.9288,6.1314,6.6808,7.164,7.0395,6.9781,6.8944,6.6932,6.4212,6.1644,0.0,0.0,6.0417,6.3126,6.4478,6.724,7.3545,7.6117,8.0574,0.0,0.0,0.0,0.0,0.0,0.0,0.0,0.0,12.6696,12.6408,12.5905,12.5494,12.52,12.3993,12.3016,12.2188,12.0204,11.9391,11.9714,11.7707,11.6084,11.4882,11.4095,11.3,11.1796,11.1796,11.159,11.121,11.121,11.1005,11.0593,10.9713,10.8881,10.8209,10.7289,10.6712,10.6386,10.6386,10.6386,10.6507,0.0,0.0,0.0,0.0,0.0,0.0,0.0,0.0,0.0,0.0,0.0,0.0,0.0,0.0,0.0,0.0,0.0,0.0,0.0,0.0,0.0,0.0,0.0,5.4434,5.4667,5.4415,5.5065,5.663,5.7227,5.8566,6.056,6.0156,5.8266,5.5147,5.296,5.1538,0.0,0.0,0.0,5.2254,5.2923,0.0,0.0,0.0,0.0,0.0,0.0,0.0,0.0,5.6892,5.8077,5.8801,5.8552,0.0,0.0,0.0,0.0,0.0,5.8824,6.4944,7.0258,6.8947,6.8894,6.8503,6.5971,0.0,0.0,0.0,0.0,0.0,0.0,0.0,0.0,0.0,0.0,0.0,0.0,0.0,0.0,0.0,0.0,0.0,12.5097,12.6113,12.6408,12.5788,12.5616,12.52,12.4495,12.2892,12.158,12.0916,11.8514,11.7492,11.7993,11.6582,11.5117,11.3603,11.2796,11.2002,11.121,11.121,11.1089,11.1005,0.0,0.0,10.9803,10.9706,10.8793,10.7384,10.7295,10.6796,10.6213,10.6213,10.6297,10.6386,0.0,0.0,0.0,0.0,0.0,0.0,0.0,0.0,0.0,0.0,0.0,0.0,0.0,0.0,0.0,0.0,0.0,0.0,0.0,0.0,0.0,5.2273,5.2997,5.4077,5.5475,5.4122,5.4203,5.587,5.9226,6.105,6.1457,6.2754,5.9833,5.3538,5.2465,5.1541,5.0853,0.0,0.0,5.3046,5.3133,0.0,0.0,0.0,0.0,0.0,0.0,0.0,0.0,5.4973,5.5946,5.6924,5.5561,0.0,0.0,0.0,0.0,0.0,6.0227,6.4186,6.638,6.2771,6.3473,6.4201,6.1056,5.9617,0.0,0.0,0.0,0.0,0.0,0.0,0.0,0.0,0.0,0.0,0.0,0.0,0.0,0.0,0.0,12.4589,12.2806,12.4617,12.5788,12.5702,12.5114,12.4617,12.4495,12.2289,12.1019,12.0906,11.8515,11.6889,11.6412,11.5416,11.4508,11.3614,11.2803,11.2002,11.121,11.121,11.0799,11.0214,0.0,10.9713,10.8914,10.8206,10.7399,10.6507,10.5799,10.5385,10.5301,10.5301,10.5799,10.6297,0.0,0.0,0.0,0.0,0.0,0.0,0.0,0.0,0.0,0.0,0.0,0.0,0.0,0.0,0.0,0.0,0.0,0.0,0.0,0.0,0.0,5.2549,5.2534,5.3096,5.4318,5.4233,5.5518,5.8244,6.0703,6.2956,6.484,6.2094,5.8096,5.3156,5.191,5.1133,5.0879,5.2131,5.2842,5.3214,0.0,0.0,0.0,0.0,0.0,0.0,0.0,0.0,0.0,0.0,5.6782,5.7828,5.6206,0.0,0.0,0.0,0.0,0.0,5.8135,6.1373,6.3524,6.2049,6.4546,6.649,6.3252,0.0,0.0,0.0,0.0,0.0,0.0,0.0,0.0,0.0,0.0,0.0,0.0,0.0,0.0,0.0,0.0,12.3791,12.3993,12.4991,12.5494,12.5114,12.4287,12.3511,12.2613,12.0602,11.92,11.831,11.6704,11.5501,11.4706,11.3892,11.3307,11.2915,11.2086,11.13,11.0593,11.0593,11.0093,10.9398,0.0,10.8615,10.7511,10.7588,10.6796,10.5699,10.531,10.5415,10.5689,10.5311,10.5395,10.5484,0.0,0.0,0.0,0.0,0.0,0.0,0.0,0.0,0.0,0.0,0.0,0.0,0.0,0.0,0.0,0.0,0.0,0.0,0.0,0.0,5.1264,5.2572,5.2351,5.2873,5.4374,5.5367,5.755,6.1022,6.3153,6.5393,6.756,6.1635,5.6901,5.3447,5.2202,5.1442,5.1174,5.28,5.3379,5.3214,0.0,0.0,0.0,0.0,0.0,0.0,0.0,0.0,0.0,0.0,0.0,0.0,0.0,0.0,0.0,5.5207,5.4125,5.4086,5.69,5.9454,6.1566,6.2549,6.576,6.835,6.6993,0.0,0.0,0.0,0.0,0.0,0.0,0.0,0.0,0.0,0.0,0.0,0.0,0.0,0.0,0.0,0.0,12.3117,12.4991,12.5114,12.4789,12.3993,12.3211,12.2118,12.0714,11.878,11.7315,11.5987,11.501,11.4109,11.3316,11.2717,11.2419,11.2419,11.159,11.0799,11.0008,10.9992,10.9499,10.8515,10.8481,10.771,10.6386,10.7101,10.6392,10.5091,10.4894,10.5107,10.5498,10.4991,10.4786,10.4585,0.0,0.0,0.0,0.0,0.0,0.0,0.0,0.0,0.0,0.0,0.0,0.0,0.0,0.0,0.0,0.0,0.0,0.0,0.0,0.0,5.0749,5.0868,5.2319,5.4606,5.7853,5.8206,5.9802,6.2819,6.7707,6.9262,6.7626,6.3327,5.8821,5.4301,5.4179,5.3293,5.2008,5.3629,5.3878,5.3214,5.3214,0.0,0.0,0.0,0.0,0.0,0.0,0.0,0.0,0.0,0.0,0.0,0.0,0.0,5.5744,5.5576,5.4957,5.5165,5.9083,6.0327,6.0873,6.2421,6.3663,0.0,6.9903,6.8456,0.0,0.0,0.0,0.0,0.0,0.0,0.0,0.0,0.0,0.0,0.0,0.0,0.0,0.0,12.2701,12.3289,12.3497,12.3497,12.3117,12.2286,12.1488,12.0689,11.9708,11.749,11.6092,11.5999,11.4505,11.3288,11.2501,11.2402,11.2419,11.2419,11.159,11.0799,10.9983,11.0011,10.9198,10.7709,10.7699,10.7211,10.6397,10.6512,10.5904,10.4992,10.431,10.3607,10.2986,10.3693,10.4001,10.3898,0.0,0.0,0.0,0.0,0.0,0.0,0.0,0.0,0.0,0.0,0.0,0.0,0.0,0.0,0.0,0.0,0.0,0.0,0.0,4.9066,4.9339,4.9855,5.1504,5.3485,5.5885,5.943,6.3823,6.9105,7.1424,7.0907,6.76,6.2502,5.8081,5.4363,5.387,5.3329,5.2868,5.447,5.4974,5.4665,5.4168,5.396,0.0,0.0,0.0,0.0,0.0,0.0,0.0,0.0,5.3915,5.4925,5.3738,5.4738,5.6153,5.5156,5.4652,5.484,5.6876,5.9228,6.1659,6.3823,6.5741,0.0,0.0,0.0,0.0,0.0,0.0,0.0,0.0,0.0,0.0,0.0,0.0,0.0,11.7085,11.919,12.0815,12.1989,12.2802,12.3297,12.3297,12.2802,12.2215,12.139,12.0084,11.8817,11.7403,11.5999,11.479,11.3796,11.3213,11.2503,11.1711,11.1711,11.1385,11.0883,11.0593,10.9797,10.8482,10.8507,10.7915,10.6812,10.6296,10.5887,10.56,10.56,10.5086,10.4284,10.4001,10.3386,10.2689,10.3007,10.32,10.2988,0.0,0.0,0.0,0.0,0.0,0.0,0.0,0.0,0.0,0.0,0.0,0.0,0.0,0.0,0.0,0.0,0.0,0.0,4.8066,4.809,4.8366,4.896,5.086,5.3033,5.5437,6.0836,6.6134,7.1221,7.2383,7.0733,6.6432,6.125,5.7507,5.5094,5.4043,5.387,5.442,5.5499,5.5683,5.5153,5.4625,5.4261,0.0,0.0,0.0,0.0,0.0,0.0,0.0,0.0,5.3698,5.4702,5.3803,5.4865,5.6258,5.5414,5.5165,5.5218,5.5511,5.7807,6.0729,6.345,0.0,0.0,0.0,0.0,0.0,0.0,0.0,0.0,0.0,0.0,0.0,0.0,0.0,11.5891,11.8106,11.9588,12.0704,12.1205,12.1583,12.1791,12.1791,12.129,12.0514,11.9407,11.8281,11.691,11.5294,11.4505,11.3497,11.2413,11.2207,11.1796,11.121,11.0883,11.0382,10.9592,10.9403,10.8716,10.7607,10.7614,10.7211,10.6402,10.5493,10.5115,10.5086,10.4819,10.4216,10.3505,10.3493,10.3019,10.2282,10.2297,10.2283,10.2215,0.0,0.0,0.0,0.0,0.0,0.0,0.0,0.0,0.0,0.0,0.0,0.0,0.0,0.0,0.0,0.0,0.0,0.0,4.801,4.8089,4.8089,4.8089,5.053,5.3634,5.7431,6.2586,6.6107,6.782,7.0134,6.8795,6.3993,5.991,5.7582,5.6722,5.5153,5.5308,5.6792,5.6792,5.588,5.4401,5.4421,5.3925,0.0,0.0,0.0,0.0,0.0,0.0,0.0,0.0,5.3867,5.3617,5.6025,5.6248,5.5786,5.6542,5.6798,5.6638,5.5835,5.6193,5.7604,0.0,0.0,0.0,0.0,8.468,0.0,0.0,0.0,0.0,0.0,0.0,0.0,0.0,0.0,11.6596,11.8192,11.9088,11.9588,11.9594,11.8887,11.8387,11.8387,11.8387,11.769,11.6092,11.6005,11.53,11.3717,11.2783,11.2419,11.2419,11.159,11.121,11.121,11.0382,10.9598,10.8808,10.8002,10.7589,10.7589,10.7589,10.7211,10.6386,10.551,10.5091,10.5003,10.4201,10.34,10.2682,10.2682,10.2188,10.1509,10.1509,10.1509,10.1509,0.0,0.0,0.0,0.0,0.0,0.0,0.0,0.0,0.0,0.0,0.0,0.0,0.0,0.0,0.0,0.0,0.0,0.0,4.6345,4.6345,4.6345,4.6345,4.8773,5.0536,5.138,5.7444,6.376,7.0271,6.9844,6.7138,6.2281,5.9954,5.7823,5.6015,5.7231,5.7425,5.681,5.681,5.6537,5.6046,5.5454,5.4768,5.4044,0.0,0.0,0.0,0.0,0.0,0.0,0.0,0.0,0.0,5.4235,5.6447,5.8572,5.6539,5.7166,5.8055,5.6147,5.7432,0.0,0.0,0.0,0.0,0.0,8.9646,0.0,0.0,0.0,0.0,0.0,0.0,0.0,0.0,0.0,0.0,11.7486,11.871,11.9403,11.8802,11.8508,11.8386,11.8386,11.7388,11.6486,11.5987,11.498,11.39,11.2816,11.2516,11.2086,11.159,11.13,11.0883,11.0382,11.0093,10.9293,10.7897,10.711,10.6796,10.6796,10.6796,10.6591,10.6297,10.4887,10.4593,10.4986,10.3609,10.2893,10.2614,10.2113,10.1699,10.1509,10.1509,10.1509,10.1509,0.0,0.0,0.0,0.0,0.0,0.0,0.0,0.0,0.0,0.0,0.0,0.0,0.0,0.0,0.0,0.0,0.0,0.0,0.0,4.5673,4.5673,4.5673,4.7792,4.9732,5.1413,5.6602,6.1364,6.5553,6.551,6.3702,6.0165,5.984,5.908,5.8112,6.0872,6.1022,5.9199,5.9199,5.8446,5.722,5.6763,5.5886,5.4893,0.0,0.0,0.0,0.0,0.0,0.0,0.0,0.0,0.0,5.3716,5.5464,5.7355,5.6349,5.664,5.7304,5.7478,5.9159,0.0,0.0,0.0,0.0,0.0,0.0,0.0,0.0,0.0,0.0,0.0,0.0,0.0,0.0,11.3708,11.6802,11.7188,11.7989,11.8488,11.8001,11.7616,11.7287,11.6995,11.6084,11.5284,11.4613,11.3691,11.2794,11.2002,11.188,11.159,11.0715,11.0715,11.0298,10.9508,10.9189,10.8406,10.709,10.6297,10.5684,10.5389,10.5385,10.5385,10.5311,10.3991,10.3507,10.3588,10.259,10.2214,10.2214,10.1713,10.1317,10.1007,10.1007,10.0786,10.0586,0.0,0.0,0.0,0.0,0.0,0.0,0.0,0.0,0.0,0.0,0.0,0.0,0.0,0.0,0.0,0.0,0.0,0.0,0.0,0.0,4.585,4.5924,4.7584,5.0641,5.5185,5.813,5.8541,5.6373,5.8835,5.9242,5.7706,5.9609,6.0896,6.1747,6.4971,6.5041,6.2793,6.2423,6.0557,5.7886,5.7881,5.6957,5.5625,5.5673,0.0,0.0,0.0,0.0,0.0,0.0,0.0,0.0,5.4168,5.4038,5.4023,5.6098,5.5873,5.5772,5.9515,0.0,0.0,7.3222,0.0,0.0,0.0,0.0,0.0,0.0,0.0,0.0,10.9,10.9205,10.9788,11.1191,11.4087,11.6316,11.6785,11.7117,11.708,11.691,11.629,11.5586,11.4797,11.4613,11.4008,11.2512,11.2298,11.188,11.1089,11.1089,11.0715,10.9887,10.9884,10.9484,10.861,10.7886,10.7006,10.6093,10.5217,10.4404,10.361,10.3797,10.3902,10.3719,10.2998,10.2214,10.1509,10.1384,10.1384,10.1384,10.13,10.0784,10.0199,10.0213,9.9727,9.9208,0.0,0.0,0.0,0.0,0.0,0.0,0.0,0.0,0.0,0.0,0.0,0.0,0.0,0.0,0.0,0.0,0.0,0.0,0.0,0.0,4.6139,4.6738,4.8944,5.1272,5.3632,5.3785,5.356,5.3044,5.6085,5.6743,5.5244,5.9394,6.1416,6.1713,6.438,6.4521,6.2572,5.9419,5.7694,5.7068,5.707,5.6457,5.5663,5.6315,5.5532,0.0,0.0,0.0,0.0,0.0,0.0,0.0,5.4168,5.5562,5.6828,5.6066,5.7418,5.9426,6.0934,6.3339,0.0,0.0,8.9081,9.9853,0.0,0.0,0.0,0.0,0.0,11.1406,11.1613,11.2686,11.3403,11.3099,11.5294,11.6298,11.4585,11.5984,11.6497,11.4585,11.4797,11.4706,11.3918,11.3299,11.2784,11.2413,11.1796,11.1089,11.0298,11.0298,10.9887,10.9092,10.9099,10.8402,10.6905,10.6706,10.5594,10.3509,10.2697,10.1914,10.1092,10.2991,10.3609,10.2908,10.28,10.2214,10.1509,10.08,10.0596,10.0508,9.9846,9.9521,9.9371,9.9363,9.9262,9.9135,0.0,0.0,0.0,0.0,0.0,0.0,0.0,0.0,0.0,0.0,0.0,0.0,0.0,0.0,0.0,0.0,0.0,0.0,0.0,0.0,4.6513,4.7672,4.9242,5.0485,5.1403,5.1426,5.1022,5.0215,5.2346,5.4108,5.5642,6.0086,6.3025,6.4613,6.7096,6.6609,6.382,6.0884,5.9013,5.7945,5.7936,5.7453,5.6801,5.7212,5.6138,5.4458,5.4843,0.0,0.0,0.0,0.0,0.0,0.0,0.0,5.5204,5.5506,5.68,5.8871,6.2418,0.0,0.0,8.59,0.0,10.5293,10.8599,11.0298,11.1005,11.0093,11.13,11.2413,11.2412,11.3415,11.4087,11.3712,11.4708,11.5003,11.3802,11.4712,11.5014,11.3692,11.4011,11.3887,11.3093,11.2587,11.2086,11.13,11.0883,11.0298,10.9508,10.909,10.8493,10.7704,10.6889,10.6093,10.5217,10.4389,10.3409,10.2087,10.1307,10.0514,9.9764,10.1391,10.1713,10.1008,10.1801,10.1509,10.0304,10.0304,10.0091,9.9681,9.9265,9.8853,9.8535,9.8513,9.8298,9.8007,0.0,0.0,0.0,0.0,0.0,0.0,0.0,0.0,0.0,0.0,0.0,0.0,0.0,0.0,0.0,0.0,0.0,0.0,0.0,0.0,0.0,4.863,4.9163,4.9593,4.9913,5.0497,5.0136,4.8739,4.9601,0.0,0.0,0.0,6.4634,6.7987,6.9699,6.8554,6.5141,6.2906,6.0811,5.8976,5.8976,5.8575,5.7999,5.7999,0.0,5.4885,5.5584,5.5272,5.4603,5.444,0.0,0.0,0.0,0.0,5.28,5.4794,5.5589,5.7063,6.2882,0.0,7.9068,9.4465,10.24,0.0,10.9387,11.0593,11.121,11.121,11.1796,11.2398,11.2388,11.3106,11.3609,11.3403,11.3485,11.3496,11.3206,11.3412,11.3496,11.3194,11.3296,11.3011,11.2099,11.1987,11.1385,10.9887,10.97,10.9207,10.8412,10.7597,10.6707,10.5789,10.4415,10.362,10.3316,10.1989,10.121,10.091,10.0092,9.9336,9.8707,9.9527,9.9583,9.9179,10.0505,10.0286,9.9143,9.9671,9.9493,9.8883,9.8758,9.8264,9.7682,9.7682,9.7267,9.6805,0.0,0.0,0.0,0.0,0.0,0.0,0.0,0.0,0.0,0.0,0.0,0.0,0.0,0.0,0.0,0.0,0.0,0.0,4.6277,0.0,0.0,4.9459,4.9578,5.0238,5.1628,5.1109,5.0689,5.0469,0.0,0.0,0.0,0.0,0.0,6.8671,0.0,6.6472,6.4998,6.0526,5.8437,5.8143,5.8143,5.811,5.7999,0.0,0.0,0.0,0.0,5.6128,5.5336,5.4627,5.4868,0.0,0.0,0.0,5.4131,5.4462,5.5541,5.7284,6.0264,0.0,8.4972,0.0,10.3211,10.7003,0.0,0.0,11.121,0.0,11.1796,11.2402,11.2389,11.3086,11.3413,11.2711,11.3088,11.3084,11.1711,11.2709,11.3105,11.1718,11.2095,11.1994,11.0482,11.0287,10.9887,10.9008,10.8284,10.7583,10.6795,10.5893,10.4688,10.32,10.3001,10.2211,10.0786,10.0616,9.9776,9.8385,9.757,9.7137,9.7054,9.7869,9.8523,9.9116,9.9311,9.9304,9.9043,9.8447,9.8169,9.7973,9.7303,9.6934,9.6851,9.6851,9.6805,9.6722,0.0,0.0,0.0,0.0,0.0,0.0,0.0,0.0,0.0,0.0,0.0,0.0,0.0,0.0,0.0,4.6289,4.6289,4.6289,4.6289,4.6523,4.7153,4.8246,4.801,4.8503,4.9847,4.9776,4.963,4.94,0.0,0.0,0.0,6.4901,6.8201,0.0,0.0,0.0,0.0,6.0459,5.7999,5.7999,5.7999,5.8251,0.0,0.0,0.0,0.0,0.0,0.0,0.0,5.5205,5.5324,5.5415,5.4229,0.0,0.0,0.0,5.5204,5.8725,6.7508,7.6803,8.6902,0.0,10.3714,10.6485,10.9895,11.0593,11.0509,11.0509,11.0509,11.0715,11.159,11.2002,11.2002,11.121,11.1711,11.188,11.0715,11.1506,11.2002,11.13,11.1082,11.0806,11.0114,10.9186,10.8313,10.7483,10.6717,10.5699,10.4408,10.3508,10.2596,10.1415,10.0487,9.9901,9.9627,9.8741,9.7914,9.722,9.6888,9.6685,9.6722,9.7059,9.7415,9.7794,9.8718,9.8579,9.7753,9.7854,9.7636,9.7184,9.6847,9.6685,9.6685,9.6685,9.6685,9.6685,0.0,0.0,0.0,0.0,0.0,0.0,0.0,0.0,0.0,0.0,0.0,0.0,0.0,0.0,0.0,0.0,4.6289,4.6289,4.6289,4.6211,4.6469,4.7184,4.6786,4.7052,4.8178,4.8646,4.88,0.0,0.0,0.0,6.5378,6.7804,7.2463,0.0,7.2756,0.0,0.0,0.0,0.0,0.0,0.0,0.0,0.0,0.0,0.0,0.0,0.0,0.0,0.0,0.0,0.0,0.0,0.0,5.3836,0.0,0.0,0.0,5.867,0.0,0.0,8.4377,9.6338,10.15,10.4589,0.0,0.0,10.9499,0.0,10.9388,10.9094,11.0094,11.0502,11.0382,10.9797,11.0186,11.0404,10.9807,11.0201,11.0612,11.0592,11.0105,10.9508,10.9116,10.8009,10.6794,10.5617,10.4692,10.3586,10.2199,10.1312,10.0501,9.9714,9.852,9.8093,9.8509,9.7096,9.6515,9.6685,9.6478,9.6515,9.6685,9.6685,9.6685,9.6764,9.7968,9.7807,9.6764,9.7345,9.7225,9.6685,9.6685,9.6685,9.6685,9.6685,9.6685,9.6685,0.0,0.0,0.0,0.0,0.0,0.0,0.0,0.0,0.0,0.0,0.0,0.0,0.0,4.6289,4.6289,4.6289,4.6289,4.6289,4.6289,4.6289,4.6547,4.7184,4.6806,0.0,4.8178,4.8646,4.9099,0.0,0.0,0.0,6.8708,7.1134,7.7337,8.6138,7.9674,7.3839,6.8671,0.0,0.0,0.0,0.0,0.0,0.0,0.0,0.0,0.0,0.0,0.0,0.0,0.0,0.0,0.0,0.0,0.0,0.0,0.0,0.0,0.0,0.0,7.0608,0.0,8.7249,9.4783,10.0499,0.0,0.0,10.8207,10.9707,10.9382,10.8593,10.7888,10.8418,10.8887,10.8887,10.8904,10.8897,10.8894,10.8891,10.8912,10.8898,10.8909,10.8295,10.6717,10.6507,10.5489,10.3083,10.2108,10.1303,10.0518,9.9676,9.8849,9.8059,9.7958,9.7553,9.6847,9.5975,9.5934,9.6681,9.5934,9.5975,9.6685,9.6685,9.6685,9.6685,9.6805,9.6768,9.6685,9.6764,9.6727,9.6685,9.6685,9.6685,9.6685,9.6685,9.6685,9.6685,0.0,0.0,0.0,0.0,0.0,0.0,0.0,0.0,0.0,0.0,0.0,0.0,0.0,4.6289,4.6289,4.6289,4.6289,4.6289,4.6289,4.6289,4.6313,4.6361,4.6216,4.6535,4.7404,4.861,4.936,0.0,0.0,5.7547,6.5068,6.8561,7.3153,7.8369,7.6016,7.414,7.2265,6.4628,0.0,0.0,0.0,0.0,0.0,0.0,0.0,0.0,0.0,0.0,0.0,0.0,0.0,0.0,0.0,0.0,0.0,0.0,0.0,0.0,0.0,0.0,7.278,8.3609,8.9624,9.421,9.9322,10.2495,10.4794,10.5913,10.5883,10.5715,10.6009,10.7089,10.7896,10.7313,10.7693,10.7804,10.7315,10.7698,10.7813,10.7299,10.6805,10.6014,10.4908,10.3895,10.2699,10.1297,10.0397,9.9385,9.8041,9.8219,9.7474,9.5643,9.61,9.5975,9.5183,9.4851,9.487,9.5147,9.5399,9.539,9.5183,9.5685,9.5643,9.5183,9.5722,9.6224,9.6685,9.6685,9.639,9.5975,9.6515,9.639,9.5975,9.6515,9.6685,9.6685,0.0,0.0,0.0,0.0,0.0,0.0,0.0,0.0,0.0,0.0,0.0,0.0,0.0,0.0,4.7187,4.7187,4.7187,4.7031,4.6758,4.6688,4.6421,4.5923,4.6127,4.6569,4.7158,4.8361,4.9253,0.0,0.0,0.0,0.0,6.6583,7.066,7.4445,7.2793,7.3446,0.0,0.0,0.0,6.4197,0.0,0.0,6.0842,0.0,0.0,0.0,0.0,0.0,0.0,0.0,0.0,0.0,0.0,0.0,0.0,0.0,0.0,0.0,6.0945,0.0,0.0,0.0,8.3745,8.7403,9.5304,9.8109,9.9807,10.2485,10.2903,10.2887,10.3703,10.4604,10.519,10.519,10.5395,10.551,10.5217,10.539,10.5495,10.5212,10.441,10.3588,10.2806,10.1709,10.0711,9.9595,9.8738,9.7725,9.6374,9.6532,9.5953,9.4362,9.4822,9.4822,9.432,9.403,9.4015,9.4296,9.4585,9.4576,9.4313,9.4838,9.4822,9.4325,9.4863,9.5565,9.6307,9.6598,9.6224,9.5575,9.6386,9.6192,9.5602,9.639,9.6685,9.6685,0.0,0.0,0.0,0.0,0.0,0.0,0.0,0.0,0.0,0.0,0.0,0.0,0.0,0.0,0.0,4.8945,4.8945,4.8555,4.7695,4.7508,4.6966,4.5978,4.6615,4.7185,4.7527,4.8,4.8863,5.0154,0.0,0.0,0.0,0.0,7.041,7.5542,7.095,7.1934,7.7028,0.0,7.5091,7.1868,0.0,6.3353,6.4427,0.0,0.0,0.0,6.6559,6.4983,0.0,0.0,0.0,0.0,0.0,0.0,0.0,0.0,0.0,0.0,0.0,0.0,0.0,0.0,7.6941,8.0163,9.2162,9.3069,9.3248,9.981,10.0515,10.0204,10.1198,10.0695,10.0695,10.2313,10.1914,10.1711,10.2505,10.1997,10.1689,10.2519,10.1914,10.1082,10.0294,10.0211,9.9536,9.7948,9.7089,9.6291,9.5485,9.4653,9.4246,9.425,9.4255,9.4218,9.4218,9.3469,9.3469,9.4218,9.3469,9.3496,9.4218,9.4237,9.4255,9.4218,9.4255,9.4724,9.5492,9.6312,9.6141,9.5521,9.6326,9.6151,9.5561,9.6353,9.6681,9.6685,0.0,0.0,0.0,0.0,0.0,0.0,4.8203,4.8164,4.8164,0.0,0.0,0.0,0.0,0.0,5.043,4.9687,4.9766,4.9453,4.8594,4.7823,4.7232,4.6874,4.6935,4.7456,4.8417,4.8856,5.0016,5.1907,5.2205,5.4035,5.731,6.0196,6.3646,0.0,6.8455,6.9772,7.0907,6.6202,0.0,0.0,6.3683,6.4013,0.0,0.0,0.0,0.0,0.0,6.7286,0.0,0.0,6.2768,6.0936,0.0,0.0,0.0,0.0,0.0,0.0,5.6949,0.0,0.0,0.0,0.0,0.0,7.9044,8.0976,8.364,9.1899,9.2509,9.3227,9.876,9.8173,9.7176,9.8178,9.9652,10.0693,10.0902,10.079,10.0515,10.009,9.9911,9.9456,9.865,9.8045,9.7283,9.6237,9.5414,9.4624,9.3795,9.295,9.2785,9.3423,9.2808,9.2473,9.2473,9.2266,9.2266,9.2514,9.2927,9.2909,9.2505,9.3125,9.3097,9.2514,9.3175,9.3566,9.3846,9.4612,9.4479,9.385,9.4669,9.4825,9.4727,9.5556,9.6183,9.6685,0.0,0.0,0.0,0.0,0.0,4.9844,4.9492,4.9453,4.957,0.0,0.0,0.0,0.0,0.0,0.0,5.2144,5.1831,5.1133,4.9844,4.8866,4.7973,4.7156,4.7326,4.778,4.8496,4.9129,5.037,5.2321,5.1754,5.2567,5.4622,5.6746,5.8914,0.0,0.0,0.0,0.0,0.0,0.0,0.0,6.6583,0.0,0.0,7.1541,7.2419,0.0,0.0,0.0,7.2936,6.9629,6.6766,0.0,0.0,0.0,0.0,0.0,0.0,0.0,0.0,0.0,0.0,0.0,0.0,0.0,7.3676,7.5094,7.7222,8.5838,8.738,8.8894,9.4505,9.4686,9.4242,9.5057,9.6661,9.7923,9.8246,9.8014,9.7743,9.7607,9.7303,9.6918,9.646,9.5953,9.5493,9.5011,9.423,9.3445,9.2611,9.206,9.2019,9.2556,9.206,9.1808,9.1808,9.1808,9.1808,9.1808,9.2308,9.2303,9.1808,9.2344,9.2266,9.1849,9.2349,9.2556,9.2583,9.3069,9.3172,9.3196,9.3993,9.4104,9.3939,9.5089,9.5597,9.5805,0.0,0.0,5.0351,5.0469,5.1133,5.1484,5.0848,5.0779,5.1055,0.0,0.0,0.0,0.0,0.0,0.0,0.0,5.4463,5.316,5.1407,5.0331,4.9064,4.7509,4.8047,4.843,4.8506,4.9331,5.0577,5.2176,5.1438,5.1822,5.3361,5.4882,5.602,5.6813,0.0,0.0,0.0,0.0,0.0,6.8818,7.1061,7.3479,0.0,0.0,8.0538,0.0,8.1411,8.0869,7.9368,7.3846,6.9288,0.0,0.0,0.0,0.0,0.0,5.7865,0.0,0.0,0.0,0.0,0.0,0.0,0.0,7.23,7.2408,7.2705,8.0562,8.3187,8.5213,8.9088,9.0295,9.1025,9.1877,9.2927,9.4039,9.5187,9.4757,9.455,9.5296,9.4757,9.4302,9.4302,9.4219,9.4171,9.4162,9.3409,9.2625,9.184,9.1808,9.1808,9.1808,9.1808,9.1808,9.1808,9.1808,9.1808,9.1808,9.1808,9.1808,9.1808,9.1808,9.1808,9.1808,9.1808,9.1808,9.1808,9.1808,9.2266,9.3014,9.3758,9.3634,9.3295,9.4822,9.4899,9.4525,0.0,0.0,5.1406,5.2109,5.293,5.3636,5.4099,5.4248,5.457,5.5312,0.0,0.0,0.0,0.0,0.0,0.0,5.5483,5.4212,5.3142,5.1556,5.0485,5.0135,5.017,5.0511,5.1156,5.1393,5.2333,5.3986,5.3155,5.3214,5.4176,5.5142,5.602,5.6813,0.0,0.0,0.0,0.0,0.0,6.7063,6.8208,0.0,8.0759,8.0755,8.2072,8.3907,8.3907,8.3389,8.2027,0.0,7.3468,6.9582,0.0,0.0,0.0,0.0,0.0,0.0,0.0,0.0,0.0,0.0,0.0,0.0,6.4691,6.4986,6.7251,7.3375,7.3863,7.5544,8.3377,8.4406,8.4343,8.5169,8.7601,9.0576,9.4058,9.4384,9.4343,9.4508,9.4384,9.4297,9.4297,9.3718,9.3323,9.3322,9.2547,9.1987,9.1808,9.1808,9.1808,9.1808,9.1808,9.1808,9.1808,9.1808,9.1808,9.1808,9.1808,9.1808,9.1808,9.1808,9.1808,9.1808,9.1808,9.1808,9.1808,9.1808,9.189,9.206,9.2225,9.2638,9.3212,9.4168,9.4446,9.4527,0.0,5.2109,5.2812,5.3281,5.4372,5.5474,5.6239,5.6358,5.6946,0.0,0.0,0.0,0.0,0.0,0.0,0.0,0.0,0.0,0.0,5.3427,5.2133,5.0866,5.1128,5.1316,5.1316,5.1775,5.2598,5.3863,5.3009,5.3225,5.4399,5.4806,5.4806,5.4473,5.6082,0.0,0.0,0.0,6.2915,6.6326,7.1181,0.0,8.2374,8.3985,8.5596,8.6982,8.6982,8.5958,8.3797,7.8471,7.5637,0.0,0.0,6.6419,6.6635,0.0,6.4335,6.4548,0.0,0.0,0.0,6.414,0.0,0.0,0.0,6.2813,6.3992,7.0051,6.9705,7.0547,7.7821,7.8186,7.8158,8.062,8.3042,8.5742,8.8988,9.118,9.2582,9.3024,9.2684,9.2601,9.3014,9.2684,9.2432,9.2432,9.2056,9.1602,9.1226,9.1597,9.1602,9.1226,9.1597,9.1808,9.1808,9.1808,9.1808,9.1808,9.1808,9.1808,9.1808,9.1808,9.1808,9.1808,9.1808,9.1808,9.1808,9.1808,9.1808,9.1808,9.1808,9.2344,9.3217,9.4007,9.4039,9.4001,5.1562,0.0,5.3787,5.3954,5.5477,5.6894,5.7688,5.7847,5.8817,0.0,0.0,0.0,0.0,0.0,0.0,0.0,0.0,0.0,0.0,0.0,5.3513,5.1284,5.2278,5.2277,5.0975,5.2117,5.2937,5.3436,5.2932,5.3343,5.462,5.4803,5.4255,5.3233,5.5394,0.0,0.0,0.0,0.0,6.7364,0.0,7.9537,8.1742,8.6078,8.8255,8.8996,8.9473,8.8197,8.5384,7.9471,0.0,7.6438,6.8622,6.8968,0.0,0.0,0.0,0.0,0.0,0.0,0.0,0.0,0.0,6.2533,0.0,0.0,0.0,6.7245,6.6795,6.7101,7.2106,7.1864,7.1965,7.5254,7.7934,8.0174,8.1823,8.5663,8.8886,9.0459,8.9939,8.9935,9.1226,9.1061,9.1143,9.1767,9.1061,9.0685,9.0809,9.1303,9.1349,9.0855,9.1473,9.1808,9.1808,9.1808,9.1808,9.1808,9.1808,9.1808,9.1808,9.1808,9.1808,9.1808,9.1808,9.1808,9.1808,9.1808,9.1808,9.1808,9.1808,9.2225,9.2932,9.3763,9.3552,9.318,5.1552,5.2187,0.0,5.3884,5.592,5.7726,5.8443,5.9236,6.0618,0.0,0.0,0.0,0.0,0.0,0.0,0.0,0.0,0.0,6.2123,0.0,0.0,5.2969,5.5168,5.4975,5.1811,5.4052,5.4993,5.4367,5.4936,5.5291,5.5475,5.6195,5.6819,5.7223,5.5468,0.0,0.0,0.0,6.461,0.0,7.5877,7.7665,0.0,8.4012,8.6578,8.7532,8.9702,8.9376,8.7377,0.0,8.1224,7.8829,0.0,7.2635,0.0,0.0,0.0,0.0,0.0,0.0,0.0,0.0,6.9851,0.0,0.0,0.0,6.3285,6.1817,0.0,6.3037,6.5852,0.0,0.0,6.5654,7.0702,7.4129,7.297,7.6939,8.1563,8.5946,8.5785,8.6429,8.9395,8.839,8.8728,9.1597,8.8513,8.8016,9.1478,9.1072,9.1021,9.1652,9.1767,9.1808,9.1808,9.1808,9.1808,9.1808,9.1808,9.1808,9.1808,9.1808,9.1808,9.1808,9.1808,9.1808,9.1808,9.1808,9.1808,9.1808,9.1808,9.1849,9.2056,9.2927,9.2684,9.2184,0.0,0.0,0.0,0.0,5.7267,5.8631,5.9846,6.2805,6.5098,0.0,0.0,0.0,0.0,0.0,0.0,0.0,0.0,6.1552,0.0,0.0,0.0,5.5476,5.6898,5.686,5.4897,5.5877,5.6222,5.5872,5.5683,5.5839,5.6308,5.6633,5.6746,5.6604,5.6537,0.0,6.0263,0.0,0.0,0.0,0.0,0.0,0.0,8.484,8.8682,8.9931,9.0922,9.0556,8.8906,0.0,8.2341,0.0,0.0,0.0,0.0,0.0,0.0,0.0,0.0,0.0,0.0,0.0,0.0,0.0,6.2182,0.0,6.0772,0.0,0.0,0.0,0.0,0.0,0.0,0.0,6.6039,6.821,6.8497,7.0273,7.4422,8.2083,8.1013,8.0943,8.4214,8.4335,8.5148,8.745,8.6051,8.6037,8.8202,8.9774,9.0326,8.9734,9.1061,9.135,9.0434,9.1313,9.156,9.1102,9.1597,9.1808,9.1808,9.1808,9.1808,9.1808,9.1808,9.1808,9.1808,9.1808,9.1808,9.1808,9.1808,9.2101,9.2597,9.2973,9.2886,9.2721,0.0,0.0,0.0,0.0,5.8016,5.9302,6.1041,6.4362,0.0,0.0,0.0,0.0,7.4047,7.2664,0.0,0.0,0.0,6.6247,0.0,0.0,5.9396,5.6749,5.8168,0.0,0.0,5.6941,5.7155,5.6886,5.6239,5.6237,5.6813,5.6813,5.6599,5.6316,0.0,5.9506,6.1651,0.0,0.0,7.1163,7.5275,7.7823,7.9902,8.6304,9.0013,9.1808,9.1808,9.1267,8.9879,8.5121,8.3778,0.0,7.8148,0.0,0.0,0.0,0.0,0.0,7.3861,0.0,0.0,0.0,0.0,0.0,0.0,0.0,0.0,0.0,0.0,0.0,0.0,0.0,0.0,0.0,0.0,6.451,6.4785,6.5029,6.8264,7.6702,7.7145,7.79,8.0741,8.1146,8.2156,8.4437,8.3147,8.3287,8.5685,8.7819,8.8723,8.8226,9.0126,9.0593,8.9395,9.0781,9.1198,9.0603,9.1432,9.1808,9.1808,9.1808,9.1808,9.1808,9.1808,9.1808,9.1808,9.1808,9.1808,9.1808,9.1808,9.2184,9.2725,9.2725,9.2725,9.2845,0.0,5.5434,0.0,0.0,0.0,0.0,6.1709,0.0,0.0,0.0,0.0,0.0,0.0,0.0,0.0,0.0,0.0,6.9858,7.0552,0.0,6.093,0.0,0.0,0.0,0.0,0.0,5.774,5.6886,5.6814,5.6777,5.6813,5.6813,5.7186,5.7968,5.8792,6.2224,6.7493,6.835,7.3729,8.1701,8.1893,8.5247,8.9884,0.0,8.9022,9.1808,9.1808,0.0,0.0,8.7678,8.6338,0.0,0.0,0.0,0.0,0.0,0.0,0.0,0.0,0.0,0.0,6.9743,0.0,0.0,0.0,0.0,6.4411,0.0,0.0,0.0,0.0,0.0,0.0,0.0,0.0,0.0,0.0,6.1266,6.3643,6.8675,7.4756,7.9185,8.0838,7.9598,8.0347,8.4287,7.9498,7.9112,8.5446,8.5177,8.5858,8.8112,8.9036,8.9432,8.94,9.0207,9.0623,9.0603,9.1432,9.1808,9.1808,9.1808,9.1808,9.1808,9.1808,9.1808,9.1808,9.1808,9.1808,9.1808,9.1808,9.1808,9.1849,9.1849,9.1849,9.1849,0.0,0.0,0.0,0.0,0.0,0.0,0.0,6.5206,0.0,0.0,0.0,0.0,0.0,0.0,8.3052,0.0,0.0,7.6399,7.4399,7.005,0.0,0.0,0.0,6.2974,0.0,0.0,0.0,0.0,5.7907,5.7593,5.7593,5.7593,5.803,5.8866,6.0759,6.3858,0.0,0.0,0.0,0.0,0.0,8.7182,9.2092,0.0,9.0521,9.1015,9.1015,9.0479,0.0,8.8267,8.6906,8.5533,8.391,8.2117,8.0391,7.9297,7.8934,7.8904,0.0,0.0,7.9938,7.3965,0.0,0.0,0.0,0.0,0.0,0.0,0.0,0.0,0.0,0.0,0.0,0.0,0.0,0.0,0.0,5.8255,5.9848,6.3612,6.8887,0.0,7.144,7.2352,7.3755,7.5652,7.4019,7.5314,8.0734,8.2786,8.443,8.578,8.7619,8.8367,8.7812,8.9124,8.9547,8.9009,8.9846,9.0483,9.1028,9.1028,9.1289,9.1808,9.1808,9.1808,9.1808,9.1808,9.1808,9.1808,9.1808,9.1808,9.1808,9.1808,9.1808,9.1808,5.79,0.0,0.0,0.0,0.0,0.0,0.0,0.0,0.0,0.0,8.0206,0.0,8.9445,0.0,8.8632,0.0,8.6132,8.2477,7.7249,7.4938,0.0,6.8545,6.7936,0.0,0.0,0.0,0.0,0.0,0.0,5.8547,5.7999,5.7999,5.8287,5.8942,6.2521,6.5763,6.8949,0.0,7.8473,0.0,0.0,8.9354,0.0,0.0,9.1671,9.145,0.0,9.0527,8.9699,8.8908,8.7742,8.6417,8.5023,8.3331,8.1579,8.0207,8.0003,8.015,7.9875,8.0978,0.0,7.6488,7.4382,0.0,6.5888,0.0,0.0,0.0,0.0,0.0,0.0,0.0,0.0,0.0,0.0,0.0,0.0,5.6193,5.7347,6.0009,6.4639,0.0,6.7374,6.8255,6.9012,6.9551,6.9606,7.1472,7.577,7.9065,8.1725,8.3668,8.5817,8.6941,8.6982,8.8302,8.8725,8.8222,8.9025,8.9666,9.0175,9.0175,9.0624,9.1363,9.1363,9.1551,9.1808,9.1808,9.1808,9.1808,9.1808,9.1808,9.1808,9.1808,9.1808,9.1808,0.0,0.0,0.0,0.0,6.2357,0.0,0.0,0.0,7.5973,0.0,8.3127,8.7166,9.2251,9.2018,9.1823,9.2635,9.1864,0.0,7.9675,8.0519,0.0,0.0,7.0512,6.9313,6.5098,0.0,0.0,0.0,0.0,5.9572,5.8112,5.8039,5.7999,5.8268,6.4,0.0,7.051,7.872,8.4092,8.739,9.0555,9.1849,9.1845,9.1834,9.2314,9.2936,9.204,9.1181,9.0311,8.9588,8.881,8.7729,8.5439,8.4163,8.3055,8.0731,8.0585,8.1002,8.024,8.1179,8.1456,7.7513,7.6959,0.0,0.0,0.0,7.5025,0.0,0.0,0.0,0.0,0.0,0.0,0.0,0.0,0.0,0.0,0.0,5.6259,5.7927,6.2148,0.0,6.8178,6.712,6.6218,6.6153,6.6166,6.7628,7.0904,7.4142,7.78,8.1903,8.3668,8.5317,8.6982,8.7759,8.8133,8.8144,8.893,8.929,8.9322,8.9322,8.9771,9.0546,9.0583,9.1028,9.1734,9.1771,9.1808,9.1808,9.1808,9.1808,9.1808,9.1808,9.1808,9.1808,5.951,6.124,6.2624,0.0,6.2552,6.4286,0.0,0.0,0.0,0.0,8.7861,9.1515,9.6636,9.6403,9.5747,9.5362,9.3941,0.0,0.0,0.0,0.0,7.9865,7.7673,7.4685,7.0622,6.8574,0.0,6.3326,0.0,0.0,5.9755,5.8547,5.7999,5.8296,6.4576,6.7727,6.8945,7.8268,8.4759,8.8959,9.0996,9.2184,9.2712,0.0,9.1955,9.2032,9.1183,8.9636,8.7982,8.8373,8.7976,8.7191,8.6567,8.5834,8.4952,8.3738,8.3505,8.3623,8.3431,8.4109,8.449,8.2819,8.0328,7.7509,0.0,0.0,0.0,0.0,0.0,0.0,0.0,0.0,0.0,0.0,0.0,0.0,0.0,0.0,0.0,5.9505,0.0,6.0362,6.158,6.2411,6.2342,6.1142,6.1624,6.3656,6.7539,7.1353,7.5314,7.9382,8.2239,8.4776,8.6982,8.7193,8.7316,8.7314,8.7509,8.7936,8.8495,8.8495,8.8931,8.9734,9.0326,9.0734,9.0955,9.1546,9.1808,9.1808,9.1808,9.1808,9.1808,9.1808,9.1808,9.1808,6.0553,0.0,0.0,6.597,0.0,0.0,7.3054,0.0,0.0,8.6944,9.0479,0.0,9.6795,9.8024,9.8444,9.7983,9.6367,0.0,0.0,0.0,0.0,8.4826,8.2866,7.9594,7.4891,7.1536,0.0,6.4178,0.0,0.0,5.9315,5.8437,5.7999,5.8256,6.4427,6.7584,6.8865,7.8956,8.5816,8.9991,9.0918,9.1762,0.0,9.1978,9.1597,9.1212,9.0765,8.9261,8.7582,8.8051,8.7684,8.6895,8.6153,8.5865,8.5519,8.3984,8.4311,8.5044,8.4681,8.5432,8.6043,8.4884,8.3146,8.1037,7.8325,7.835,7.8346,0.0,7.7097,7.7296,0.0,0.0,0.0,0.0,0.0,0.0,0.0,0.0,0.0,0.0,5.8956,5.8805,5.8206,5.866,5.8441,5.7212,5.9494,6.1612,6.3231,6.9495,7.4247,7.6891,8.1171,8.4381,8.6444,8.7167,8.7336,8.6982,8.6982,8.7243,8.7688,8.7688,8.8109,8.8911,8.9353,8.9959,9.0624,9.1106,9.1473,9.1808,9.1808,9.1808,9.1808,9.1808,9.1808,9.1808,0.0,0.0,0.0,0.0,0.0,0.0,0.0,8.0054,0.0,8.8945,0.0,9.5215,9.6066,9.8603,10.0296,10.0296,0.0,9.6403,9.3366,9.3713,9.1941,8.7284,8.6782,8.4017,7.8427,7.4361,0.0,0.0,0.0,0.0,5.8327,5.811,5.7999,5.8256,6.3833,0.0,0.0,8.0237,8.655,9.0143,9.0473,9.1065,9.1808,9.1808,9.1308,9.0607,9.0594,8.9572,8.8197,8.8191,8.7684,8.6772,8.5358,8.5396,8.5558,8.3455,8.4315,8.581,8.5106,8.5922,8.6649,8.5271,8.5358,8.4892,8.1383,8.0958,8.0934,7.9537,7.7824,7.6662,0.0,0.0,0.0,0.0,0.0,0.0,0.0,0.0,0.0,0.0,0.0,0.0,5.7315,5.6477,5.566,5.4625,5.8426,6.0292,5.9109,6.7654,7.3158,7.4407,8.0061,8.3954,8.5775,8.7285,8.7754,8.7148,8.7051,8.6982,8.6982,8.6982,8.7396,8.8058,8.8168,8.9046,9.0436,9.0546,9.1065,9.1808,9.1808,9.1808,9.1808,9.1808,9.1808,9.1808,0.0,0.0,0.0,0.0,0.0,8.0435,8.4942,8.7051,8.978,9.4362,9.8517,10.1407,10.2214,10.1597,10.1092,10.1092,9.9558,0.0,0.0,0.0,0.0,9.2482,9.0361,8.7028,8.2242,7.683,7.2051,0.0,0.0,0.0,5.9939,5.8623,5.7999,5.822,6.3276,6.9362,7.6114,8.0681,0.0,8.7794,8.9812,9.1065,9.1808,9.1808,9.1308,9.0612,9.0602,8.9555,8.8213,8.82,8.7684,8.6941,8.6686,8.6688,8.6697,8.6293,8.6446,8.6779,8.6627,8.6803,8.6941,8.6649,8.619,8.5605,8.4911,8.3823,8.2913,8.2606,8.0723,7.8386,7.579,0.0,0.0,0.0,0.0,0.0,0.0,0.0,0.0,0.0,0.0,5.9246,5.8817,5.8665,5.7685,5.5539,5.6158,5.7097,5.8154,6.3664,6.8378,7.1821,7.811,8.2836,8.5755,8.674,8.7484,8.7996,8.731,8.6982,8.6982,8.6982,8.7068,8.7265,8.7917,8.8748,8.9657,9.0326,9.1065,9.1808,9.1808,9.1808,9.1808,9.1808,9.1808,9.1808,0.0,0.0,0.0,0.0,0.0,0.0,0.0,9.39,0.0,9.6247,9.844,9.9942,9.9942,10.1212,10.1784,10.1281,10.0214,9.9101,9.8214,9.7401,9.6172,9.4448,9.2006,0.0,8.504,7.8585,7.3336,6.9519,0.0,0.0,5.9747,5.8544,5.7999,5.8183,6.2209,6.8701,0.0,0.0,8.2251,8.6591,8.9005,9.0212,9.0656,9.1473,9.1299,9.0557,9.0126,8.9474,8.8751,8.8347,8.7684,8.6941,8.6522,8.6668,8.6836,8.6004,8.634,8.6914,8.6496,8.6399,8.6399,8.6399,8.5444,8.4578,8.4546,8.3639,8.2787,8.277,8.1526,7.9174,7.505,6.9704,0.0,0.0,0.0,0.0,0.0,0.0,0.0,0.0,0.0,0.0,0.0,0.0,5.8041,0.0,0.0,5.77,5.6811,6.2964,6.7604,6.9963,7.6767,8.1703,8.4515,8.66,8.7605,8.7573,8.718,8.6982,8.6982,8.6982,8.6982,8.7023,8.7839,8.8679,8.9473,9.0734,9.1436,9.1808,9.1808,9.1808,9.1808,9.1808,9.1808,9.1808,0.0,7.624,0.0,0.0,8.6288,0.0,9.464,9.9019,10.1017,9.8478,9.8711,9.8942,9.8514,10.1094,10.2594,10.1899,10.0904,9.9986,9.9139,9.825,9.7098,9.5602,9.3379,9.063,8.7286,8.0646,7.4848,0.0,0.0,0.0,5.8936,5.829,5.8183,5.8657,6.2065,6.786,0.0,0.0,8.0934,8.6012,8.8234,8.9363,8.9771,9.0881,9.0991,9.0505,8.969,8.9383,8.9291,8.8479,8.7662,8.6895,8.6235,8.6485,8.6731,8.5276,8.5735,8.6567,8.5771,8.5653,8.5797,8.581,8.4845,8.3922,8.3894,8.3163,8.2472,8.2451,8.1526,7.9243,7.4364,7.062,0.0,0.0,0.0,0.0,0.0,0.0,0.0,0.0,0.0,0.0,5.8005,5.8635,5.7957,5.4873,5.7582,5.8438,5.6225,6.2635,6.6945,6.8097,7.5363,8.0445,8.2862,8.6098,8.7537,8.7245,8.7083,8.6982,8.6982,8.6982,8.7088,8.7267,8.7757,8.8491,8.951,9.1138,9.1808,9.1808,9.1808,9.1808,9.1808,9.1808,9.1808,9.1808,0.0,0.0,0.0,0.0,0.0,0.0,9.598,10.0404,10.3792,10.4217,10.4292,10.4715,10.54,10.4482,10.3712,10.3717,10.2094,10.0786,9.9988,9.9178,9.8252,9.7326,9.5597,9.2878,8.9046,8.3972,7.7663,0.0,0.0,6.1894,0.0,5.8039,5.8767,6.034,6.4347,6.8234,0.0,7.7345,8.1974,8.5939,8.7619,8.9193,9.0436,8.9845,9.0028,9.051,8.9689,8.9391,8.9281,8.846,8.7662,8.6982,8.69,8.6941,8.6818,8.5944,8.5776,8.5735,8.494,8.5235,8.5788,8.5807,8.5697,8.5588,8.557,8.4375,8.33,8.3305,8.1485,7.8406,7.3527,7.3415,7.2483,0.0,0.0,0.0,0.0,0.0,0.0,0.0,0.0,0.0,0.0,5.8317,5.8166,5.5667,5.5852,5.6543,5.7703,6.0552,6.324,6.5556,7.3383,7.8734,8.1188,8.4418,8.6733,8.8097,8.7346,8.6982,8.6982,8.6982,8.7405,8.8039,8.7414,8.7968,8.951,9.1138,9.1808,9.1808,9.1808,9.1808,9.1808,9.1808,9.1808,9.1808,0.0,0.0,0.0,0.0,0.0,0.0,0.0,10.2984,10.4907,10.579,10.5905,10.579,10.5597,10.4984,10.4407,10.3907,10.2789,10.1709,10.0904,9.956,9.8406,9.7555,9.5066,9.2483,8.9987,8.5253,7.98,0.0,0.0,0.0,0.0,6.0346,6.0301,6.1944,6.4103,6.8174,7.3692,7.7488,8.1383,8.5311,8.7867,8.8743,8.8523,8.9143,8.9294,8.9193,8.9326,8.9093,8.8639,8.8327,8.7675,8.6982,8.6982,8.6658,8.6223,8.5891,8.5816,8.5712,8.5417,8.5548,8.5937,8.6394,8.5446,8.4479,8.4956,8.3811,8.2688,8.2688,8.1141,7.9041,7.6627,7.4695,7.3344,7.3041,0.0,0.0,0.0,0.0,0.0,0.0,0.0,0.0,0.0,0.0,0.0,0.0,0.0,0.0,0.0,5.9125,6.1754,6.5186,7.1226,7.6323,8.0228,8.3952,8.6356,8.7476,8.7148,8.6982,8.7019,8.7511,8.8423,8.9606,8.9294,8.9812,9.0881,9.1546,9.1808,9.1808,9.1808,9.1808,9.1808,9.1808,9.1808,9.1808,8.9985,0.0,9.1558,0.0,9.7449,9.9216,10.3905,10.4907,10.5407,10.6285,10.6397,10.6287,10.5908,10.56,10.5407,10.4982,10.3792,10.271,10.2094,10.0481,9.9058,9.7942,9.5313,0.0,9.115,8.694,8.2289,7.7187,7.3399,0.0,0.0,6.3292,6.2939,6.4337,6.6122,7.0036,7.5461,7.8658,8.2186,8.5853,8.8124,8.8523,8.7789,8.8445,8.8491,8.828,8.8854,8.8836,8.8529,8.8266,8.7839,8.7316,8.706,8.6625,8.6101,8.5878,8.5794,8.5738,8.5504,8.5614,8.5953,8.6518,8.5189,8.3894,8.4457,8.3354,8.2145,8.1901,8.0772,7.9564,7.8736,7.6031,7.4409,7.5991,0.0,0.0,0.0,0.0,0.0,0.0,6.081,5.7765,5.5773,5.6035,0.0,0.0,0.0,0.0,0.0,0.0,6.1337,6.5182,7.0192,7.5093,7.9747,8.3542,8.5981,8.6982,8.6982,8.6982,8.7055,8.8093,8.9162,9.0289,9.0734,9.1138,9.1473,9.1693,9.1808,9.1835,9.2044,9.2019,9.1844,9.2053,9.2015,9.1808,9.2984,9.5018,9.7516,10.1789,10.3212,10.4407,10.6092,10.5595,10.5407,10.6285,10.6397,10.6708,10.7598,10.69,10.6708,10.7598,10.529,10.3907,10.3907,10.221,10.0515,0.0,0.0,9.5246,9.2815,8.9676,8.5333,7.9764,0.0,0.0,6.6491,0.0,6.686,6.7809,7.1803,7.4526,7.6387,8.1297,8.5224,8.8169,8.8206,8.8674,8.9216,8.7642,8.7504,8.8206,8.8206,8.8711,8.9253,8.8459,8.8206,8.8059,8.7243,8.6986,8.6824,8.6041,8.5813,8.5644,8.4841,8.5198,8.5784,8.5817,8.5194,8.4601,8.4584,8.3354,8.1982,8.1192,8.0361,7.9564,7.8736,7.7864,7.6488,7.4115,0.0,0.0,0.0,0.0,0.0,0.0,6.3281,6.0843,5.6066,5.7024,0.0,0.0,0.0,0.0,0.0,0.0,0.0,6.5214,7.0763,0.0,7.9747,8.2999,8.5403,8.6982,8.6982,8.6982,8.7055,8.8666,8.94,8.951,9.1101,9.1326,9.0693,9.1473,9.1808,9.1866,9.2678,9.2519,9.1889,9.2695,9.2497,9.1808,9.6983,9.8101,9.9483,10.1402,10.3405,10.51,10.6208,10.7095,10.7598,10.7287,10.7787,10.7798,10.689,10.6113,10.5894,0.0,10.4503,10.3292,0.0,10.1794,9.9983,9.8868,9.6776,9.4743,9.284,9.0301,8.7023,8.3084,0.0,0.0,0.0,7.0336,7.1012,7.1916,7.4854,7.7998,8.126,8.3907,8.5926,8.7468,8.8597,8.8523,8.7826,8.8409,8.8454,8.8353,8.945,8.9303,8.8638,8.8927,8.8303,8.7353,8.7092,8.6623,8.6122,8.5899,8.5806,8.5724,8.5488,8.6017,8.6608,8.6608,8.6022,8.5269,8.4747,8.3354,8.1982,8.1155,8.0345,7.9561,7.8767,7.7901,7.7034,7.6282,7.6326,0.0,7.1434,0.0,0.0,0.0,5.9564,5.7695,5.5035,5.674,0.0,0.0,0.0,0.0,0.0,0.0,0.0,0.0,7.2102,0.0,8.0577,8.3791,8.5944,8.6982,8.6982,8.7569,8.8666,8.9179,8.9991,9.1069,9.1583,9.1661,9.1436,9.1698,9.1808,9.184,9.2071,9.2039,9.1832,9.2109,9.2369,9.2616,9.9635,10.0404,10.1484,10.3015,10.4787,10.6292,10.6785,10.7787,10.829,10.779,10.7905,10.7696,10.7017,10.5913,0.0,10.6814,10.509,10.4091,10.4308,10.2294,10.0409,9.887,9.6855,9.5005,9.332,9.1021,0.0,8.5956,8.2338,7.8649,7.492,7.4505,7.5055,7.6506,7.8339,8.088,8.3973,8.5572,8.6738,8.7541,8.8528,8.8344,8.7537,8.823,8.8197,8.7908,8.9229,8.9046,8.828,8.8785,8.8271,8.7394,8.7096,8.666,8.6261,8.6261,8.6232,8.6245,8.6245,8.6632,8.6982,8.6982,8.6399,8.5519,8.4412,8.3358,8.2439,8.1611,8.1065,8.0365,7.9243,7.8363,7.7573,7.6949,7.6161,7.4301,7.0496,0.0,6.4343,0.0,0.0,0.0,0.0,5.8518,5.9986,0.0,0.0,0.0,0.0,0.0,6.5582,6.779,7.3514,7.8256,8.1866,8.45,8.6194,8.6982,8.7303,8.8143,8.94,8.94,9.0289,9.1771,9.1473,9.151,9.1808,9.1808,9.1808,9.1844,9.2133,9.2081,9.1829,9.2143,9.2561,9.2995,10.1092,10.2015,10.3402,10.59,10.7095,10.7711,10.779,10.7787,10.7905,10.7787,10.7015,10.681,10.7507,10.6201,10.6004,10.7412,0.0,0.0,10.4984,10.3405,10.1387,9.893,9.7372,9.5824,9.4143,9.1845,8.986,8.8191,8.2858,8.0523,8.1117,7.8808,7.9007,8.1297,8.2164,8.3388,8.4958,8.6433,8.7513,8.8215,8.8215,8.8178,8.8059,8.7427,8.717,8.7275,8.8018,8.828,8.828,8.8206,8.8169,8.7986,8.7243,8.6982,8.6982,8.6982,8.6949,8.6913,8.6986,8.6949,8.6913,8.6986,8.6399,8.5396,8.3917,8.348,8.3182,8.2443,8.2166,8.1562,8.0078,7.909,7.7949,7.6282,7.5263,7.2944,6.8135,6.6162,6.3694,0.0,0.0,0.0,5.8497,6.1834,6.2863,0.0,0.0,0.0,0.0,6.4886,6.729,7.035,7.5151,7.9598,8.3528,8.5108,8.6276,8.7105,8.7886,8.8689,8.9477,8.9441,9.0294,9.1771,9.0955,9.1069,9.1808,9.1808,9.1808,9.1857,9.262,9.2472,9.188,9.2637,9.2979,9.3083,10.2094,0.0,10.3212,10.51,10.6713,10.7905,10.848,10.9216,10.9408,10.8713,10.7903,10.7011,10.5894,10.6597,10.6794,10.5883,10.4399,10.3383,10.3185,10.221,10.0796,9.8965,9.7418,9.5836,9.4209,9.244,9.0426,8.8213,8.564,8.3863,8.2802,8.2219,8.2606,8.3801,8.5237,8.6438,8.7368,8.7759,8.8045,8.8196,8.8196,8.7822,8.739,8.8445,8.8849,8.8849,8.9033,8.911,8.9037,8.8422,8.7798,8.7243,8.706,8.6982,8.6982,8.6982,8.6587,8.6228,8.6839,8.655,8.6224,8.6839,8.6399,8.5687,8.5329,8.4269,8.3345,8.317,8.1662,8.0264,7.9865,7.8604,7.7075,7.545,7.3485,7.0452,6.5559,6.4593,6.287,0.0,6.1767,6.3486,6.1831,6.3135,6.404,0.0,0.0,6.5435,6.6464,6.9837,7.2354,7.3719,7.9079,8.3017,8.5198,8.6231,8.7109,8.7935,8.873,8.9554,9.0302,8.9686,9.0297,9.1771,9.0955,9.1069,9.1808,9.1808,9.1808,9.1831,9.2023,9.197,9.1835,9.2028,9.2842,9.3839,10.3484,10.3712,10.4292,10.5985,10.7716,10.8908,10.8906,10.9601,10.9911,10.8983,10.8213,10.7405,10.6392,10.6797,10.659,10.5314,10.4699,10.3991,10.3192,10.2402,10.1005,9.8979,9.7767,9.6226,9.4246,9.3019,9.1202,8.8745,8.6781,8.5351,8.4502,8.4493,8.4925,8.573,8.7001,8.7989,8.8704,8.8372,8.8181,8.8185,8.7811,8.7396,8.7092,8.7973,8.851,8.8868,8.8849,8.8858,8.8785,8.8353,8.7651,8.6982,8.6982,8.6982,8.6982,8.6982,8.6697,8.6371,8.6444,8.6118,8.5889,8.6343,8.6108,8.5795,8.5788,8.5133,8.4294,8.3545,8.2356,8.1126,7.9989,7.8751,7.6868,7.3777,7.1834,6.8772,6.3164,6.3023,6.2555,5.996,6.3649,6.6182,6.5621,6.7356,6.7914,6.6505,6.8394,0.0,6.8828,7.404,7.6733,7.6005,8.0821,8.4185,8.578,8.6941,8.7967,8.8773,8.9563,9.0163,9.0604,9.0165,9.0431,9.1242,9.0784,9.0862,9.1289,9.1661,9.1808,9.1808,9.1808,9.1808,9.1808,9.1808,9.2793,9.4106,10.4794,10.5218,10.5792,10.7403,10.9101,10.9988,10.9213,10.9716,10.9908,10.9213,10.829,10.7711,10.7711,10.69,10.6095,10.541,10.6018,10.5592,10.3792,10.2904,10.1393,9.903,9.8079,9.6535,9.4276,9.3349,9.1794,8.9583,8.7545,8.6475,8.6347,8.6323,8.6729,8.7409,8.8197,8.8932,8.9532,8.8863,8.8497,8.8309,8.752,8.7105,8.6982,8.6982,8.7487,8.8208,8.8216,8.8216,8.8212,8.8353,8.7839,8.7206,8.7312,8.728,8.717,8.717,8.7096,8.6839,8.6155,8.5971,8.5991,8.597,8.5981,8.5981,8.5981,8.5776,8.5215,8.3847,8.3304,8.2361,8.0194,7.9024,7.6909,7.2397,7.0476,6.7511,6.1591,0.0,6.2872,6.2086,6.6001,6.8993,6.9577,7.1998,7.2216,6.9035,7.2889,7.4161,7.1352,7.7317,8.0013,7.8268,8.1806,8.4526,8.6149,8.7751,8.8914,8.9601,9.0392,9.0776,9.0764,9.0676,9.0684,9.0775,9.0525,9.0572,9.0808,9.14,9.1698,9.1808,9.1808,9.1808,9.1808,9.1808,9.2793,9.4088,10.491,10.5713,10.6515,10.7518,10.9101,11.0183,10.9988,11.0103,11.0183,10.9988,10.8716,10.7711,10.7711,10.69,10.6282,10.6208,10.6285,10.54,10.2981,10.2015,10.0711,9.9056,9.7566,9.5992,9.431,9.2762,9.1473,9.04,9.0037,8.951,8.8827,8.8843,8.8904,8.9048,8.9884,9.0301,9.0397,9.0264,8.983,8.9139,8.835,8.7606,8.6982,8.6982,8.7507,8.8211,8.82,8.8194,8.8299,8.8986,8.8682,8.8128,8.8817,8.856,8.8018,8.8018,8.7537,8.6982,8.6839,8.6803,8.6798,8.6818,8.6813,8.6813,8.6813,8.5771,8.4711,8.4485,8.2804,8.1032,7.9987,7.8529,7.6577,7.378,6.9804,6.5953,6.2866,0.0,6.4597,6.3809,6.966,7.3559,7.2999,7.2796,7.2973,7.3718,7.2687,7.3245,7.6028,7.8604,8.0745,8.2402,8.4393,8.6194,8.7811,8.9419,9.0291,9.0434,9.1226,9.1615,9.1601,9.091,9.096,9.1555,9.0182,9.0372,9.1588,9.1028,9.1175,9.1808,9.1808,9.1808,9.1808,9.1808,9.2793,9.4016,10.629,10.7213,10.8018,10.8908,11.0098,11.0906,11.0906,11.0906,11.0714,11.0298,10.9485,10.8713,10.7818,10.7282,10.69,10.6397,10.6018,10.4982,10.3405,10.2904,10.1816,9.9731,9.8537,9.6781,9.4351,9.2244,9.0955,9.0583,9.0175,8.9767,8.94,8.9839,9.0059,9.0069,9.0877,9.1267,9.1226,9.0768,9.0131,8.9331,8.8514,8.7729,8.7064,8.7479,8.8144,8.8916,8.9355,8.95,8.9559,8.9935,8.9507,8.8854,8.8758,8.8497,8.8184,8.8181,8.7323,8.6338,8.6347,8.6351,8.636,8.6357,8.6694,8.6895,8.644,8.6108,8.5508,8.4211,8.3087,8.1791,8.0115,7.8423,7.6362,7.3519,6.9358,6.609,6.4939,6.5102,6.6137,6.8347,7.2703,7.5744,7.6282,7.5991,7.57,7.5571,7.5349,7.6042,7.7913,8.0391,8.2439,8.3999,8.6026,8.7871,8.9477,9.0241,9.0809,9.1267,9.1602,9.1808,9.1808,9.1432,9.1226,9.1152,9.0847,9.0863,9.1169,9.1206,9.1473,9.1808,9.1808,9.1808,9.1808,9.1808,9.2793,9.4002,10.7518,10.8288,10.9216,10.9985,11.0903,11.1513,11.1513,11.1513,11.1288,11.0601,11.0101,10.9406,10.8085,10.759,10.7092,10.6515,10.5597,10.4797,10.3987,10.3715,10.2589,10.0294,9.8881,9.6862,9.4084,9.1946,9.0881,9.0881,9.0438,9.0253,9.0253,9.0883,9.1159,9.1176,9.1627,9.1808,9.1767,9.0937,9.0145,8.9349,8.8727,8.8017,8.7355,8.8185,8.8873,8.9498,9.0321,9.0493,9.0374,9.0738,9.0356,8.961,8.9162,8.8905,8.8716,8.8533,8.734,8.6086,8.6066,8.607,8.6083,8.6093,8.6524,8.6854,8.6231,8.6272,8.5912,8.4067,8.3366,8.2484,8.0443,7.8707,7.6678,7.3791,7.0112,6.7562,6.7355,6.7272,6.8612,7.2327,7.524,7.7466,7.8755,7.8885,7.8359,7.7071,7.8322,7.9234,7.9429,8.2141,8.4298,8.5661,8.7511,8.9175,9.0603,9.0809,9.1185,9.1808,9.1808,9.1808,9.1808,9.1808,9.1473,9.0896,9.1313,9.1283,9.0926,9.1324,9.1638,9.1808,9.2014,9.208,9.2063,9.2091,9.2958,9.3977,10.7518,10.8288,10.9216,10.9985,11.0903,11.1513,11.1513,11.1513,11.1516,11.1401,11.0019,10.8903,10.879,10.74,10.6515,10.6397,10.5597,10.4797,10.3987,10.3097,10.1891,10.0294,9.7289,9.4889,9.3217,9.2207,9.1698,9.1698,9.2384,9.2713,9.275,9.2787,9.2824,9.2792,9.2096,9.1808,9.1767,9.0937,9.0145,8.939,8.9348,8.8847,8.819,8.9016,8.936,8.9523,9.0314,9.0127,8.9729,9.1203,9.1165,9.0617,9.1312,9.1009,9.0282,8.9541,8.8161,8.6913,8.6913,8.6913,8.6917,8.6917,8.6954,8.6982,8.6941,8.5796,8.4739,8.4565,8.3322,8.2023,8.1069,7.958,7.7924,7.6113,7.3098,7.0674,6.9954,7.171,7.3226,7.3552,7.7103,7.9576,7.9698,7.9717,7.9649,7.9524,8.0312,8.1142,8.1884,8.3569,8.5892,8.8934,8.9227,8.9715,9.0598,9.135,9.1725,9.1808,9.1808,9.1808,9.1808,9.1808,9.1767,9.1684,9.0978,9.1079,9.1661,9.0976,9.1141,9.1854,9.2638,9.2912,9.2926,9.292,9.3412,9.39,10.829,10.9098,10.9985,11.0906,11.1285,11.1513,11.1513,11.1513,11.1513,11.1513,11.0483,10.9488,10.8996,10.7908,10.6787,10.5715,10.5295,10.4484,10.3212,10.2789,10.1702,9.9565,9.734,9.5409,9.3896,9.2505,9.2027,9.2528,9.2834,9.3222,9.3666,9.3202,9.2995,9.2955,9.2163,9.1808,9.1767,9.1473,9.0876,9.0128,9.0157,8.9654,8.9013,8.984,9.0158,9.0264,9.1061,9.1143,9.0978,9.1597,9.161,9.1321,9.1125,9.0859,9.0432,8.9647,8.931,8.9107,8.8618,8.777,8.6982,8.6982,8.6982,8.6859,8.6358,8.6155,8.5807,8.479,8.4522,8.402,8.2733,8.157,8.0445,7.9322,7.5553,7.3387,7.5146,7.4416,7.4643,7.7183,7.9288,8.0528,8.0528,8.1004,8.1096,8.0595,8.176,8.2823,8.3638,8.5698,8.7612,8.9351,8.9893,9.0521,9.135,9.1643,9.1808,9.1808,9.1808,9.1808,9.1808,9.1808,9.1808,9.1767,9.1478,9.1519,9.1776,9.1473,9.15,9.189,9.2684,9.3007,9.3062,9.349,9.3878,9.396,10.8406,10.8985,10.9793,11.0903,11.1096,11.1211,11.1516,11.1513,11.1513,11.1513,11.0483,10.9606,10.8996,10.7718,10.6408,10.5218,10.4602,10.3789,10.2712,10.2097,10.1108,9.9459,9.7598,9.5986,9.466,9.2775,9.2203,9.2995,9.3222,9.3717,9.4431,9.3932,9.3552,9.3314,9.2519,9.2055,9.1767,9.1519,9.11,9.0607,9.0607,9.0274,8.9853,9.0685,9.0978,9.1056,9.1602,9.1808,9.1767,9.1515,9.1597,9.1643,9.085,9.0603,9.0534,9.0239,9.0202,9.0163,8.9864,8.8614,8.7395,8.7366,8.7396,8.7187,8.6358,8.6399,8.6317,8.5204,8.5221,8.5098,8.3977,8.3107,8.2324,8.1529,7.8577,7.7079,7.9063,7.7834,7.7782,8.0607,8.1648,8.2145,8.2145,8.2647,8.2717,8.216,8.3397,8.4637,8.5666,8.7524,8.8952,8.9743,9.0562,9.1226,9.1808,9.1808,9.1808,9.1808,9.1808,9.1808,9.1808,9.1808,9.1808,9.1808,9.1808,9.1808,9.1808,9.1808,9.1936,9.226,9.3023,9.3502,9.3752,9.4247,9.4306,9.4002,10.7518,10.7711,10.8213,10.9911,11.0219,11.0486,11.1401,11.1513,11.1513,11.1513,11.0019,10.8906,10.8906,10.66,10.5102,10.5102,10.3599,10.2594,10.2594,10.0983,10.0092,10.0186,9.7876,9.6218,9.5425,9.3067,9.2225,9.3011,9.375,9.4479,9.5197,9.5192,9.4811,9.4075,9.3329,9.2541,9.1767,9.0937,9.0603,9.0603,9.0603,9.0603,9.0685,9.1515,9.1808,9.1808,9.1808,9.1808,9.1684,9.0855,9.1143,9.1647,9.0855,9.0603,9.0768,9.1556,9.0644,8.9601,9.0392,8.9436,8.8243,8.8204,8.8185,8.798,8.7191,8.6399,8.5817,8.5817,8.5153,8.4608,8.4649,8.3982,8.3184,8.2355,8.2227,8.1953,8.1154,8.2399,8.3381,8.3399,8.4094,8.4596,8.4596,8.4596,8.4624,8.4602,8.5358,8.6522,8.8103,8.8971,8.9779,9.0575,9.1391,9.1808,9.1808,9.1808,9.1808,9.1808,9.1808,9.1808,9.1808,9.1808,9.1808,9.1808,9.1808,9.1808,9.1808,9.1808,9.228,9.3067,9.3794,9.4538,9.5212,9.5227,9.4755,9.4002,10.7518,10.7711,10.7982,10.9098,10.9793,11.0296,11.0483,11.1096,11.1285,11.0716,10.9598,10.8713,10.8095,10.6295,10.491,10.4292,10.3212,10.2284,10.1705,10.1207,10.0718,10.0218,9.7788,9.635,9.6189,9.4362,9.3766,9.4534,9.4774,9.5267,9.5971,9.5424,9.4811,9.4037,9.2694,9.198,9.1734,9.0922,9.0946,9.1437,9.1437,9.1437,9.1473,9.1725,9.1808,9.1808,9.1808,9.1808,9.1684,9.0855,9.0756,9.0822,8.9998,8.9758,8.9935,9.0727,9.0603,9.0434,9.1226,9.1102,9.0461,8.9302,8.8181,8.7438,8.777,8.7228,8.6649,8.6649,8.644,8.6444,8.7023,8.6481,8.5858,8.5608,8.4634,8.3808,8.3563,8.3442,8.3615,8.4169,8.4453,8.4601,8.4613,8.51,8.5458,8.5452,8.619,8.7105,8.8144,8.895,8.9774,9.0566,9.1391,9.1808,9.1808,9.1808,9.1808,9.1808,9.1808,9.1808,9.1808,9.1808,9.1808,9.1808,9.1808,9.1808,9.1808,9.1808,9.2276,9.308,9.3822,9.4538,9.5268,9.5779,9.5198,9.4147,10.7095,10.721,10.7403,10.829,10.8908,10.9293,10.9601,11.0098,11.0288,10.9793,10.8985,10.8211,10.779,10.591,10.4407,10.3907,10.2789,10.1899,10.1281,10.0707,10.0212,10.0106,9.7685,9.6408,9.6467,9.4894,9.4457,9.5189,9.484,9.5071,9.5783,9.4967,9.4064,9.307,9.2087,9.1528,9.1275,9.0825,9.1069,9.1808,9.1808,9.1808,9.1808,9.1808,9.1602,9.1313,9.1313,9.1102,9.0727,8.9935,8.9633,8.9637,8.9432,8.9391,8.9485,8.9964,9.0355,9.0727,9.1185,9.1102,9.0685,9.0058,8.9128,8.8318,8.7818,8.7852,8.7857,8.7524,8.7729,8.8103,8.8564,8.826,8.7957,8.7954,8.6859,8.6026,8.6026,8.5344,8.4993,8.5494,8.5557,8.5549,8.5543,8.5985,8.6272,8.6272,8.6731,8.7606,8.9016,8.9292,9.0058,9.1515,9.1725,9.1808,9.1808,9.1808,9.1808,9.1808,9.1808,9.1808,9.1808,9.1808,9.1808,9.1808,9.1808,9.1808,9.1808,9.1808,9.2449,9.3467,9.3943,9.4737,9.569,9.6125,9.5549,9.4585,10.6397,10.6397,10.6708,10.7403,10.7595,10.7903,10.8713,10.8908,10.879,10.8713,10.8018,10.7518,10.7405,10.5213,10.3794,10.3794,10.2287,10.1284,10.1207,9.975,9.9216,9.9834,9.7637,9.6415,9.6401,9.5009,9.4649,9.531,9.4423,9.4353,9.4989,9.4059,9.288,9.1581,9.1445,9.1051,9.0494,9.0412,9.0904,9.1684,9.1684,9.1684,9.1684,9.1684,9.1185,9.0484,9.0479,9.0031,8.9281,8.8486,8.8162,8.8226,8.8934,8.9176,8.9184,8.9269,8.9828,9.0401,9.047,8.9994,8.9651,9.0319,9.0612,9.0084,8.7759,8.8365,8.9172,8.8471,8.8882,8.9421,8.9499,8.9446,8.9435,8.9483,8.8758,8.8187,8.8185,8.752,8.7023,8.7105,8.7027,8.7023,8.7105,8.7105,8.7105,8.7105,8.7187,8.8226,9.0506,8.9915,9.0595,9.2941,9.2225,9.1808,9.1808,9.1808,9.1808,9.1808,9.1808,9.1808,9.1808,9.1808,9.1808,9.1808,9.1808,9.1808,9.1808,9.189,9.2773,9.4096,9.4186,9.5054,9.6285,9.6285,9.5841,9.5189,10.6397,10.6397,10.6515,10.659,10.7208,10.779,10.7903,10.8482,10.8406,10.7092,10.6785,10.621,10.4907,10.3597,10.2904,10.2904,10.1899,10.1017,10.0409,9.9986,9.9293,9.8098,9.7519,9.6967,9.6354,9.6007,9.589,9.6045,9.5205,9.4842,9.498,9.3586,9.2457,9.1561,9.0354,8.9765,8.9629,8.9007,8.9563,9.0855,9.0855,9.0855,9.0855,9.0855,9.0351,8.9646,8.9644,8.9548,8.9297,8.847,8.7783,8.7273,8.7479,8.7502,8.7649,8.8296,8.8581,8.8851,8.9501,8.9975,9.0222,8.9762,9.0623,9.1065,8.9293,8.9159,8.934,8.9183,8.928,8.9577,9.0235,8.9829,8.9592,9.0226,8.9156,8.8191,8.8183,8.752,8.7232,8.7857,8.7396,8.7232,8.7893,8.7939,8.7939,8.7939,8.8518,8.9637,9.1335,9.0746,9.1177,9.2944,9.2225,9.1808,9.1808,9.1808,9.1808,9.1808,9.1808,9.1808,9.1808,9.1808,9.1808,9.1808,9.1808,9.1808,9.1849,9.2473,9.3273,9.4149,9.4738,9.5491,9.6285,9.6285,9.5841,9.5189,10.6397,10.6397,10.6397,10.6397,10.6785,10.7095,10.7095,10.7098,10.6792,10.5905,10.579,10.529,10.3984,10.3484,10.2904,10.2094,10.1592,10.0981,10.0183,9.9719,9.8908,9.7555,9.7132,9.6747,9.6324,9.6285,9.6285,9.6285,9.4676,9.3905,9.3854,9.1902,9.0596,8.9913,8.9097,8.8747,8.8805,8.839,8.8912,9.0045,9.0017,9.0022,9.004,9.0032,8.9528,8.8846,8.8819,8.8564,8.8185,8.777,8.7355,8.6982,8.6982,8.6982,8.7068,8.7483,8.7904,8.839,8.9197,8.9692,9.002,8.998,9.0597,9.091,8.9692,8.9983,9.0448,9.0063,9.0269,9.0685,9.1102,9.0814,9.0685,9.1102,9.0145,8.9334,8.9334,8.8642,8.8309,8.8724,8.839,8.8173,8.8209,8.8559,8.8605,8.8238,8.8933,9.0222,9.2127,9.1176,9.1483,9.3467,9.239,9.1808,9.1808,9.1808,9.1808,9.1808,9.1808,9.1808,9.1808,9.1808,9.1808,9.1808,9.1808,9.1808,9.1849,9.2679,9.3415,9.4171,9.4925,9.5649,9.6255,9.5895,9.5533,9.5189,10.6397,10.6397,10.6397,10.6397,10.6397,10.6282,10.6208,10.56,10.4987,10.4715,10.4718,10.441,10.3482,10.3484,10.2904,10.1397,10.1281,10.0902,9.995,9.9216,9.8368,9.7326,9.667,9.6285,9.6285,9.6285,9.6285,9.6285,9.3862,9.2702,9.265,9.0092,8.8649,8.8095,8.7954,8.7944,8.798,8.798,8.8473,8.9196,8.9186,8.9207,8.9202,8.9178,8.8687,8.798,8.798,8.7565,8.7023,8.715,8.7191,8.7187,8.7027,8.7105,8.7187,8.7027,8.7463,8.8163,8.8968,8.9299,8.9606,9.0392,9.0598,9.0465,8.9939,9.085,9.1602,9.0937,9.135,9.1808,9.1808,9.1808,9.1808,9.1808,9.1102,9.0597,9.0605,8.9908,8.9451,8.9579,8.9607,8.9284,8.8466,8.9142,8.9344,8.8673,8.9478,9.0896,9.2927,9.1859,9.2086,9.4046,9.2725,9.1932,9.1808,9.1808,9.1808,9.1808,9.1808,9.1808,9.1808,9.1808,9.1808,9.1808,9.1808,9.1808,9.1876,9.279,9.3562,9.4177,9.5048,9.5767,9.6225,9.5487,9.5295,9.5366,10.6397,10.6397,10.6397,10.6397,10.6397,10.6092,10.5407,10.5218,10.4602,10.3097,10.2904,10.2594,10.1705,10.1709,10.1592,10.1281,10.1281,10.0591,9.906,9.887,9.8098,9.6516,9.6362,9.6285,9.6285,9.6285,9.6285,9.6285,9.3862,9.2702,9.2642,8.9632,8.8205,8.8069,8.7444,8.7143,8.715,8.715,8.7643,8.835,8.8371,8.8354,8.8358,8.8369,8.7857,8.715,8.715,8.7105,8.7105,8.7811,8.8021,8.7935,8.7228,8.7479,8.7898,8.7191,8.7092,8.7353,8.8152,8.8881,8.9588,9.0394,9.0587,9.0757,9.134,9.1643,9.1767,9.1643,9.1725,9.1808,9.1808,9.1808,9.1808,9.1808,9.1102,9.0617,9.0598,8.9898,8.9646,9.0355,9.0429,9.0122,8.9308,8.9972,9.0382,9.0264,9.1684,9.2932,9.3883,9.3751,9.3773,9.4092,9.3262,9.2514,9.1808,9.1808,9.1808,9.1808,9.1808,9.1808,9.1808,9.1808,9.1808,9.1808,9.1808,9.1808,9.1903,9.3354,9.4007,9.4231,9.5618,9.6204,9.6225,9.5487,9.559,9.6045,10.6397,10.6397,10.6208,10.579,10.6095,10.6018,10.46,10.4407,10.3984,10.2789,10.2594,10.2287,10.1399,10.1281,10.1281,10.1281,10.1281,10.0591,9.8906,9.8793,9.806,9.6362,9.6285,9.6285,9.6285,9.6285,9.611,9.5692,9.3256,9.1657,9.0757,8.8517,8.7505,8.7489,8.7166,8.6982,8.6982,8.6982,8.7191,8.7524,8.7524,8.7524,8.7524,8.7524,8.7314,8.6982,8.6982,8.729,8.7669,8.7569,8.7524,8.7481,8.7121,8.725,8.7479,8.7105,8.6982,8.728,8.8545,8.9143,8.9703,9.0973,9.128,9.1376,9.1714,9.1803,9.1808,9.1808,9.1808,9.1808,9.1808,9.1808,9.1808,9.1808,9.1515,9.1267,9.1267,9.0974,9.0855,9.1226,9.1267,9.0937,9.0145,9.0812,9.109,9.0617,9.2097,9.3148,9.3466,9.3867,9.3911,9.351,9.3157,9.2601,9.1808,9.1808,9.1808,9.1808,9.1808,9.1808,9.1808,9.1808,9.1808,9.1808,9.1808,9.1808,9.1921,9.3466,9.4086,9.4261,9.573,9.6035,9.566,9.5326,9.5396,9.5657]},{"header":{"parameterUnit":"m.s-1","parameterCategory":1,"la1":30.6,"la2":28.766,"lo1":-90.7593,"lo2":-88.6598,"dy":0.0162,"dx":0.0183,"nx":116,"ny":114,"refTime":"2023-10-07T06:00:00:Z","depth":0,"parameterNumber":3,"parameterNumberName":"V-component_of_WINDS"},"data":[0.0,0.0,0.0,0.0,0.0,0.0,0.0,0.0,0.0,0.0,0.0,0.0,0.0,0.0,0.0,0.0,0.0,0.0,0.0,0.0,0.0,0.0,0.0,0.0,0.0,0.0,0.0,0.0,0.0,0.0,0.0,0.0,0.0,0.0,0.0,0.0,0.0,0.0,0.0,0.0,0.0,0.0,0.0,0.0,0.0,0.0,0.0,0.0,0.0,0.0,0.0,0.0,0.0,0.0,0.0,0.0,0.0,0.0,0.0,0.0,0.0,0.0,0.0,0.0,0.0,0.0,0.0,0.0,0.0,0.0,0.0,0.0,0.0,0.0,0.0,0.0,0.0,0.0,0.0,0.0,0.0,0.0,0.0,0.0,0.0,0.0,0.0,0.0,0.0,0.0,0.0,0.0,0.0,0.0,0.0,0.0,0.0,0.0,0.0,0.0,0.0,0.0,0.0,0.0,0.0,0.0,0.0,0.0,0.0,0.0,0.0,0.0,0.0,0.0,0.0,0.0,0.0,0.0,0.0,0.0,0.0,0.0,0.0,0.0,0.0,0.0,0.0,0.0,0.0,0.0,0.0,0.0,0.0,0.0,0.0,0.0,0.0,0.0,0.0,0.0,0.0,0.0,0.0,0.0,0.0,0.0,0.0,0.0,0.0,0.0,0.0,0.0,0.0,0.0,0.0,0.0,0.0,0.0,0.0,0.0,0.0,0.0,0.0,0.0,0.0,0.0,0.0,0.0,0.0,0.0,0.0,0.0,0.0,0.0,0.0,0.0,0.0,0.0,0.0,0.0,0.0,0.0,0.0,0.0,0.0,0.0,0.0,0.0,0.0,0.0,0.0,0.0,0.0,0.0,0.0,0.0,0.0,0.0,0.0,0.0,0.0,0.0,0.0,0.0,0.0,0.0,0.0,0.0,0.0,0.0,0.0,0.0,0.0,0.0,0.0,0.0,0.0,0.0,0.0,0.0,0.0,0.0,0.0,0.0,0.0,0.0,0.0,0.0,0.0,0.0,0.0,0.0,0.0,0.0,0.0,0.0,0.0,0.0,0.0,0.0,0.0,0.0,0.0,0.0,0.0,0.0,0.0,0.0,0.0,0.0,0.0,0.0,0.0,0.0,0.0,0.0,0.0,0.0,0.0,0.0,0.0,0.0,0.0,0.0,0.0,0.0,0.0,0.0,0.0,0.0,0.0,0.0,0.0,0.0,0.0,0.0,0.0,0.0,0.0,0.0,0.0,0.0,0.0,0.0,0.0,0.0,0.0,0.0,0.0,0.0,0.0,0.0,0.0,0.0,0.0,0.0,0.0,0.0,0.0,0.0,0.0,0.0,0.0,0.0,0.0,0.0,0.0,0.0,0.0,0.0,0.0,0.0,0.0,0.0,0.0,0.0,0.0,0.0,0.0,0.0,0.0,0.0,0.0,0.0,0.0,0.0,0.0,0.0,0.0,0.0,0.0,0.0,0.0,0.0,0.0,0.0,0.0,0.0,0.0,0.0,0.0,0.0,0.0,0.0,0.0,0.0,0.0,0.0,0.0,0.0,0.0,0.0,0.0,0.0,0.0,0.0,0.0,0.0,0.0,0.0,0.0,0.0,0.0,0.0,0.0,0.0,0.0,0.0,0.0,0.0,0.0,0.0,0.0,0.0,0.0,0.0,0.0,0.0,0.0,0.0,0.0,0.0,0.0,0.0,0.0,0.0,0.0,0.0,0.0,0.0,0.0,0.0,0.0,0.0,0.0,0.0,0.0,0.0,0.0,0.0,0.0,0.0,0.0,0.0,0.0,0.0,0.0,0.0,0.0,0.0,0.0,0.0,0.0,0.0,0.0,0.0,0.0,0.0,0.0,0.0,0.0,0.0,0.0,0.0,0.0,0.0,0.0,0.0,0.0,0.0,0.0,0.0,0.0,0.0,0.0,0.0,0.0,0.0,0.0,0.0,0.0,0.0,0.0,0.0,0.0,0.0,0.0,0.0,0.0,0.0,0.0,0.0,0.0,0.0,0.0,0.0,0.0,0.0,0.0,0.0,0.0,0.0,0.0,0.0,0.0,0.0,0.0,0.0,0.0,0.0,0.0,0.0,0.0,0.0,0.0,0.0,0.0,0.0,0.0,0.0,0.0,0.0,0.0,0.0,0.0,0.0,0.0,0.0,0.0,0.0,0.0,0.0,0.0,0.0,0.0,0.0,0.0,0.0,0.0,0.0,0.0,0.0,0.0,0.0,0.0,0.0,0.0,0.0,0.0,0.0,0.0,0.0,0.0,0.0,0.0,0.0,0.0,0.0,0.0,0.0,0.0,0.0,0.0,0.0,0.0,0.0,0.0,0.0,0.0,0.0,0.0,0.0,0.0,0.0,0.0,0.0,0.0,0.0,0.0,0.0,0.0,0.0,0.0,0.0,0.0,0.0,0.0,0.0,0.0,0.0,0.0,0.0,0.0,0.0,0.0,0.0,0.0,0.0,0.0,0.0,0.0,0.0,0.0,0.0,0.0,0.0,0.0,0.0,0.0,0.0,0.0,0.0,0.0,0.0,0.0,0.0,0.0,0.0,0.0,0.0,0.0,0.0,0.0,0.0,0.0,0.0,0.0,0.0,0.0,0.0,0.0,0.0,0.0,0.0,0.0,0.0,0.0,0.0,0.0,0.0,0.0,0.0,0.0,0.0,0.0,0.0,0.0,0.0,0.0,0.0,0.0,0.0,0.0,0.0,0.0,0.0,0.0,0.0,0.0,0.0,0.0,0.0,0.0,0.0,0.0,0.0,0.0,0.0,0.0,0.0,0.0,0.0,0.0,0.0,0.0,0.0,0.0,0.0,0.0,0.0,0.0,0.0,0.0,0.0,0.0,0.0,0.0,0.0,0.0,0.0,0.0,0.0,0.0,0.0,0.0,0.0,0.0,0.0,0.0,0.0,0.0,0.0,0.0,0.0,0.0,0.0,0.0,0.0,0.0,0.0,0.0,0.0,0.0,0.0,0.0,0.0,0.0,0.0,0.0,0.0,0.0,0.0,0.0,0.0,0.0,0.0,0.0,0.0,0.0,0.0,0.0,0.0,0.0,0.0,0.0,0.0,0.0,0.0,0.0,0.0,0.0,0.0,0.0,0.0,0.0,0.0,0.0,0.0,0.0,0.0,0.0,0.0,0.0,0.0,0.0,0.0,0.0,0.0,0.0,0.0,0.0,0.0,0.0,0.0,0.0,0.0,0.0,0.0,0.0,0.0,0.0,0.0,0.0,0.0,0.0,0.0,0.0,0.0,0.0,0.0,0.0,0.0,0.0,0.0,0.0,0.0,0.0,0.0,0.0,0.0,0.0,0.0,0.0,0.0,0.0,0.0,0.0,0.0,0.0,0.0,0.0,0.0,0.0,0.0,0.0,0.0,0.0,0.0,0.0,0.0,0.0,0.0,0.0,0.0,0.0,0.0,0.0,0.0,0.0,0.0,0.0,0.0,0.0,0.0,0.0,0.0,0.0,0.0,0.0,0.0,0.0,0.0,0.0,0.0,0.0,0.0,0.0,0.0,0.0,0.0,0.0,0.0,0.0,0.0,0.0,0.0,0.0,0.0,0.0,0.0,0.0,0.0,0.0,0.0,0.0,0.0,0.0,0.0,0.0,0.0,0.0,0.0,0.0,0.0,0.0,0.0,0.0,0.0,0.0,0.0,0.0,0.0,0.0,0.0,0.0,0.0,0.0,0.0,0.0,0.0,0.0,0.0,0.0,0.0,0.0,0.0,0.0,0.0,0.0,0.0,0.0,0.0,0.0,0.0,0.0,0.0,0.0,0.0,0.0,0.0,0.0,0.0,0.0,0.0,0.0,0.0,0.0,0.0,0.0,0.0,0.0,0.0,0.0,0.0,0.0,0.0,0.0,0.0,0.0,0.0,0.0,0.0,0.0,0.0,0.0,0.0,0.0,0.0,0.0,0.0,0.0,0.0,0.0,0.0,0.0,0.0,0.0,0.0,0.0,0.0,0.0,0.0,0.0,0.0,0.0,0.0,0.0,0.0,0.0,0.0,0.0,0.0,0.0,0.0,0.0,0.0,0.0,0.0,0.0,0.0,0.0,0.0,0.0,0.0,0.0,0.0,0.0,0.0,0.0,0.0,0.0,0.0,0.0,0.0,0.0,0.0,0.0,0.0,0.0,0.0,0.0,0.0,0.0,0.0,0.0,0.0,0.0,0.0,0.0,0.0,0.0,0.0,0.0,0.0,0.0,0.0,0.0,0.0,0.0,0.0,0.0,0.0,0.0,0.0,0.0,0.0,0.0,0.0,0.0,0.0,0.0,0.0,0.0,0.0,0.0,0.0,0.0,0.0,0.0,0.0,0.0,0.0,0.0,0.0,0.0,0.0,0.0,0.0,0.0,0.0,0.0,0.0,0.0,0.0,0.0,0.0,0.0,0.0,0.0,0.0,0.0,0.0,0.0,0.0,0.0,0.0,0.0,0.0,0.0,0.0,0.0,0.0,0.0,0.0,0.0,0.0,0.0,0.0,0.0,0.0,0.0,0.0,0.0,0.0,0.0,0.0,0.0,0.0,0.0,0.0,0.0,0.0,0.0,0.0,0.0,0.0,0.0,0.0,0.0,0.0,0.0,0.0,0.0,0.0,0.0,0.0,0.0,0.0,0.0,0.0,0.0,0.0,0.0,0.0,0.0,0.0,0.0,0.0,0.0,0.0,0.0,0.0,0.0,0.0,0.0,0.0,0.0,0.0,0.0,0.0,0.0,0.0,0.0,0.0,0.0,0.0,0.0,0.0,0.0,0.0,0.0,0.0,0.0,0.0,0.0,0.0,0.0,0.0,0.0,0.0,0.0,0.0,0.0,0.0,0.0,0.0,0.0,0.0,0.0,0.0,0.0,0.0,0.0,0.0,0.0,0.0,0.0,0.0,0.0,0.0,0.0,0.0,0.0,0.0,0.0,0.0,0.0,0.0,0.0,0.0,0.0,0.0,0.0,0.0,0.0,0.0,0.0,0.0,0.0,0.0,0.0,0.0,0.0,0.0,0.0,0.0,0.0,0.0,0.0,0.0,0.0,0.0,0.0,0.0,0.0,0.0,0.0,0.0,0.0,0.0,0.0,0.0,0.0,0.0,0.0,0.0,0.0,0.0,0.0,0.0,0.0,0.0,0.0,0.0,0.0,0.0,0.0,0.0,0.0,0.0,0.0,0.0,0.0,0.0,0.0,0.0,0.0,0.0,0.0,0.0,0.0,0.0,0.0,0.0,0.0,0.0,0.0,0.0,0.0,0.0,0.0,0.0,0.0,0.0,0.0,0.0,0.0,0.0,0.0,0.0,0.0,0.0,0.0,0.0,0.0,0.0,0.0,0.0,0.0,0.0,0.0,0.0,0.0,0.0,0.0,0.0,0.0,0.0,0.0,0.0,0.0,0.0,0.0,0.0,0.0,0.0,0.0,0.0,0.0,0.0,0.0,0.0,0.0,0.0,0.0,0.0,0.0,0.0,0.0,0.0,0.0,0.0,0.0,0.0,0.0,0.0,0.0,0.0,0.0,0.0,0.0,0.0,0.0,0.0,0.0,0.0,0.0,0.0,0.0,0.0,0.0,0.0,0.0,0.0,0.0,0.0,0.0,0.0,0.0,0.0,0.0,0.0,0.0,0.0,0.0,0.0,0.0,0.0,0.0,0.0,0.0,0.0,0.0,0.0,0.0,0.0,0.0,0.0,0.0,0.0,0.0,0.0,0.0,0.0,0.0,0.0,0.0,0.0,0.0,0.0,0.0,0.0,0.0,0.0,0.0,0.0,0.0,0.0,0.0,0.0,0.0,0.0,0.0,0.0,0.0,0.0,0.0,0.0,0.0,0.0,0.0,0.0,0.0,0.0,0.0,0.0,0.0,0.0,0.0,0.0,0.0,0.0,0.0,0.0,0.0,0.0,0.0,0.0,0.0,0.0,0.0,0.0,0.0,0.0,0.0,0.0,0.0,0.0,0.0,0.0,0.0,0.0,0.0,0.0,0.0,0.0,0.0,0.0,0.0,0.0,0.0,0.0,0.0,0.0,0.0,0.0,0.0,0.0,0.0,0.0,0.0,0.0,0.0,0.0,0.0,0.0,0.0,0.0,0.0,0.0,0.9503,0.0,0.0,0.0,0.0,0.0,0.0,0.0,0.0,0.0,0.0,0.0,0.0,0.0,0.0,0.0,0.0,0.0,0.0,0.0,0.0,0.0,0.0,0.0,0.0,0.0,0.0,0.0,0.0,0.0,0.0,0.0,0.0,0.0,0.0,0.0,0.0,0.0,0.0,0.0,1.0699,1.0552,1.0269,1.0267,1.025,1.0234,0.0,0.0,0.0,0.0,0.0,0.0,0.0,0.0,0.0,0.0,0.0,0.0,0.0,0.0,0.0,0.0,0.0,0.0,0.0,0.0,0.0,0.0,0.0,0.0,0.0,0.0,0.0,0.0,0.0,0.0,0.0,0.0,0.0,0.0,0.0,0.0,0.0,0.0,0.0,0.0,0.0,0.0,0.0,0.0,0.0,0.0,0.0,0.0,0.0,0.0,0.0,0.0,0.0,0.0,0.0,0.0,0.0,0.0,0.0,0.0,0.0,0.0,0.0,0.0,0.0,0.0,0.0,0.0,0.0,0.0,0.0,0.9241,0.0,0.0,0.0,0.0,0.0,0.0,0.0,0.0,0.0,0.0,0.0,0.0,0.0,0.0,0.0,0.0,0.0,0.0,0.0,0.0,0.0,0.0,0.0,0.0,0.0,0.0,0.1145,0.1862,0.0,0.0,0.0,0.0,0.0,0.0,0.0,1.0697,1.0696,1.07,1.0592,1.0343,0.9954,0.9958,1.0167,1.0553,1.0762,0.0,0.0,0.0,0.0,0.0,0.0,0.0,0.0,0.0,0.0,0.0,0.0,0.0,0.0,0.0,0.0,0.0,0.0,0.0,0.0,0.0,0.0,0.0,0.0,0.0,0.0,0.0,0.0,0.0,0.0,0.0,0.0,0.0,0.0,0.0,0.0,0.0,0.0,0.0,0.0,0.0,0.0,0.0,0.0,0.0,0.0,0.0,0.0,0.0,0.0,0.0,0.0,0.0,0.0,0.0,0.0,0.0,0.0,0.0,0.0,0.0,0.0,0.0,2.4943,2.461,2.5238,1.6806,1.2702,1.2153,1.0755,1.0325,1.0586,1.0668,0.0,0.0,0.0,0.0,0.0,0.0,0.0,0.0,0.0,0.0,0.0,0.0,0.0,0.0,0.0,0.0,0.0,0.0,0.0,0.0,0.0,0.0,0.0,0.0,0.5699,0.9292,0.9285,0.0,0.0,0.0,0.0,0.0,1.0698,1.0698,1.0702,1.0698,1.0177,1.0153,1.058,1.0584,1.0335,0.9965,1.1009,1.1193,1.0689,0.0,0.0,0.0,0.0,0.0,0.0,0.0,0.0,0.0,0.0,0.0,0.0,0.0,0.0,0.0,0.0,0.0,0.0,0.0,0.0,0.0,0.0,0.0,0.0,0.0,0.0,0.0,0.0,0.0,0.0,0.0,0.0,0.0,0.0,0.0,0.0,0.0,0.0,0.0,0.0,0.0,0.7636,0.8771,0.0,0.0,0.0,0.0,0.0,0.0,0.0,0.0,0.0,0.0,0.0,0.0,0.0,2.0715,2.275,2.4726,2.6463,2.7962,2.8646,2.9063,2.8872,1.9227,1.4793,1.4745,1.5034,0.0,1.3553,1.1529,0.0,0.0,0.0,0.0,0.0,0.0,0.0,0.0,0.0,0.0,0.0,0.0,0.0,0.0,0.0,0.0,0.0,0.0,0.0,0.0,0.0,0.0,0.0,0.0,0.6868,1.1061,1.0722,1.0697,0.0,0.0,0.0,1.0701,1.0701,1.0701,1.053,1.0193,1.0617,1.1474,1.2708,1.2026,1.1749,1.1861,1.2724,1.203,1.0246,1.0916,0.0,0.0,0.0,0.0,0.0,0.0,0.0,0.0,0.0,0.0,0.0,0.0,0.0,0.0,0.0,0.0,0.0,0.0,0.0,0.0,0.0,0.0,0.0,0.0,0.0,0.0,0.0,0.0,0.0,0.0,0.0,0.0,0.0,0.0,0.0,0.0,0.0,0.0,0.0,1.2339,1.3696,1.5546,1.7455,1.8615,0.0,0.0,0.0,0.0,0.0,0.0,0.0,0.0,0.0,1.9449,2.3771,2.6862,2.856,2.9111,2.9969,3.1129,3.163,3.1865,3.1719,2.7393,2.5433,2.5106,1.917,1.6307,1.5624,1.3212,1.142,1.0234,0.0,0.0,0.0,0.0,1.0699,1.0751,0.0,0.0,0.0,0.0,0.0,0.0,0.0,0.0,0.0,0.0,0.0,0.0,0.325,0.2735,0.2799,0.2953,0.812,1.1382,1.1393,1.0966,1.07,1.07,1.0696,1.0704,1.0703,1.0702,1.0556,1.026,1.1618,1.298,1.4277,1.3376,1.3243,1.3733,1.3974,1.27,1.0422,1.0932,1.0793,1.0272,0.0,0.0,0.0,0.0,0.0,0.0,0.0,0.0,0.0,0.0,0.0,0.0,0.0,0.0,0.0,0.0,0.0,0.0,0.0,0.0,0.0,0.0,0.0,0.0,0.0,0.0,0.0,0.0,0.0,0.0,0.0,0.0,0.0,0.0,0.0,0.0,0.0,1.7013,1.9593,2.2556,2.1087,1.971,0.0,0.0,0.0,0.0,0.0,0.0,1.5102,2.0369,2.484,2.8091,2.9883,3.1368,3.2583,3.2598,3.3169,3.43,3.4306,3.43,3.4293,3.3986,3.3851,3.324,2.2073,1.7237,1.7065,1.4787,1.2711,1.0983,1.1286,1.1302,1.1158,1.1159,1.1355,1.1692,0.0,0.0,0.0,0.0,0.0,0.0,0.0,0.0,0.0,0.0,0.0,0.9896,1.0141,1.0157,1.0391,1.0971,1.0855,1.1455,1.3157,1.1651,1.0697,1.0699,1.07,1.0702,1.0699,1.0694,1.0967,1.1514,1.329,1.4211,1.4303,1.4238,1.4362,1.4597,1.3801,1.2898,1.1889,1.0493,0.9544,0.9089,1.0245,0.0,0.0,0.0,0.0,0.0,0.0,0.0,0.0,0.0,0.0,0.0,0.0,0.0,0.0,0.0,0.0,0.0,0.0,0.0,0.0,0.0,0.0,0.0,0.0,0.0,0.0,0.0,0.0,0.0,0.0,0.0,0.0,0.0,0.0,0.0,0.0,0.0,0.0,2.7292,2.381,0.0,0.0,0.0,0.0,1.8458,2.0982,2.3722,2.7133,2.8682,3.0563,3.2972,3.3159,3.3789,3.5018,3.5022,3.5599,3.6723,3.6731,3.6718,3.6698,3.5604,3.5112,3.4452,2.2875,1.7849,1.7711,1.5865,1.4701,1.402,1.3476,1.2912,1.2406,1.2413,1.3135,1.4128,0.0,0.0,0.0,0.0,0.0,0.0,0.0,0.0,0.9555,0.9766,1.0139,1.0169,0.9604,1.0933,1.2261,1.3247,1.2791,1.2219,1.1701,1.1057,1.0694,1.0701,1.07,1.0875,1.1266,1.1282,1.1959,1.334,1.4378,1.4968,1.5144,1.5356,1.5264,1.4876,1.4517,1.3996,1.3302,1.1929,1.0618,0.9487,0.9526,1.0011,0.0,0.0,0.0,0.0,0.0,0.0,0.0,0.0,0.0,0.0,0.0,0.0,0.0,0.0,0.0,0.0,0.0,0.0,0.0,0.0,0.0,0.0,0.0,0.0,0.0,0.0,0.0,0.0,0.0,0.0,0.0,0.0,0.0,0.0,0.0,0.0,0.0,2.8651,2.4441,0.0,2.1626,1.9578,2.0135,2.472,2.6521,2.8622,3.1408,3.1923,3.289,3.4513,3.5269,3.5851,3.6289,3.7059,3.7658,3.8058,3.8052,3.8054,3.8018,3.6826,3.6284,3.6015,3.1146,2.4801,1.7822,1.678,1.6225,1.5982,1.5375,1.4766,1.424,1.4238,1.4767,1.5457,0.0,0.0,0.0,0.0,0.0,0.0,0.0,0.0,0.9006,0.6782,0.8951,1.047,0.9876,1.1776,1.3509,1.4513,1.4052,1.2934,1.1119,1.0808,1.0788,1.0992,1.1307,1.1424,1.1302,1.2089,1.3304,1.4916,1.5305,1.5699,1.6076,1.6182,1.5851,1.5164,1.5096,1.4815,1.4343,1.3332,1.2064,1.0628,0.9731,0.966,1.0137,0.0,0.0,0.0,0.0,0.0,0.0,0.0,0.0,0.0,0.0,0.0,0.0,0.0,0.0,0.0,0.0,0.0,0.0,0.0,0.0,0.0,0.0,0.0,0.0,0.0,0.0,0.0,0.0,0.0,0.0,0.0,0.0,0.0,0.0,0.0,2.5381,3.0474,2.7635,2.5409,2.5821,2.5868,2.7001,2.9752,3.0654,3.1757,3.332,3.3786,3.4549,3.5748,3.6897,3.7517,3.7508,3.87,3.93,3.9308,3.8897,3.8696,3.8668,3.7874,3.7288,3.6858,3.6099,3.1194,2.3401,1.9077,1.7296,1.7246,1.6637,1.6155,1.5813,1.5813,1.6061,1.6399,0.0,0.0,0.0,0.0,0.0,0.0,0.0,0.9118,0.7284,0.111,0.6344,1.0912,1.1608,1.3277,1.4588,1.5186,1.4681,1.3542,1.1685,1.1039,1.0987,1.1586,1.2509,1.2315,1.0837,1.3138,1.4946,1.6126,1.6134,1.6435,1.699,1.6676,1.6161,1.5528,1.5583,1.5387,1.5003,1.4617,1.3725,1.2445,1.0955,0.9803,0.9087,0.0,0.0,0.0,0.0,0.0,0.0,0.0,0.0,0.0,0.0,0.0,0.0,0.0,0.0,0.0,0.0,0.0,0.0,0.0,0.0,0.0,0.0,0.0,0.0,0.0,0.0,0.0,0.0,0.0,0.0,0.0,0.0,0.0,2.1328,2.5387,2.9623,3.3051,3.3452,3.3012,3.1866,3.1795,3.2275,3.3379,3.3486,3.3512,3.3511,3.4651,3.5833,3.6976,3.8138,3.8756,3.8764,3.9911,4.0498,4.0494,3.9321,3.8753,3.8743,3.8731,3.806,3.6952,3.6928,3.6274,3.4351,2.2714,1.7923,1.7841,1.7261,1.7023,1.7031,1.7006,1.7004,1.6992,0.0,0.0,0.0,0.0,0.0,0.0,0.0,0.2588,0.3757,0.6713,0.8444,1.0459,1.3252,1.4779,1.5675,1.5836,1.53,1.3804,1.1117,1.1198,1.1561,1.2017,1.2837,1.3302,1.3306,1.4821,1.5981,1.6745,1.6747,1.684,1.7002,1.6906,1.663,1.6337,1.895,1.8423,1.5688,1.7359,1.6493,1.3895,1.247,1.1218,1.0343,0.0,0.0,0.0,0.0,0.0,0.0,0.0,0.0,0.0,0.0,0.0,0.0,0.0,0.0,0.0,0.0,0.0,0.0,0.0,0.0,0.0,0.0,0.0,0.0,0.0,0.0,0.0,0.0,0.0,0.0,0.0,0.0,2.6241,2.6257,2.9546,3.2656,3.449,3.4713,3.4235,3.3043,3.3721,3.4365,3.4686,3.5473,3.5939,3.5933,3.7081,3.827,3.9471,3.9825,4.0013,4.0022,4.0317,4.0501,4.0509,4.017,4.0014,3.9986,3.9089,3.8513,3.8153,3.7272,3.6722,3.5498,2.3508,1.8288,1.7875,1.7716,1.7647,1.7605,1.7157,1.7002,1.6996,0.0,0.0,0.0,0.0,0.0,0.0,0.0,0.0,0.2356,0.8943,0.9495,1.0662,1.4279,1.5753,1.6376,1.6114,1.4615,1.2954,1.1191,1.1641,1.208,1.2322,1.3258,1.4017,1.4539,1.5427,1.6253,1.6996,1.7256,1.7386,1.7377,1.7382,1.9868,2.4293,2.36,2.2336,2.0625,1.8925,1.7852,1.7054,1.4454,1.2778,1.1817,1.1767,1.1308,1.0666,1.0409,1.0159,1.0014,1.0418,0.0,0.0,0.0,0.0,0.0,0.0,0.0,0.0,0.0,0.0,0.0,0.0,0.0,0.0,0.0,0.0,0.0,0.0,0.0,0.0,0.0,0.0,0.0,0.0,2.442,3.0718,3.1711,3.3599,3.5132,3.5825,3.5907,3.5631,3.4921,3.5509,3.6126,3.6637,3.7288,3.7651,3.7638,3.8796,3.9787,4.0474,4.0511,4.0499,4.0495,4.0495,4.0495,4.0495,4.0495,4.0496,4.0478,3.9775,3.9437,3.9383,3.8183,3.7645,3.7071,2.9498,2.318,0.0,0.0,0.0,0.0,0.0,1.7002,1.7006,0.0,0.0,0.0,0.0,0.0,0.0,0.0,0.0573,0.3099,0.8937,0.9818,1.1245,1.4812,1.6223,1.6637,1.5953,1.3333,1.1711,1.1733,1.2202,1.2545,1.2701,1.381,1.4643,1.5089,1.5532,1.6236,1.7197,1.7662,1.8574,1.9847,1.9846,2.5335,3.4932,2.8979,2.703,2.7814,2.1191,1.9203,2.0206,1.7022,1.4844,1.3329,1.1724,1.1105,1.1031,1.0418,0.9817,0.9533,1.1006,0.0,0.0,0.0,0.0,0.0,0.0,0.0,0.0,0.0,0.0,0.0,0.0,0.0,0.0,0.0,0.0,0.0,0.0,0.0,0.0,0.0,0.0,0.0,0.0,3.0908,3.4619,3.6966,3.7314,3.725,3.7112,3.722,3.7299,3.7307,3.7314,3.7752,3.8831,3.891,3.8895,3.8905,0.0,0.0,0.0,0.0,4.0493,4.0493,4.0493,4.0493,4.0493,4.0512,4.0499,4.0496,4.0496,4.0493,4.0432,3.9361,3.8827,3.8503,3.5979,2.8574,1.8738,1.814,1.7907,1.7834,1.7298,1.7063,1.7003,0.0,0.0,0.0,0.0,0.0,0.0,0.0,0.4086,0.7634,0.8904,0.9923,1.1718,1.4861,1.5841,1.5839,1.4737,1.3222,1.2395,1.2559,1.2419,1.2816,1.3905,1.4753,1.5553,1.6329,1.6597,1.7304,1.844,1.808,2.2685,3.1854,3.1848,3.3054,3.5139,3.3834,3.2902,3.2201,3.1069,2.5475,1.7644,2.0844,1.8911,1.4087,1.374,1.3601,1.3519,1.2916,1.2318,1.1708,1.108,1.04,0.9794,0.9798,1.2028,0.0,0.0,0.0,0.0,0.0,0.0,0.0,0.0,0.0,0.0,0.0,0.0,0.0,0.0,0.0,0.0,0.0,0.0,0.0,3.1236,3.44,3.706,3.9462,3.9793,3.9444,3.8475,3.9201,3.9799,3.9794,3.9801,3.9907,4.0128,4.0144,4.015,4.0147,4.0363,4.0496,4.0495,4.0504,4.0511,4.0511,4.0511,4.0511,4.0511,0.0,0.0,4.0505,4.0505,4.05,4.0501,4.0255,3.9602,3.7893,2.7353,2.1358,1.8745,1.8142,1.7896,1.7899,1.7766,1.7419,1.7006,0.0,0.0,0.0,0.0,0.0,0.0,0.0,0.6786,0.9007,0.9307,1.0137,1.1735,1.4447,1.4753,1.4511,1.3903,1.3188,1.2532,1.2029,1.2881,1.3889,1.4993,1.5912,1.6755,1.748,1.9737,2.0135,1.8555,2.5094,3.1279,3.6952,3.6328,3.606,3.6032,3.5457,3.4874,3.4306,3.4514,3.1037,2.5121,2.1786,2.1484,2.2944,2.234,2.1747,2.1219,2.0907,2.0607,2.0166,1.8958,1.7963,1.721,1.7212,1.7778,1.7712,0.0,0.0,0.0,0.0,0.0,0.0,0.0,0.0,0.0,0.0,0.0,0.0,0.0,0.0,1.8723,0.0,0.0,3.1762,3.4678,3.7139,3.9308,4.1103,4.0859,4.0282,3.9664,4.0131,4.0505,4.051,4.0491,4.0499,4.0499,4.05,4.0505,4.0501,4.0489,4.0495,4.0501,4.0497,4.0759,4.135,4.135,4.1056,4.0501,4.0506,4.0495,4.0512,4.0512,4.0505,4.0492,4.0506,4.0159,3.9058,3.2077,2.5267,1.9192,1.8591,1.8346,1.8354,1.835,1.7971,1.745,0.0,0.0,0.0,0.0,0.0,0.0,0.0,0.8515,0.9113,0.9724,1.0221,1.1304,1.3376,1.317,1.2881,1.2881,1.2957,1.2689,1.191,1.3626,1.5098,1.6072,1.7109,1.8226,1.9419,2.3122,2.3482,2.0326,3.2666,3.8689,3.8686,3.7701,3.724,3.7193,3.6037,3.5534,3.5524,3.5298,3.4919,3.3661,2.4291,2.5144,3.1916,3.0943,2.9734,2.8505,2.8273,2.8193,2.8048,2.7072,2.6094,2.5295,2.5301,2.3839,2.1433,1.7864,1.8206,0.0,0.0,0.0,0.0,0.0,0.0,0.0,0.0,0.0,2.6193,2.546,2.5836,2.6976,2.9157,3.2231,3.513,3.7251,3.922,4.0867,4.187,4.1337,4.0778,4.0625,4.0617,4.0625,4.0655,4.0567,4.0497,4.0493,4.0703,4.0733,4.0513,4.0708,4.0839,4.0822,4.0821,4.1272,4.218,4.2195,4.174,4.0825,4.0617,4.0502,4.0489,4.0493,4.0512,4.0512,4.0503,4.05,4.042,3.9445,3.2864,2.3092,2.0127,1.8971,1.8957,1.8838,1.8482,1.8059,0.0,0.0,0.0,0.0,0.0,0.0,0.0,0.0,0.9113,0.9715,0.9864,1.0208,1.1012,1.1041,1.1004,1.0999,1.2281,1.3403,1.4168,1.4908,1.5875,1.7156,1.8124,2.0175,2.3472,2.507,2.6413,2.7544,3.5027,3.8702,3.8699,3.8551,3.8494,3.8462,3.7242,3.6708,3.6638,3.5641,3.5152,3.499,3.3694,3.3187,3.3196,3.3059,3.1641,2.9576,2.8568,2.8199,2.8181,2.8038,2.7905,2.7796,2.7804,2.6879,2.5121,2.1547,0.0,2.0531,1.8801,1.4533,0.0,2.3612,2.3219,2.0676,0.0,0.0,2.6672,2.7602,3.0261,3.2825,3.4164,3.6434,3.8534,3.988,4.032,4.0711,4.1313,4.1748,4.1764,4.1116,4.1029,4.1079,4.1193,4.0788,4.051,4.0505,4.1431,4.1568,4.0544,4.1457,4.2016,4.2012,4.201,4.2063,4.2203,4.2203,4.2148,4.1991,4.098,4.0501,4.0511,4.0499,4.0512,4.0512,4.0503,4.0496,4.0481,4.035,3.8824,3.543,2.4039,1.959,1.9532,1.8995,1.8768,1.8627,0.0,0.0,0.0,0.0,0.0,0.0,0.0,0.0,0.0,0.9195,0.9581,0.9899,1.0148,1.0356,1.0528,1.0689,1.1804,1.3054,1.4345,1.5735,1.7165,1.8664,1.9111,2.0028,2.1549,2.6045,2.6769,2.3464,3.3702,3.9065,3.9748,3.9742,3.9372,3.8684,3.8176,3.7949,3.7873,3.6693,3.5809,3.5191,3.5205,3.4897,3.445,3.4452,3.34,3.1701,2.9841,2.8762,0.0,2.5004,2.5438,2.7277,2.7983,2.7853,2.703,2.4823,2.2723,0.0,2.1382,0.0,0.0,0.0,2.464,2.5546,2.6712,2.8784,3.0827,3.2014,3.5079,3.7461,3.7259,3.8612,3.9914,0.0,4.1068,4.1569,4.1788,4.1735,4.1686,4.1733,4.1428,4.1121,4.0854,4.0629,4.0778,4.1437,4.194,4.1996,4.15,4.1932,4.2518,4.3239,4.3252,4.3252,4.325,4.2549,4.2197,4.2191,4.1715,4.1142,4.0501,4.0495,4.0512,4.0512,4.0499,4.0502,4.0492,4.0493,3.9783,3.742,2.4665,1.9702,1.9632,1.9017,1.8805,1.8711,0.0,0.0,0.0,0.0,0.0,0.0,0.0,0.0,0.0,0.0,0.9361,0.9755,0.9915,1.0223,1.0493,1.0676,1.1625,1.28,1.4208,1.6038,1.7829,1.9496,1.9719,1.9837,1.992,2.6686,2.8646,2.5433,3.4672,3.9637,4.0496,4.0509,4.0026,3.9201,3.919,3.9007,3.8638,3.7777,3.6916,3.6135,3.5802,3.5485,3.5206,3.5204,3.4057,3.2163,3.0162,2.8059,2.5715,2.227,2.3035,2.5692,2.7223,2.748,2.7102,2.657,2.4121,2.1925,2.3453,0.0,0.0,2.3275,2.6856,3.0346,3.1174,3.2923,3.4803,3.6345,3.8704,4.0228,3.9352,3.9911,4.0491,4.0501,4.1459,4.2203,4.2195,4.1828,4.1706,4.2157,4.1811,4.127,4.0571,4.0771,4.131,4.2144,4.2195,4.2197,4.2203,4.2507,4.31,4.3973,4.3992,4.4,4.4012,4.2806,4.2201,4.2204,4.2205,4.1603,4.0501,4.0506,4.0489,4.0512,4.0512,4.0512,4.0502,4.0501,3.979,3.7427,2.4676,1.9707,1.9627,1.9015,1.8806,1.8709,0.0,0.0,0.0,0.0,0.0,0.0,0.0,0.0,0.0,0.0,0.0,0.0,0.0,1.0533,1.0687,1.0704,1.18,1.3001,1.4218,1.5701,1.7322,1.9135,1.9777,2.0211,2.0462,2.7049,3.3564,3.9867,4.0262,4.0458,4.051,4.0497,4.0487,4.0446,4.0446,3.9806,3.8687,3.8668,3.8638,3.8485,3.7311,3.6192,3.5201,3.5209,3.3041,2.9849,2.8675,2.5262,2.1281,2.1147,2.1957,2.3413,2.5724,2.5649,2.4925,2.6071,2.4709,2.3351,2.5676,0.0,2.8862,2.9482,3.2329,3.5009,3.5034,3.5945,3.7473,3.9849,4.042,4.0496,4.0452,4.0484,4.0497,4.049,4.1466,4.2206,4.2204,4.2188,4.2174,4.2192,4.2192,4.1734,0.0,4.15,4.216,4.2207,4.2207,4.2203,4.2196,4.3313,4.3968,4.4001,4.399,4.4003,4.3994,4.2805,4.2206,4.2198,4.2211,4.1603,4.0495,4.0497,4.0497,4.0512,4.0512,4.0512,4.0502,4.0501,3.9786,3.743,2.4663,1.9707,1.9633,1.9018,1.8801,1.8704,0.0,0.0,0.0,0.0,0.0,0.0,0.0,0.0,0.0,0.0,0.0,0.0,0.0,0.0,0.0,0.0,1.1819,1.1479,1.1877,1.4997,1.7639,1.9456,2.0072,2.4932,3.4687,3.7104,3.9373,4.1624,4.1633,4.163,4.163,4.164,4.1225,4.0512,4.0492,4.0267,3.9897,3.9893,3.9897,3.9576,3.601,3.3886,3.2782,3.1992,2.9964,2.7122,0.0,2.1327,1.9978,1.9964,2.0236,2.0725,2.1518,2.1994,2.2733,2.512,2.5804,2.6076,2.7271,0.0,3.2911,3.2039,3.4698,3.7634,3.8017,3.8415,3.881,3.922,3.9089,3.923,4.0298,4.0488,4.0746,4.1502,4.2614,4.338,4.3388,4.2691,4.1622,4.0059,3.85,0.0,0.0,0.0,0.0,4.2195,4.2209,4.2544,4.3354,4.4513,4.5127,4.5127,4.4392,4.3996,4.3989,4.3611,4.2985,4.219,4.1424,4.1279,4.1598,4.0832,4.0499,4.0512,4.0512,4.0512,4.0502,4.0501,3.9786,3.8275,3.3976,2.7144,1.9686,1.9472,1.914,1.8776,0.0,0.0,0.0,0.0,0.0,0.0,0.0,0.0,0.0,0.0,0.0,0.0,0.0,0.0,0.0,0.0,0.0,1.0698,1.0697,1.3445,1.8109,2.4938,2.5567,3.0713,4.1363,4.1999,4.2193,4.2205,4.2192,4.1981,4.1582,4.1582,4.1425,4.1091,4.0673,4.0493,4.0507,4.0488,3.8558,3.5107,3.1222,2.9712,2.9712,2.8702,2.7535,0.0,2.1087,1.9399,1.9404,1.9397,1.9404,1.9426,1.9625,2.0813,2.257,2.4748,2.6308,2.7611,2.9057,3.1948,3.4512,3.4342,3.6518,3.8959,3.998,4.006,3.9694,3.8873,3.8148,3.8078,3.9406,3.9419,3.9743,4.134,4.296,4.4132,4.4549,4.3214,4.1797,4.0723,3.7392,3.57,0.0,0.0,0.0,4.2175,4.2198,4.2888,4.4518,4.5291,4.5699,4.5699,4.4592,4.4006,4.4006,4.3996,4.3385,4.2185,4.1463,4.1283,4.1572,4.0842,4.0504,4.0512,4.0512,4.0512,4.0502,4.0506,3.9783,3.8691,3.8699,3.0917,1.9677,1.9458,1.9126,1.8807,0.0,0.0,0.0,0.0,0.0,0.0,0.0,0.0,0.0,0.0,0.0,0.0,0.0,0.0,0.0,0.0,0.0,0.0,1.072,1.1237,1.8417,3.3811,3.4647,3.6243,3.9433,4.0618,4.1222,4.1199,4.1507,4.114,4.0137,4.0193,4.0801,4.1786,4.0702,4.0221,4.0235,4.023,3.5021,2.6531,2.3935,2.42,2.6078,2.5638,2.5791,2.5659,2.1145,1.947,1.9408,1.9465,1.9532,1.9672,2.0184,2.2049,2.4199,2.5097,2.6374,2.8141,3.1059,3.2732,3.4231,3.6572,3.7985,3.9245,4.091,4.0829,4.0086,3.8858,3.7596,3.6956,0.0,0.0,3.7351,3.9514,4.2035,4.412,4.5269,4.3623,4.2682,0.0,0.0,0.0,0.0,0.0,0.0,4.2159,0.0,4.3227,4.5583,4.5694,4.5697,4.5697,4.4644,4.4091,4.408,4.4036,4.338,4.2197,4.2202,4.1628,4.0587,4.0537,4.0501,4.0512,4.0512,4.0512,4.0502,4.0503,3.9838,3.8791,3.8707,3.1312,2.0597,1.9962,1.9336,1.8807,0.0,0.0,0.0,0.0,0.0,0.0,0.0,0.0,0.0,0.0,0.0,0.0,0.0,0.0,0.0,0.0,0.0,0.0,1.0985,1.0844,1.5041,2.4289,2.7229,2.7838,2.6086,2.7204,2.7817,2.7822,3.2213,3.4652,3.5225,3.6138,3.6708,3.6976,3.667,3.6548,3.6547,3.654,3.4642,3.1102,2.5241,2.2718,2.2638,2.4219,2.4584,2.3957,2.1866,2.0384,1.9529,2.0384,0.0,0.0,2.2168,2.3236,2.4851,2.6853,2.8757,3.0757,3.3255,3.5605,3.7646,3.8924,3.9794,4.0446,4.0907,4.0203,3.9063,3.7648,3.5725,3.4494,0.0,0.0,0.0,3.1515,3.6235,0.0,4.1663,4.2829,0.0,4.1554,0.0,3.9844,4.1597,4.2165,0.0,0.0,4.2455,4.3222,4.558,4.5712,4.5712,4.5697,4.5418,4.5266,4.5276,4.4417,4.339,4.2209,4.2203,4.2052,4.1744,4.0884,4.0511,4.0512,4.0512,4.0512,4.0502,4.0509,4.0317,3.9938,3.9058,3.6723,3.3736,3.2672,2.6559,1.8807,0.0,0.0,0.0,0.0,0.0,0.0,0.0,0.0,0.0,0.0,0.0,0.0,0.0,0.0,0.0,0.0,0.0,0.0,0.0,1.0703,1.3809,2.0797,2.3007,2.3136,2.1137,2.2279,2.2639,2.2117,2.5962,2.8165,2.8809,3.0011,3.0546,3.053,3.0039,2.9807,2.9839,3.0345,2.9875,0.0,0.0,2.1577,2.198,2.2753,2.2497,2.1603,2.0936,2.0791,2.1063,0.0,0.0,2.3606,2.4371,2.5608,2.7228,2.9613,0.0,3.3482,3.5952,3.802,3.9691,4.056,4.0853,4.0735,4.0077,3.9104,3.7674,3.5298,3.3916,0.0,3.2453,0.0,0.0,0.0,0.0,0.0,4.2617,4.3918,4.4269,0.0,4.2777,0.0,4.3666,4.404,4.4143,0.0,4.3179,4.3374,4.4873,4.5426,4.5695,4.5705,4.5704,4.5458,4.4964,4.4325,4.3382,4.2205,4.2197,4.2211,4.2156,4.1026,4.0492,4.0512,0.0,4.0512,4.0502,4.0506,4.0185,3.9092,3.2818,3.3779,3.8613,3.7943,3.3047,2.5984,0.0,0.0,0.0,0.0,0.0,0.0,0.0,0.0,0.0,0.0,0.8461,0.0,0.0,0.0,0.0,0.0,0.0,0.0,0.0,0.0,1.361,2.0134,2.0852,2.1096,2.1094,2.1978,2.192,2.0864,2.1923,2.2448,2.2455,2.3451,2.3914,2.3872,2.2883,2.2441,2.2499,2.3492,2.3344,2.2261,2.0217,2.0622,2.2318,0.0,2.0268,1.9401,1.9441,2.0782,2.2712,2.3874,2.4548,2.5211,2.6911,2.87,3.0646,3.2917,3.4549,3.6153,3.8662,4.0052,4.0964,4.167,4.1405,4.0548,3.8997,3.7757,3.5966,3.2519,0.0,3.1649,2.9882,2.9486,3.1524,3.7912,0.0,4.4399,4.5541,4.5694,4.5699,4.5688,4.5687,4.5702,4.5711,4.5702,4.5503,4.5037,4.4166,4.378,4.41,4.5118,4.5701,4.5703,4.5703,4.5161,4.4007,4.3998,4.339,4.2202,4.2207,4.22,4.2162,4.1015,4.0497,4.0489,4.0512,4.0512,4.0512,4.0502,3.9885,3.7826,2.66,2.8968,3.8675,3.8524,3.7805,3.5152,0.0,0.0,0.0,0.0,0.0,0.0,0.0,0.0,0.0,0.0,0.8095,0.8574,0.0,0.0,0.0,0.0,0.0,0.0,0.0,0.0,0.0,1.6626,1.9552,2.11,2.1102,2.0373,1.9897,1.969,1.9907,2.001,2.0016,2.0205,2.03,2.0286,2.0105,2.0009,2.0022,2.0223,2.019,1.9972,1.9556,1.9646,1.998,1.9763,0.0,0.0,1.9654,2.0125,2.1287,2.5325,2.7529,2.8853,3.0377,3.2211,3.4163,3.6086,3.717,3.8172,4.0067,4.1432,4.229,4.2162,4.1679,4.0731,3.8812,3.6367,0.0,0.0,2.9603,2.8734,2.7911,2.7346,2.9901,3.8756,0.0,0.0,0.0,0.0,4.5702,0.0,0.0,0.0,0.0,0.0,0.0,0.0,0.0,4.485,4.4744,4.5357,4.5712,4.5688,4.5695,4.5158,4.4005,4.3995,4.3387,4.2208,4.2204,4.2199,4.2155,4.1015,4.0497,4.0511,4.0499,0.0,4.0502,4.0495,4.0381,3.9875,3.6663,3.6748,3.8578,3.7577,3.7079,3.5158,0.0,0.0,0.0,0.0,0.0,0.0,0.0,0.8,0.8001,0.7996,0.8548,0.9155,0.9743,1.0337,1.0696,0.0,0.0,0.0,0.0,0.0,0.0,0.0,2.0207,2.1096,2.1096,2.0561,2.0277,2.0285,0.0,1.9489,1.9662,1.9476,1.9402,1.9402,1.9402,1.9402,1.9397,1.9396,1.9401,1.9399,1.94,1.9395,1.9401,0.0,0.0,0.0,0.0,2.0347,2.1787,2.4712,2.7903,3.1059,3.344,3.5284,3.686,3.833,3.9173,3.996,4.1432,4.2461,4.307,4.2907,4.1868,4.0092,3.7114,0.0,0.0,0.0,2.8002,2.7726,2.6173,2.6688,0.0,3.4982,4.0472,4.397,0.0,0.0,0.0,0.0,0.0,0.0,0.0,0.0,0.0,0.0,0.0,4.5416,4.5317,4.5562,4.5704,4.5705,4.5122,4.4549,4.4005,4.3392,4.2765,4.2206,4.2209,4.2204,4.2189,4.1629,4.1052,4.0501,4.0489,4.0512,4.0512,4.0499,4.05,4.037,3.9179,3.8705,3.862,3.8037,3.7441,3.5162,0.0,0.0,0.0,0.0,0.0,0.0,0.0,0.8216,0.8392,0.8385,0.9207,0.9852,0.9984,1.0299,1.0515,0.0,0.0,0.0,0.0,0.0,0.0,0.0,0.0,0.0,2.1096,0.0,0.0,2.0972,1.9991,0.0,0.0,0.0,0.0,0.0,1.9401,1.9401,1.9401,1.9401,1.9401,0.0,0.0,1.9401,0.0,0.0,0.0,0.0,0.0,2.0519,2.213,2.3963,2.7342,3.1326,3.4629,3.6955,3.8653,3.9545,4.0453,4.1432,4.2568,4.3297,4.3716,4.363,4.2422,4.0209,3.6258,3.4204,0.0,0.0,2.6551,2.6761,2.4631,2.6198,2.8498,0.0,3.6806,4.0855,3.9405,4.2953,0.0,0.0,0.0,0.0,0.0,0.0,0.0,0.0,0.0,0.0,4.5694,4.5694,4.5697,4.5698,4.459,4.4006,4.4012,4.28,4.2206,4.2209,4.2201,4.2195,4.218,4.1949,4.1353,4.0504,4.0493,4.0512,4.0512,4.0512,4.0502,4.0414,3.9457,3.893,3.87,3.8696,3.8108,3.5498,0.0,0.0,0.0,0.0,0.0,0.0,0.0,0.8932,0.9638,0.9635,0.9735,1.0013,1.0557,1.0179,0.9883,0.0,0.0,0.0,0.0,0.0,0.0,0.0,0.0,0.0,0.0,0.0,0.0,2.0554,2.008,0.0,0.0,0.0,0.0,0.0,0.0,1.9401,1.9401,1.9401,0.0,0.0,0.0,0.0,0.0,0.0,0.0,0.0,0.0,1.9928,2.0705,0.0,0.0,2.8315,3.1845,3.5752,3.9062,3.9155,0.0,0.0,4.319,4.3946,4.4413,4.4043,4.3825,4.26,3.8468,0.0,0.0,2.548,2.4825,2.4547,2.3289,2.4978,2.6994,2.8316,3.0955,3.2049,2.9804,3.886,4.5696,4.5706,0.0,0.0,0.0,0.0,0.0,0.0,0.0,0.0,4.5694,4.5694,4.5705,4.5694,4.4598,4.399,4.3997,4.2796,4.221,4.2197,4.2202,4.2207,4.2158,4.1129,4.0595,4.0501,4.0501,0.0,0.0,4.0512,4.0502,4.0489,4.0382,3.9659,3.8705,3.8706,3.8633,3.6643,0.0,0.0,0.0,0.0,0.0,0.0,0.8001,0.9024,1.0064,1.0793,1.0564,1.0437,1.0673,1.0275,0.9932,0.981,0.0,0.0,0.0,0.0,0.0,0.0,0.0,0.0,0.0,0.0,2.0866,2.0851,2.0339,0.0,0.0,0.0,0.0,0.0,0.0,1.9401,1.9401,1.9401,0.0,0.0,0.0,0.0,0.0,0.0,0.0,0.0,0.0,0.0,2.0628,0.0,0.0,0.0,2.7402,3.1112,0.0,0.0,3.9291,4.0981,4.2641,4.399,4.4967,4.5014,4.4503,4.2821,3.8293,0.0,3.0598,2.5629,2.3474,2.2788,2.3747,2.5283,2.6321,2.6068,2.8613,3.0784,3.1255,3.8403,4.4134,4.5538,4.6127,0.0,0.0,0.0,0.0,0.0,0.0,4.5694,4.5694,4.5694,4.5704,4.5712,4.459,4.4006,4.3989,4.2803,4.221,4.2202,4.2202,4.2199,4.219,4.1732,4.1147,4.0502,4.0499,4.0512,0.0,4.0512,4.0505,4.0492,4.0493,3.9767,3.8691,3.87,3.8702,3.7844,0.0,0.0,0.0,0.0,0.0,0.8002,0.8001,0.8723,0.9702,1.0914,1.0697,1.05,1.0676,1.038,1.0066,0.9819,0.9935,0.0,0.0,0.0,0.0,0.0,0.0,0.0,0.0,0.0,2.0743,2.084,2.0325,2.0084,0.0,0.0,1.9401,1.9401,0.0,0.0,0.0,0.0,0.0,0.0,0.0,0.0,0.0,0.0,0.0,0.0,0.0,0.0,0.0,0.0,0.0,0.0,2.4167,2.6813,3.0799,0.0,3.7782,4.034,4.2567,4.4232,4.5398,4.5636,4.457,4.1959,0.0,0.0,2.9416,2.4557,2.2535,2.2133,2.3794,2.5366,2.6001,2.479,2.7291,2.9964,3.1627,3.5447,3.9059,0.0,0.0,0.0,0.0,0.0,0.0,0.0,0.0,4.5694,4.5694,4.5694,4.5697,4.5697,4.4926,4.4346,4.3993,4.2799,4.2205,4.2201,4.2207,4.22,4.2185,4.1853,4.1267,4.0497,4.0489,4.0512,0.0,4.0512,4.0512,4.0505,4.0491,3.9761,3.8701,3.8699,3.8708,3.8582,0.0,0.0,0.0,0.0,0.0,0.0,0.8,0.8008,0.8446,0.966,0.9808,1.0036,1.0631,1.0457,1.0154,0.9828,0.9803,0.0,0.0,0.0,0.0,0.0,0.0,0.0,0.0,0.0,2.0542,2.021,1.9939,1.98,1.98,1.9528,1.9401,1.9401,0.0,0.0,0.0,0.0,0.0,0.0,0.0,0.0,1.9055,0.0,0.0,0.0,0.0,0.0,0.0,0.0,0.0,0.0,0.0,2.3726,2.5692,3.084,3.6225,4.0992,4.3359,4.4821,4.5693,4.5703,4.3949,4.007,0.0,2.7227,2.4017,2.1623,2.2069,2.2896,2.2909,2.4832,2.6004,2.4811,2.6642,2.822,2.8247,2.8303,2.9623,0.0,0.0,0.0,0.0,0.0,0.0,0.0,0.0,0.0,4.5694,4.5694,4.5697,4.5697,4.5695,4.5134,4.4008,4.2794,4.22,4.2206,4.2195,4.22,4.2162,4.1035,4.0512,4.0505,4.0497,4.0512,0.0,4.0512,4.0512,4.0505,4.0491,3.9761,3.8701,3.8699,3.8702,3.8699,0.0,0.0,0.0,0.0,0.0,0.0,0.0,0.8,0.8367,0.9394,0.9526,0.9704,1.0171,0.9984,0.9777,0.9672,0.9617,0.0,0.0,0.0,0.0,0.0,0.0,0.0,0.0,0.0,1.85,1.8629,1.9599,1.9985,1.98,1.9714,1.9452,1.9058,1.9015,1.9143,0.0,0.0,0.0,0.0,0.0,1.9401,1.9292,0.0,0.0,0.0,0.0,0.0,0.0,0.0,0.0,0.0,0.0,0.0,0.0,2.5158,2.937,3.4478,4.0082,4.3604,4.5503,4.4739,4.2773,3.9084,3.1605,2.7158,2.3935,2.1576,2.2067,2.2899,2.2897,2.4134,2.5579,2.6854,2.77,2.8192,2.8203,0.0,0.0,3.3266,3.5691,0.0,0.0,0.0,0.0,0.0,4.5699,4.5694,4.5694,4.5694,4.5701,4.5697,4.5705,4.5145,4.4013,4.3628,4.3017,4.2206,4.2197,4.1785,4.1054,4.1471,4.1252,4.0497,4.0489,4.0512,4.0512,4.0492,4.05,4.0506,4.05,3.9757,3.8712,3.8706,3.8708,3.8696,0.0,0.0,0.0,0.0,0.0,0.0,0.0,0.8005,0.8291,0.9099,0.9216,0.9376,0.9798,0.9651,0.9564,0.9665,0.9493,0.0,0.0,0.0,0.0,0.0,0.0,0.0,0.0,1.5117,1.6952,1.7898,1.8863,1.9619,2.0141,2.0083,1.9776,1.9259,1.8854,1.8836,0.0,0.0,0.0,0.0,1.9405,1.9392,1.9403,0.0,0.0,0.0,0.0,0.0,0.0,0.0,0.0,0.0,0.0,0.0,0.0,0.0,2.4612,2.8798,3.5899,3.8449,3.893,3.8221,3.6946,0.0,3.0276,2.6833,2.3925,2.1571,2.1699,2.236,2.2819,2.383,2.5084,2.6596,2.8704,3.0163,3.0162,0.0,0.0,0.0,0.0,0.0,0.0,0.0,0.0,4.5792,4.5699,4.5694,4.5694,4.5703,4.5704,4.5704,4.5705,4.5145,4.4013,4.3994,4.339,4.2207,4.2195,4.1833,4.1153,4.1425,4.1169,4.0495,4.0493,4.0512,0.0,4.0502,4.0236,3.9809,3.9811,3.9352,3.8698,3.8708,3.8689,3.87,0.0,0.0,0.0,0.0,0.0,0.0,0.0,0.7998,0.8208,0.8796,0.8878,0.9054,0.9501,0.9435,0.947,0.9711,0.0,0.0,0.0,0.0,0.0,0.0,0.0,0.0,0.0,1.385,1.5697,1.7545,1.7798,1.8889,2.0728,2.0596,2.0315,1.9884,1.8962,1.8518,0.0,0.0,0.0,0.0,1.9316,1.9326,0.0,0.0,0.0,0.0,0.0,0.0,0.0,0.0,0.0,0.0,0.0,0.0,0.0,0.0,0.0,0.0,0.0,3.0404,2.82,2.8205,2.8132,2.8048,2.7956,2.6152,0.0,2.1575,2.1107,2.1471,2.2681,2.3772,2.451,2.4594,2.9261,3.2925,3.3011,3.3684,0.0,0.0,0.0,0.0,0.0,0.0,4.6917,4.5775,4.5699,4.5694,4.5694,4.5696,4.5663,4.5589,4.5573,4.506,4.4008,4.3903,4.3314,4.2202,4.2118,4.2081,4.2054,4.0972,4.0504,0.0,4.0499,4.0512,4.0512,4.0502,3.9839,3.881,3.8728,3.8701,3.8687,3.8708,3.8689,3.87,0.0,0.0,0.0,0.0,0.0,0.0,0.0,0.0,0.0,0.0,0.8634,0.8771,0.9034,0.9034,0.9041,0.0,0.0,0.0,0.0,0.0,0.0,0.0,0.0,0.0,0.0,1.2003,1.3282,1.415,1.6866,1.9173,2.1016,2.0971,2.0665,2.0102,1.9472,1.868,0.0,0.0,0.0,0.0,1.8387,1.8575,0.0,0.0,0.0,0.0,0.9801,1.3944,0.0,0.0,0.0,0.0,0.0,0.0,0.0,0.0,2.1309,2.1878,2.3535,0.0,2.8209,2.8198,2.7517,2.6578,0.0,2.433,2.2879,2.1401,0.0,2.1472,2.2675,2.3117,2.3577,2.4458,2.6547,2.8376,2.9289,0.0,0.0,0.0,0.0,0.0,0.0,0.0,4.6001,4.5718,4.5699,4.5694,4.5694,4.5696,4.5295,4.4428,4.4396,4.4268,4.4008,4.3072,4.2483,4.2186,4.132,4.0893,4.0895,4.0612,4.0497,4.0499,4.0493,4.0512,4.0502,4.0489,4.0317,3.9992,3.906,3.8706,3.8708,3.87,3.8689,3.87,0.0,0.0,0.0,0.0,0.0,0.0,0.0,0.0,0.0,0.0,0.0,0.8641,0.8879,0.8899,0.0,0.0,0.0,0.0,0.0,0.0,0.0,0.0,0.0,0.9712,0.9712,1.0613,1.1857,1.341,1.5833,1.8702,2.1924,2.1936,2.1457,2.0552,1.9172,1.8213,0.0,0.0,0.0,1.9342,1.869,0.0,0.0,0.0,0.0,0.0,1.0855,1.3943,0.0,1.9999,2.0583,2.1106,0.0,0.0,0.0,0.0,2.1102,2.1095,2.1103,2.3381,2.5766,2.5763,2.528,2.4488,2.3261,2.2522,2.0982,0.0,0.0,2.1302,2.1958,2.3857,2.5171,2.4686,2.5618,2.7192,0.0,0.0,0.0,0.0,0.0,0.0,0.0,0.0,4.5703,4.5697,4.5709,4.5695,4.5704,4.5705,4.5192,4.4039,4.4011,4.3732,4.3185,4.2533,4.2197,4.2186,4.1035,4.0501,4.0501,4.0501,4.0495,4.0512,4.0512,4.0505,4.0492,4.0509,4.0168,3.9619,3.8951,3.8708,3.8689,3.8689,3.8689,3.87,0.0,0.0,0.0,0.0,0.0,0.0,0.0,0.0,0.0,0.0,0.0,0.0,0.0,0.0,0.0,0.0,0.0,0.0,0.0,0.0,0.0,0.0,0.0,0.9598,0.9624,0.9702,1.0898,1.3269,1.4767,1.7932,2.2624,2.281,2.2066,2.0482,1.8486,1.7699,0.0,0.0,0.0,1.9407,1.9401,0.0,0.0,0.0,0.0,0.0,0.0,0.0,0.0,2.0716,2.1345,2.1638,2.1637,0.0,0.0,0.0,0.0,0.0,2.0885,2.171,2.2807,2.353,2.3565,2.3014,2.1465,0.0,0.0,0.0,0.0,0.0,0.0,0.0,0.0,0.0,0.0,0.0,0.0,0.0,0.0,0.0,0.0,0.0,4.5416,4.5707,4.5697,4.5686,4.5701,4.5704,4.5697,4.5528,4.491,4.3767,4.374,4.3236,4.22,4.2198,4.2113,4.1928,4.095,4.0506,4.0512,4.0512,4.0502,4.0505,0.0,0.0,4.0491,4.0303,3.9614,3.8687,3.8705,3.8706,3.8708,3.8708,3.8705,3.8689,0.0,0.0,0.0,0.0,0.0,0.0,0.0,0.0,0.0,0.0,0.0,0.0,0.0,0.0,0.0,0.0,0.0,0.0,0.0,0.0,0.0,0.9254,0.9419,0.9596,0.9766,0.9566,0.9779,1.0434,1.3835,1.7524,2.1405,2.2425,2.1197,1.8125,1.7762,1.8165,1.914,0.0,0.0,1.9406,1.9396,0.0,0.0,0.0,0.0,0.0,0.0,0.0,0.0,2.0725,2.2426,2.4053,2.406,0.0,0.0,0.0,0.0,0.0,1.9924,2.0508,2.2341,2.6372,2.6617,2.5027,2.1837,2.1102,0.0,0.0,0.0,0.0,0.0,0.0,0.0,0.0,0.0,0.0,0.0,0.0,0.0,0.0,0.0,4.5097,4.5648,4.5704,4.5686,4.5694,4.5712,4.5704,4.5697,4.4793,4.3711,4.2518,4.2478,4.2382,4.2209,4.2204,4.173,4.0757,4.0587,4.0506,4.0512,4.0512,4.0499,4.0506,0.0,4.0509,4.0417,3.94,3.8875,3.87,3.8704,3.8699,3.8701,3.8701,3.8704,3.8705,0.0,0.0,0.0,0.0,0.0,0.0,0.0,0.0,0.0,0.0,0.0,0.0,0.0,0.0,0.0,0.0,0.0,0.0,0.0,0.0,0.0,0.9037,0.9123,0.931,0.9578,0.9609,0.9516,0.9315,1.488,2.0124,2.489,2.2869,2.1064,1.9446,1.8175,1.8264,1.9403,1.9402,1.9396,1.9401,0.0,0.0,0.0,0.0,0.0,0.0,0.0,0.0,0.0,0.0,2.0904,2.19,2.2513,0.0,0.0,0.0,0.0,0.0,1.9531,2.2111,2.5464,2.7646,2.5853,2.3107,2.1471,0.0,0.0,0.0,0.0,0.0,0.0,0.0,0.0,0.0,0.0,0.0,0.0,0.0,0.0,0.0,0.0,4.5688,4.5705,4.5705,4.5695,4.5712,4.5698,4.5432,4.4817,4.4287,4.3459,4.2241,4.2207,4.2199,4.2211,4.1594,4.1031,4.0506,4.0502,4.0493,4.0492,4.0492,4.0496,4.0461,0.0,3.9533,3.948,3.8927,3.8706,3.8635,3.7989,3.7929,3.8207,3.8216,3.8214,3.8198,0.0,0.0,0.0,0.0,0.0,0.0,0.0,0.0,0.0,0.0,0.0,0.0,0.0,0.0,0.0,0.0,0.0,0.0,0.0,0.0,0.8902,0.8901,0.9032,0.9226,0.9488,0.9701,1.0585,1.2181,1.8407,2.363,2.7672,2.3207,2.0807,2.0233,1.8984,1.8787,1.9396,1.9397,1.9404,1.9401,0.0,0.0,0.0,0.0,0.0,0.0,0.0,0.0,0.0,0.0,0.0,0.0,0.0,0.0,0.0,1.9397,1.9408,1.9402,1.9402,2.2897,2.661,2.6894,2.4219,2.1592,2.1858,0.0,0.0,0.0,0.0,0.0,0.0,0.0,0.0,0.0,0.0,0.0,0.0,0.0,0.0,0.0,0.0,4.5707,4.5705,4.5712,4.5689,4.5705,4.5455,4.4806,4.3638,4.3581,4.3153,4.2234,4.1949,4.1797,4.1804,4.0939,4.0501,4.0501,4.0495,4.0499,4.0499,4.0204,4.0074,4.0033,3.9099,3.8705,3.8689,3.8552,3.8559,3.8591,3.7532,3.7398,3.7813,3.7954,3.7832,3.7582,0.0,0.0,0.0,0.0,0.0,0.0,0.0,0.0,0.0,0.0,0.0,0.0,0.0,0.0,0.0,0.0,0.0,0.0,0.0,0.0,0.8898,0.8898,0.9439,0.9744,0.977,0.9789,1.3772,2.1889,2.5705,2.7207,2.6458,2.2795,1.994,1.7939,1.9946,2.0307,1.9397,1.9403,1.9402,1.9401,1.9401,0.0,0.0,0.0,0.0,0.0,0.0,0.0,0.0,0.0,0.0,0.0,0.0,0.0,1.9399,1.9408,1.9402,1.94,1.9402,2.0487,2.1884,2.2999,2.3014,0.0,2.4112,2.4346,0.0,0.0,0.0,0.0,0.0,0.0,0.0,0.0,0.0,0.0,0.0,0.0,0.0,0.0,4.5705,4.5694,4.5694,4.5694,4.5707,4.5702,4.4706,4.3592,4.2391,4.2328,4.229,4.2202,4.1164,4.0622,4.0617,4.0547,4.0501,4.0501,4.0495,4.0499,4.0456,3.9346,3.8837,3.8821,3.8734,3.8707,3.866,3.8111,3.8186,3.8636,3.7998,3.7758,3.7866,3.8431,3.7934,3.6952,0.0,0.0,0.0,0.0,0.0,0.0,0.0,0.0,0.0,0.0,0.0,0.0,0.0,0.0,0.0,0.0,0.0,0.0,0.0,0.8548,0.834,0.8336,0.9118,0.98,1.035,1.073,1.5931,2.6203,2.5325,2.4675,2.4188,2.2085,2.0052,1.8247,2.0217,2.0864,2.0435,2.0061,1.9704,1.9408,1.9406,1.9407,0.0,0.0,0.0,0.0,0.0,0.0,0.0,0.0,1.9873,2.0408,2.0125,2.0236,2.0464,2.0459,2.0468,2.03,1.9593,1.971,2.0323,2.149,2.1788,0.0,0.0,0.0,0.0,0.0,0.0,0.0,0.0,0.0,0.0,0.0,0.0,0.0,4.3213,4.3713,4.416,4.4589,4.4639,4.4648,4.4648,4.4639,4.4653,4.4633,4.354,4.2678,4.2224,4.2202,4.1869,4.1173,4.0717,4.0497,4.0504,4.0504,4.0489,4.0495,4.0492,4.0506,4.0459,3.9259,3.8712,3.8662,3.7903,3.8001,3.868,3.8451,3.8492,3.8634,3.8046,3.7566,3.7312,3.7921,3.7849,3.7405,0.0,0.0,0.0,0.0,0.0,0.0,0.0,0.0,0.0,0.0,0.0,0.0,0.0,0.0,0.0,0.0,0.0,0.0,0.859,0.823,0.7999,0.8001,0.8718,1.0091,1.2171,1.3079,1.835,2.8201,2.5189,2.3239,2.2309,2.1286,2.0276,1.9366,2.0424,2.0983,2.1077,2.0656,2.0155,1.9666,1.9865,1.9724,0.0,0.0,0.0,0.0,0.0,0.0,0.0,0.0,1.9669,1.9995,1.9949,2.0232,2.0633,2.0994,2.1098,2.0851,1.9709,1.9403,2.0025,2.2683,0.0,0.0,0.0,0.0,0.0,0.0,0.0,0.0,0.0,0.0,0.0,0.0,0.0,4.2611,4.3828,4.3989,4.4007,4.4003,4.399,4.399,4.399,4.3996,4.3845,4.3461,4.2668,4.2209,4.2195,4.1853,4.131,4.0516,4.0511,4.0501,4.0512,4.0495,4.05,4.0499,4.0107,3.9939,3.9898,3.9085,3.8707,3.8645,3.7827,3.7724,3.8151,3.854,3.8593,3.8377,3.7956,3.7432,3.6944,3.736,3.7513,3.7472,0.0,0.0,0.0,0.0,0.0,0.0,0.0,0.0,0.0,0.0,0.0,0.0,0.0,0.0,0.0,0.0,0.0,0.0,0.8,0.8,0.8,0.8,0.8321,1.0684,1.5372,1.6962,2.1171,2.8168,2.6353,2.3972,2.1102,2.0501,2.0532,2.1067,2.069,2.0722,2.1101,2.1101,2.0754,2.0247,2.0856,2.0405,0.0,0.0,0.0,0.0,0.0,0.0,0.0,0.0,1.8614,1.8013,2.0357,2.0316,1.9635,2.0763,2.1086,2.0842,1.973,1.9417,2.0815,0.0,0.0,0.0,0.0,3.2718,0.0,0.0,0.0,0.0,0.0,0.0,0.0,0.0,0.0,4.2618,4.3823,4.3989,4.3989,4.3972,4.397,4.3969,4.3969,4.3969,4.3491,4.229,4.2186,4.218,4.2182,4.1102,4.0501,4.0501,4.0495,4.0512,4.0512,4.05,4.0484,4.0479,3.9276,3.8695,3.8695,3.8695,3.8707,3.8689,3.8696,3.8023,3.699,3.8184,3.8323,3.7786,3.7786,3.743,3.6899,3.6899,3.6899,3.6899,0.0,0.0,0.0,0.0,0.0,0.0,0.0,0.0,0.0,0.0,0.0,0.0,0.0,0.0,0.0,0.0,0.0,0.0,0.8003,0.8003,0.8003,0.8003,0.8408,1.0038,1.3034,1.825,2.2628,2.6099,2.4755,2.3384,2.2007,2.1784,2.1242,2.05,2.138,2.1417,2.0827,2.0827,2.0665,2.0416,2.0441,2.0044,1.9404,0.0,0.0,0.0,0.0,0.0,0.0,0.0,0.0,0.0,1.9681,2.0223,2.0661,2.0999,2.0534,2.0008,2.0479,2.0602,0.0,0.0,0.0,0.0,0.0,3.3281,0.0,0.0,0.0,0.0,0.0,0.0,0.0,0.0,0.0,0.0,4.3817,4.3997,4.3699,4.2837,4.2731,4.2724,4.2724,4.2726,4.2577,4.2234,4.1459,4.1,4.101,4.0692,4.0502,4.0495,4.0493,4.0495,4.05,4.0496,4.0067,3.9221,3.8869,3.8706,3.8706,3.8706,3.8697,3.8705,3.8695,3.802,3.692,3.7295,3.7323,3.7174,3.7182,3.7063,3.6899,3.6899,3.6899,3.6899,0.0,0.0,0.0,0.0,0.0,0.0,0.0,0.0,0.0,0.0,0.0,0.0,0.0,0.0,0.0,0.0,0.0,0.0,0.0,0.7996,0.7996,0.7996,0.8346,1.0076,1.3379,1.9188,2.2591,2.3415,2.3068,2.2558,2.1889,2.2095,2.1786,2.1133,2.2457,2.2503,2.1574,2.1574,2.1245,2.0729,2.0616,2.0168,1.9582,0.0,0.0,0.0,0.0,0.0,0.0,0.0,0.0,0.0,1.9393,2.0187,2.1382,2.2784,2.1397,1.9548,2.0239,2.0759,0.0,0.0,0.0,0.0,0.0,0.0,0.0,0.0,0.0,0.0,0.0,0.0,0.0,0.0,4.1756,4.2621,4.3833,4.3583,4.3016,4.2294,4.221,4.2201,4.2204,4.2197,4.1996,4.1556,4.0889,4.0497,4.0506,4.0497,4.0495,4.0502,4.0502,4.0503,4.0501,4.0011,3.9423,3.8697,3.8705,3.8449,3.8001,3.8471,3.8699,3.8672,3.8187,3.7578,3.6889,3.6897,3.6903,3.6903,3.691,3.6626,3.6219,3.6219,3.6372,3.6579,0.0,0.0,0.0,0.0,0.0,0.0,0.0,0.0,0.0,0.0,0.0,0.0,0.0,0.0,0.0,0.0,0.0,0.0,0.0,0.0,0.7653,0.7685,0.8404,1.088,1.5296,1.9547,2.1325,2.0544,2.1432,2.1571,2.0994,2.1705,2.2164,2.2455,2.3647,2.3683,2.2893,2.2768,2.2069,2.1069,2.1085,2.0652,1.9971,1.9604,0.0,0.0,0.0,0.0,0.0,0.0,0.0,0.0,1.9406,2.0103,2.1553,2.4684,2.2814,1.9673,1.9463,0.0,0.0,2.1689,0.0,0.0,0.0,0.0,0.0,0.0,0.0,0.0,4.0635,4.0644,4.098,4.2023,4.2195,4.2587,4.3682,4.2899,4.2198,4.2209,4.2201,4.2195,4.2191,4.2123,4.1619,4.0587,4.0492,4.0497,4.0502,4.0502,4.0502,4.0489,4.0385,4.034,4.0338,3.9251,3.8699,3.8696,3.8589,3.7968,3.6945,3.8036,3.8541,3.8473,3.7377,3.6903,3.6899,3.6901,3.6901,3.6901,3.6902,3.6263,3.5344,3.5303,3.5622,3.6139,0.0,0.0,0.0,0.0,0.0,0.0,0.0,0.0,0.0,0.0,0.0,0.0,0.0,0.0,0.0,0.0,0.0,0.0,0.0,0.0,0.4977,0.5241,1.0027,1.3297,1.4606,1.7882,1.9478,1.9298,2.0422,2.067,2.0107,2.1609,2.2335,2.2433,2.3442,2.3514,2.2813,2.1654,2.1026,2.0806,2.1028,2.0994,2.0777,2.0245,1.9767,0.0,0.0,0.0,0.0,0.0,0.0,0.0,1.9406,1.9565,1.9732,1.9545,2.0757,2.1749,1.99,2.1578,0.0,0.0,3.1983,3.7769,0.0,0.0,0.0,0.0,0.0,4.0772,4.1678,4.1817,4.1907,4.2163,4.2195,4.2293,4.2539,4.2358,4.2204,4.2202,4.2191,4.2211,4.2203,4.1395,4.0754,4.0516,4.0501,4.0502,4.0503,4.0503,4.0489,4.05,3.9574,3.9087,3.9092,3.8838,3.8694,3.8701,3.7744,3.7157,3.6904,3.7168,3.7295,3.7281,3.7004,3.6903,3.6899,3.6906,3.6894,3.6908,3.6897,3.6761,3.6491,3.6058,3.5991,3.6113,0.0,0.0,0.0,0.0,0.0,0.0,0.0,0.0,0.0,0.0,0.0,0.0,0.0,0.0,0.0,0.0,0.0,0.0,0.0,0.0,0.6123,0.6587,1.1234,1.3823,1.3871,1.7051,1.8571,1.8277,1.9044,1.9685,2.0269,2.1879,2.2939,2.3487,2.4431,2.4285,2.3268,2.2198,2.1515,2.1135,2.1275,2.1231,2.1078,2.0753,2.0277,1.9754,1.9488,0.0,0.0,0.0,0.0,0.0,0.0,0.0,1.9287,1.8648,2.0166,2.1901,2.1254,0.0,0.0,3.1358,0.0,3.9728,4.0367,4.0503,4.0505,4.0496,4.0493,4.0863,4.1994,4.221,4.2195,4.2197,4.175,4.1396,4.1385,4.1398,4.1595,4.2137,4.1725,4.1381,4.139,4.0839,4.0502,4.0493,4.0495,4.0503,4.0501,3.9941,3.9639,3.9634,3.902,3.8696,3.8702,3.8123,3.7846,3.782,3.6654,3.6088,3.6096,3.6653,3.691,3.6904,3.6896,3.6899,3.6895,3.6895,3.6569,3.6096,3.6099,3.6087,3.6047,3.5765,3.5671,3.5672,0.0,0.0,0.0,0.0,0.0,0.0,0.0,0.0,0.0,0.0,0.0,0.0,0.0,0.0,0.0,0.0,0.0,0.0,0.0,0.0,0.0,0.8766,1.1746,1.3383,1.3396,1.6751,1.8264,1.7762,1.8022,0.0,0.0,0.0,2.3545,2.4724,2.539,2.4994,2.375,2.2925,2.2171,2.1502,2.1502,2.1347,2.1101,2.1101,0.0,2.0291,1.9854,1.9683,1.9697,1.9688,0.0,0.0,0.0,0.0,1.9397,1.9395,2.007,2.1158,2.2761,0.0,3.0661,3.5893,3.8876,0.0,4.0491,4.0492,4.0512,4.0512,4.0501,4.0788,4.1723,4.192,4.1913,4.1907,4.1113,4.0505,4.0506,4.051,4.0854,4.1795,4.1062,4.0471,4.0351,4.0432,4.0489,4.0489,4.0318,4.0187,4.0197,3.9245,3.8608,3.839,3.8392,3.8292,3.8099,3.7294,3.6806,3.6604,3.5644,3.5207,3.5227,3.6179,3.6707,3.6897,3.6689,3.6718,3.6883,3.6693,3.6043,3.5198,3.52,3.519,3.5192,3.5192,3.5192,3.5204,0.0,0.0,0.0,0.0,0.0,0.0,0.0,0.0,0.0,0.0,0.0,0.0,0.0,0.0,0.0,0.0,0.0,0.0,0.1067,0.0,0.0,0.8332,1.0807,1.2613,1.3788,1.6892,1.8457,1.8377,0.0,0.0,0.0,0.0,0.0,2.5016,0.0,2.4204,2.3687,2.2039,2.1269,2.1162,2.1162,2.1141,2.1101,0.0,0.0,0.0,0.0,2.0872,2.087,2.0867,2.0225,0.0,0.0,0.0,1.9393,1.9395,1.9506,2.032,2.3511,0.0,3.4939,0.0,3.949,4.0507,0.0,0.0,4.0512,0.0,4.0501,4.0547,4.0698,4.0724,4.0737,4.0728,4.0603,4.0497,4.0504,4.0501,4.0556,4.0714,4.0592,4.0296,3.9769,4.0192,4.0489,4.0502,3.9529,3.8941,3.8936,3.8787,3.8216,3.7164,3.714,3.6682,3.5675,3.6497,3.6408,3.543,3.5272,3.5205,3.5205,3.5365,3.5966,3.6842,3.5855,3.599,3.6815,3.5832,3.5337,3.5191,3.5205,3.5191,3.5191,3.5191,3.5204,3.5204,0.0,0.0,0.0,0.0,0.0,0.0,0.0,0.0,0.0,0.0,0.0,0.0,0.0,0.0,0.0,0.0,0.0,0.0,0.0,0.0,0.1788,0.5804,0.8459,1.0961,1.3342,1.5679,1.724,1.8003,0.0,0.0,0.0,2.3612,2.4823,0.0,0.0,0.0,0.0,2.1996,2.1101,2.1101,2.1101,2.1094,0.0,0.0,0.0,0.0,0.0,0.0,0.0,2.1105,2.0342,1.9513,2.0149,0.0,0.0,0.0,1.9405,1.9738,2.1275,2.78,3.4753,0.0,3.86,3.9664,4.0355,4.0492,4.0495,4.0495,4.0495,4.0502,4.0495,4.0506,4.0506,4.0512,4.0504,4.0497,4.0502,4.0499,4.0506,4.0493,4.0293,4.0022,3.9637,3.9218,3.8989,3.8988,3.8809,3.8406,3.7728,3.769,3.7453,3.6928,3.628,3.5715,3.5203,3.571,3.5698,3.5205,3.5205,3.5191,3.5204,3.5192,3.5471,3.5912,3.5428,3.5469,3.5912,3.5405,3.5205,3.5192,3.5204,3.5191,3.5191,3.5191,3.5191,3.5191,0.0,0.0,0.0,0.0,0.0,0.0,0.0,0.0,0.0,0.0,0.0,0.0,0.0,0.0,0.0,0.0,0.0,0.0,0.0,0.0,0.1198,0.3882,0.6718,0.9727,1.293,1.4706,1.6284,0.0,0.0,0.0,2.3785,2.4658,2.6363,0.0,2.647,0.0,0.0,0.0,0.0,0.0,0.0,0.0,0.0,0.0,0.0,0.0,0.0,0.0,0.0,0.0,0.0,0.0,0.0,2.0086,0.0,0.0,0.0,1.9533,0.0,0.0,3.381,3.5571,3.7603,3.9381,0.0,0.0,4.0413,0.0,4.0034,4.0044,4.0037,4.0288,4.05,4.0506,4.0241,4.0099,4.0255,4.0314,4.0328,4.0269,4.0007,3.9706,3.9412,3.8563,3.79,3.7596,3.7862,3.7702,3.6945,3.664,3.6471,3.6462,3.563,3.5204,3.5201,3.5205,3.5203,3.5191,3.519,3.5203,3.5191,3.5191,3.5191,3.5204,3.5204,3.5191,3.5204,3.5205,3.5192,3.5191,3.5191,3.5191,3.5191,3.5191,3.5191,3.5191,0.0,0.0,0.0,0.0,0.0,0.0,0.0,0.0,0.0,0.0,0.0,0.0,0.0,0.0,0.0,0.0,0.0,0.0,0.0,0.0,0.12,0.3882,0.6578,0.0,1.293,1.4706,1.6376,0.0,0.0,0.0,2.5029,2.5902,2.816,3.1391,2.9048,2.6921,2.5016,0.0,0.0,0.0,0.0,0.0,0.0,0.0,0.0,0.0,0.0,0.0,0.0,0.0,0.0,0.0,0.0,0.0,0.0,0.0,0.0,0.0,0.0,2.7947,0.0,3.3547,3.7023,4.0413,0.0,0.0,4.0188,3.9035,3.8785,3.8788,3.8786,3.9729,4.0491,4.0491,3.9537,3.8981,3.9567,3.9801,3.9859,3.9669,3.964,3.9383,3.8809,3.87,3.8183,3.7026,3.6504,3.6434,3.6881,3.588,3.5293,3.5297,3.5231,3.5205,3.5204,3.5199,3.5199,3.5204,3.5199,3.5199,3.5191,3.5191,3.5191,3.5191,3.5204,3.5191,3.5191,3.5204,3.5191,3.5191,3.5191,3.5191,3.5191,3.5191,3.5191,3.5191,0.0,0.0,0.0,0.0,0.0,0.0,0.0,0.0,0.0,0.0,0.0,0.0,0.0,0.0,0.0,0.0,0.0,0.0,0.0,0.0,0.1194,0.3884,0.6566,0.9527,1.2799,1.386,1.5571,0.0,0.0,2.0972,2.3723,2.4975,2.6637,2.8524,2.7679,2.7008,2.6336,2.3562,0.0,0.0,0.0,0.0,0.0,0.0,0.0,0.0,0.0,0.0,0.0,0.0,0.0,0.0,0.0,0.0,0.0,0.0,0.0,0.0,0.0,0.0,2.8291,3.0573,3.3565,3.6341,3.7847,3.9392,4.0161,3.8959,3.8702,3.8706,3.8699,3.9043,3.9338,3.9341,3.8981,3.8789,3.8993,3.9082,3.9108,3.9037,3.9022,3.8799,3.8183,3.7767,3.7284,3.6682,3.6185,3.5882,3.5805,3.5431,3.5192,3.5196,3.52,3.5199,3.5203,3.5198,3.4809,3.4044,3.484,3.5206,3.5203,3.5196,3.5196,3.5203,3.521,3.5201,3.5191,3.5191,3.5202,3.5199,3.5203,3.5202,3.5199,3.5203,3.5191,3.5191,0.0,0.0,0.0,0.0,0.0,0.0,0.0,0.0,0.0,0.0,0.0,0.0,0.0,0.0,0.0,0.0,0.0,0.0,0.0,0.1688,0.3081,0.3961,0.663,0.9356,1.2045,1.3001,1.4721,0.0,0.0,0.0,0.0,2.4244,2.5718,2.7084,2.6483,2.6744,0.0,0.0,0.0,2.3376,0.0,0.0,2.1854,0.0,0.0,0.0,0.0,0.0,0.0,0.0,0.0,0.0,0.0,0.0,0.0,0.0,0.0,0.0,1.9867,0.0,0.0,0.0,2.9617,3.2366,3.51,3.6971,3.811,3.8095,3.8426,3.858,3.8178,3.8105,3.8091,3.8091,3.8442,3.8696,3.8702,3.8343,3.8169,3.8375,3.8406,3.8151,3.7561,3.7035,3.6578,3.6219,3.5831,3.5418,3.5018,3.4926,3.4805,3.4607,3.46,3.46,3.4607,3.4602,3.419,3.3407,3.4222,3.4818,3.5189,3.4782,3.46,3.4594,3.4601,3.4842,3.5202,3.5203,3.5201,3.5156,3.4755,3.4833,3.5195,3.5202,3.5191,3.5191,0.0,0.0,0.0,0.0,0.0,0.0,0.0,0.0,0.0,0.0,0.0,0.0,0.0,0.0,0.0,0.0,0.0,0.0,0.0,0.5026,0.6836,0.4231,0.6804,0.9058,1.0673,1.2218,1.3968,1.5911,0.0,0.0,0.0,0.0,2.5606,2.7495,2.5835,2.6215,2.8095,0.0,2.7366,2.6169,0.0,2.3068,2.3429,0.0,0.0,0.0,2.3264,2.2445,0.0,0.0,0.0,0.0,0.0,0.0,0.0,0.0,0.0,0.0,0.0,0.0,0.0,0.0,2.5616,2.9189,3.241,3.3243,3.4012,3.6313,3.7784,3.8277,3.7068,3.6852,3.6852,3.686,3.7835,3.8598,3.8596,3.7613,3.709,3.7663,3.7724,3.7495,3.6923,3.6582,3.6151,3.5605,3.5338,3.5017,3.4606,3.4378,3.4012,3.3419,3.3406,3.3393,3.3393,3.3401,3.3401,3.3393,3.3401,3.4016,3.5109,3.3922,3.3406,3.3393,3.3406,3.4068,3.5155,3.5189,3.52,3.5077,3.3875,3.4137,3.5195,3.5189,3.5204,3.5191,0.0,0.0,0.0,0.0,0.0,0.0,0.0,0.0,0.0,0.0,0.0,0.0,0.0,0.0,0.0,0.0,0.0,0.0,0.0,0.502,0.7672,0.6927,0.7795,0.9097,1.081,1.25,1.4342,1.6327,1.8159,1.9659,2.0824,2.1919,2.3175,0.0,2.4926,2.5417,2.5841,2.4147,0.0,0.0,2.3189,2.3309,0.0,0.0,0.0,0.0,0.0,2.4137,0.0,0.0,2.2846,2.2056,0.0,0.0,0.0,0.0,0.0,0.0,2.0789,0.0,0.0,0.0,0.0,0.0,2.7797,2.9698,3.2591,3.406,3.5975,3.7032,3.5885,3.5671,3.5669,3.5658,3.5947,3.6168,3.6165,3.6591,3.6662,3.5998,3.5918,3.603,3.6302,3.6247,3.5829,3.4938,3.4801,3.4572,3.411,3.3803,3.3571,3.3413,3.3393,3.3401,3.3401,3.3397,3.3397,3.3401,3.3407,3.3572,3.3884,3.355,3.3397,3.3401,3.341,3.3594,3.3969,3.4831,3.5192,3.5089,3.3873,3.4133,3.5196,3.5208,3.5201,3.5191,0.0,0.0,0.0,0.0,0.0,0.0,0.0,0.0,0.0,0.0,0.0,0.0,0.0,0.0,0.0,0.409,0.4086,0.3456,0.1972,0.5878,0.8216,0.8129,0.8292,0.8855,0.988,1.2214,1.4095,1.5506,1.767,1.9125,1.9872,2.0663,2.1443,0.0,0.0,0.0,0.0,0.0,0.0,0.0,2.4244,0.0,0.0,2.6039,2.6369,0.0,0.0,0.0,2.6547,2.5354,2.4311,0.0,0.0,0.0,0.0,0.0,0.0,0.0,0.0,0.0,0.0,0.0,0.0,0.0,2.3917,2.6431,2.9257,2.8448,3.2088,3.5241,3.4557,3.4858,3.5045,3.4525,3.4452,3.4631,3.5123,3.5765,3.5938,3.5285,3.5205,3.535,3.5691,3.5711,3.5377,3.4537,3.4399,3.4156,3.3708,3.3507,3.3393,3.3402,3.3393,3.3401,3.3401,3.3401,3.3401,3.3401,3.3398,3.341,3.3401,3.3411,3.3397,3.3402,3.3399,3.3402,3.344,3.4162,3.4445,3.4382,3.3675,3.383,3.4511,3.5006,3.5208,3.5211,0.0,0.0,0.0,0.0,0.0,0.0267,0.1068,0.0512,0.0,0.0,0.0,0.0,0.0,0.0,0.0,0.0,0.9657,0.8457,0.5297,0.7312,0.8555,0.8377,0.8479,0.8553,0.8573,1.1715,1.3634,1.4156,1.7141,1.8886,1.9455,1.9958,2.0372,2.0705,0.0,0.0,0.0,0.0,0.0,2.5069,2.5875,2.6767,0.0,0.0,2.9301,0.0,2.9644,2.9421,2.8863,2.6901,2.5262,0.0,0.0,0.0,0.0,0.0,1.996,0.0,0.0,0.0,0.0,0.0,0.0,0.0,2.0945,2.3647,2.5334,2.2306,2.7632,3.2857,3.299,3.3999,3.45,3.3554,3.3407,3.3778,3.4851,3.5002,3.4999,3.5009,3.5002,3.4995,3.4995,3.4993,3.4785,3.4243,3.4027,3.3784,3.3427,3.3401,3.3401,3.3401,3.3401,3.3401,3.3401,3.3401,3.3401,3.3401,3.3401,3.3401,3.3401,3.3401,3.3401,3.3401,3.3401,3.3401,3.3401,3.3401,3.3397,3.3396,3.3403,3.3402,3.3539,3.46,3.5069,3.518,0.0,0.0,0.0,0.0,0.0,0.1946,0.7731,0.3712,0.0,0.0,0.0,0.0,0.0,0.0,0.0,0.0,0.8772,0.9506,0.8811,0.8816,0.8824,0.8784,0.8811,0.8899,0.9063,1.2161,1.4023,1.4497,1.7673,1.9401,1.9727,2.0044,2.0372,2.0705,0.0,0.0,0.0,0.0,0.0,2.4409,2.4805,0.0,2.9381,2.9392,2.9884,3.0553,3.0553,3.0377,2.9893,0.0,2.6797,2.5369,0.0,0.0,0.0,0.0,0.0,0.0,0.0,0.0,0.0,0.0,0.0,0.0,1.9942,2.2436,2.5029,2.531,2.7421,2.9484,3.0411,3.1571,3.2614,3.3294,3.3394,3.3471,3.3727,3.3742,3.3742,3.3743,3.3742,3.3754,3.3754,3.3749,3.3693,3.3578,3.3541,3.348,3.3401,3.3401,3.3401,3.3401,3.3401,3.3401,3.3401,3.3401,3.3401,3.3401,3.3401,3.3401,3.3401,3.3401,3.3401,3.3401,3.3401,3.3401,3.3401,3.3401,3.3403,3.3393,3.3396,3.3403,3.3423,3.365,3.4376,3.5063,0.0,0.0,0.0,0.0,0.2961,0.655,1.0154,0.7647,0.481,0.0,0.0,0.0,0.0,0.0,0.0,0.0,0.0,0.0,0.0,0.9458,0.9148,0.8912,0.9001,0.9056,0.9056,1.2244,1.4093,1.4503,1.7616,1.9372,1.98,1.9939,1.9939,1.9826,2.043,0.0,0.0,0.0,2.2899,2.4151,2.5886,0.0,2.9969,3.0568,3.1167,3.1699,3.1699,3.1313,3.0513,2.8585,2.7576,0.0,0.0,2.3428,2.3403,0.0,2.1927,2.2977,0.0,0.0,0.0,2.4641,0.0,0.0,0.0,2.329,2.3707,2.6682,2.6823,2.6585,2.7152,2.7292,2.8074,3.0431,3.0302,3.0415,3.1895,3.2611,3.3098,3.337,3.3391,3.339,3.3396,3.3391,3.34,3.34,3.3406,3.3397,3.3401,3.3409,3.3397,3.3401,3.3409,3.3401,3.3401,3.3401,3.3401,3.3401,3.3401,3.3401,3.3401,3.3401,3.3401,3.3401,3.3401,3.3401,3.3401,3.3401,3.3401,3.3401,3.3401,3.3411,3.3411,3.3405,3.3778,3.4228,0.0225,0.0,0.0433,0.1818,0.685,1.0697,1.07,1.0697,0.9925,0.0,0.0,0.0,0.0,0.0,0.0,0.0,0.0,0.0,0.0,0.0,0.9421,0.9014,0.9225,0.9233,0.8967,1.2324,1.4184,1.4435,1.7599,1.939,1.988,1.9947,1.9739,1.935,2.0264,0.0,0.0,0.0,0.0,2.3566,0.0,2.874,2.9764,3.1556,3.2313,3.2447,3.2621,3.2128,3.1064,2.9036,0.0,2.7774,2.4111,2.3948,0.0,0.0,0.0,0.0,0.0,0.0,0.0,0.0,0.0,2.2115,0.0,0.0,0.0,2.6034,2.6007,2.4984,2.3941,2.2917,2.3242,2.6326,2.6585,2.7277,2.9769,3.1324,3.2407,3.2994,3.3278,3.3402,3.3401,3.3397,3.3399,3.34,3.3397,3.3399,3.3403,3.3189,3.3178,3.3392,3.3407,3.3401,3.3401,3.3401,3.3401,3.3401,3.3401,3.3401,3.3401,3.3401,3.3401,3.3401,3.3401,3.3401,3.3401,3.3401,3.3401,3.3401,3.3401,3.3396,3.3395,3.339,3.3401,3.3398,0.104,0.0,0.0,0.8376,1.0159,1.0707,1.07,1.0703,1.0962,0.0,0.0,0.0,0.0,0.0,0.0,0.0,0.0,0.0,1.098,0.0,0.0,0.9355,0.9704,0.9678,0.9172,1.2798,1.4663,1.4583,1.8257,2.009,2.0157,2.0462,2.0689,2.0836,2.0627,0.0,0.0,0.0,2.1227,0.0,2.5227,2.736,0.0,3.162,3.2343,3.19,3.2677,3.2544,3.187,0.0,3.0041,2.8972,0.0,2.7248,0.0,0.0,0.0,0.0,0.0,0.0,0.0,0.0,2.1502,0.0,0.0,0.0,2.1252,2.1796,0.0,2.6343,2.1576,0.0,0.0,2.1679,2.4431,2.6695,2.7578,2.945,3.1029,3.18,3.2782,3.3394,3.3396,3.3405,3.3395,3.3409,3.3411,3.3401,3.3394,3.2446,3.2358,3.3373,3.34,3.3401,3.3401,3.3401,3.3401,3.3401,3.3401,3.3401,3.3401,3.3401,3.3401,3.3401,3.3401,3.3401,3.3401,3.3401,3.3401,3.3401,3.3401,3.3402,3.3406,3.3407,3.3391,3.3396,0.0,0.0,0.0,0.0,0.899,0.8322,1.0393,1.1162,1.1653,0.0,0.0,0.0,0.0,0.0,0.0,0.0,0.0,1.0845,0.0,0.0,0.0,0.9759,1.0017,1.001,0.9672,1.323,1.5056,1.5004,1.8488,2.0298,2.0494,2.063,2.0663,2.0594,2.0779,0.0,1.8658,0.0,0.0,0.0,0.0,0.0,0.0,3.05,3.1472,3.2732,3.3093,3.3072,3.2579,0.0,2.9716,0.0,0.0,0.0,0.0,0.0,0.0,0.0,0.0,0.0,0.0,0.0,0.0,0.0,2.1098,0.0,2.1353,0.0,0.0,0.0,0.0,0.0,0.0,0.0,2.368,2.5027,2.6262,2.7195,2.8486,3.0422,3.1695,3.1872,3.0509,3.2202,3.226,2.9539,3.1853,3.3107,3.2457,3.2592,3.2904,3.3383,3.3397,3.3404,3.3405,3.339,3.3396,3.3398,3.3409,3.3401,3.3401,3.3401,3.3401,3.3401,3.3401,3.3401,3.3401,3.3401,3.3401,3.3401,3.3401,3.3394,3.3403,3.3395,3.3407,3.3404,0.0,0.0,0.0,0.0,0.792,0.7733,1.036,1.1331,0.0,0.0,0.0,0.0,1.3088,1.2833,0.0,0.0,0.0,1.1662,0.0,0.0,1.0473,0.9966,1.024,0.0,0.0,1.3482,1.5348,1.5293,1.8672,2.046,2.0705,2.0705,2.0609,2.0471,0.0,2.0353,1.9328,0.0,0.0,2.5244,2.72,2.9654,3.1954,2.9993,3.098,3.3401,3.3401,3.3402,3.3102,3.11,3.0221,0.0,2.6682,0.0,0.0,0.0,0.0,0.0,2.8203,0.0,0.0,0.0,0.0,0.0,0.0,0.0,0.0,0.0,0.0,0.0,0.0,0.0,0.0,0.0,0.0,2.3769,2.4706,2.4942,2.6108,2.9084,2.9348,2.9005,2.827,3.1352,3.1988,2.8573,3.0584,3.188,3.1717,3.248,3.3076,3.3398,3.311,3.3085,3.3396,3.3252,3.325,3.3397,3.3406,3.3401,3.3401,3.3401,3.3401,3.3401,3.3401,3.3401,3.3401,3.3401,3.3401,3.3401,3.3401,3.3396,3.3392,3.3392,3.3392,3.3406,0.0,0.719,0.0,0.0,0.0,0.0,1.0855,0.0,0.0,0.0,0.0,0.0,0.0,0.0,0.0,0.0,0.0,1.2328,1.244,0.0,1.0769,0.0,0.0,0.0,0.0,0.0,1.5429,1.5293,1.8924,2.0691,2.0705,2.0705,2.0823,2.1072,2.1091,2.2628,2.5497,2.962,3.1047,3.0103,2.5135,2.7236,3.309,0.0,3.1333,3.3401,3.3401,0.0,0.0,3.33,3.2536,0.0,0.0,0.0,0.0,0.0,0.0,0.0,0.0,0.0,0.0,2.4217,0.0,0.0,0.0,0.0,2.3473,0.0,0.0,0.0,0.0,0.0,0.0,0.0,0.0,0.0,0.0,2.2745,2.4301,2.7834,2.5251,2.4505,2.7872,3.1342,3.3345,3.3188,3.0194,2.9333,3.1576,3.174,3.2261,3.3369,3.2338,3.2275,3.3384,3.2888,3.2886,3.3397,3.3406,3.3401,3.3401,3.3401,3.3401,3.3401,3.3401,3.3401,3.3401,3.3401,3.3401,3.3401,3.3401,3.3401,3.3402,3.3402,3.3402,3.3402,0.0,0.0,0.0,0.0,0.0,0.0,0.0,1.1488,0.0,0.0,0.0,0.0,0.0,0.0,1.4656,0.0,0.0,1.3471,1.3119,1.2362,0.0,0.0,0.0,1.1104,0.0,0.0,0.0,0.0,1.9226,2.0962,2.0962,2.0962,2.113,2.1462,2.2312,2.3955,0.0,0.0,0.0,0.0,0.0,3.1261,3.3306,0.0,3.271,3.3408,3.3408,3.3394,0.0,3.34,3.2912,3.2126,3.1112,3.0104,2.9136,2.8251,2.834,2.8767,0.0,0.0,2.843,2.634,0.0,0.0,0.0,0.0,0.0,0.0,0.0,0.0,0.0,0.0,0.0,0.0,0.0,0.0,0.0,2.0969,2.1037,2.2224,2.4765,0.0,2.8073,2.9266,2.9963,2.9955,2.8878,2.8558,2.9335,3.0093,3.1056,3.2245,3.1891,3.189,3.2273,3.2095,3.2302,3.2865,3.2965,3.3045,3.3146,3.3146,3.3227,3.3401,3.3401,3.3401,3.3401,3.3401,3.3401,3.3401,3.3401,3.3401,3.3401,3.3401,3.3401,3.3401,1.0185,0.0,0.0,0.0,0.0,0.0,0.0,0.0,0.0,0.0,1.4154,0.0,1.5746,0.0,1.5628,0.0,1.5187,1.4543,1.3599,1.3214,0.0,1.2125,1.1979,0.0,0.0,0.0,0.0,0.0,0.0,2.1309,2.1101,2.1101,2.1224,2.148,2.2727,2.4323,2.6284,0.0,3.132,0.0,0.0,3.3394,0.0,0.0,3.3776,3.3356,0.0,3.2809,3.28,3.28,3.2574,3.2216,3.1815,3.0988,2.9982,2.9069,2.8946,2.9111,2.9183,2.9349,0.0,2.7639,2.6568,0.0,2.3869,0.0,0.0,0.0,0.0,0.0,0.0,0.0,0.0,0.0,0.0,0.0,0.0,2.0123,1.9545,1.9961,2.4097,0.0,2.8123,2.6672,2.5674,2.568,2.6861,2.7559,2.7555,2.8667,3.0036,3.1647,3.1699,3.1698,3.1699,3.184,3.2047,3.2288,3.2595,3.2774,3.2863,3.2863,3.2999,3.3253,3.3253,3.3308,3.3401,3.3401,3.3401,3.3401,3.3401,3.3401,3.3401,3.3401,3.3401,3.3401,0.0,0.0,0.0,0.0,1.1004,0.0,0.0,0.0,1.3417,0.0,1.4681,1.5394,1.6253,1.6225,1.6204,1.6321,1.6198,0.0,1.4015,1.4175,0.0,0.0,1.2443,1.227,1.1653,0.0,0.0,0.0,0.0,2.1692,2.1133,2.1107,2.1101,2.1163,2.2418,0.0,2.5674,2.9041,3.0958,3.1834,3.2959,3.3402,3.3528,3.4678,3.44,3.3267,3.217,3.1786,3.1787,3.1725,3.1695,3.1701,3.1706,3.1663,3.1389,3.0247,2.9629,2.9282,2.9093,2.9484,2.9635,2.8248,2.8058,0.0,0.0,0.0,2.7203,0.0,0.0,0.0,0.0,0.0,0.0,0.0,0.0,0.0,0.0,0.0,1.9819,2.0958,2.3062,0.0,2.7708,2.3789,2.1077,2.1027,2.4133,2.6129,2.6301,2.7456,2.9161,3.1452,3.1647,3.17,3.1699,3.2077,3.2078,3.1701,3.2285,3.2554,3.2579,3.2579,3.2716,3.2984,3.2998,3.3146,3.3374,3.3388,3.3401,3.3401,3.3401,3.3401,3.3401,3.3401,3.3401,3.3401,1.0502,1.0815,1.106,0.0,1.1021,1.1308,0.0,0.0,0.0,0.0,1.5505,1.615,1.7026,1.6998,1.6896,1.6828,1.6564,0.0,0.0,0.0,0.0,1.406,1.3674,1.3947,1.4951,1.673,0.0,1.9465,0.0,0.0,2.1758,2.1309,2.1101,2.12,2.3245,2.441,2.5062,2.8572,3.0954,3.2433,3.312,3.3396,3.343,0.0,3.3682,3.3355,3.3061,3.2971,3.2827,3.1988,3.1708,3.1695,3.1695,3.1082,3.0305,2.9988,2.9827,2.9728,2.9685,3.0224,3.0778,3.0682,2.9423,2.8259,0.0,0.0,0.0,0.0,0.0,0.0,0.0,0.0,0.0,0.0,0.0,0.0,0.0,0.0,0.0,2.0953,0.0,2.2597,2.4112,2.2341,2.0746,1.9894,2.0675,2.2337,2.4927,2.6213,2.7552,2.9052,3.0786,3.1696,3.1699,3.1803,3.1808,3.1699,3.1851,3.2047,3.2223,3.2223,3.2396,3.2702,3.2904,3.3039,3.3119,3.332,3.3401,3.3401,3.3401,3.3401,3.3401,3.3401,3.3401,3.3401,1.066,0.0,0.0,1.166,0.0,0.0,1.2871,0.0,0.0,1.5306,1.5954,0.0,1.7027,1.7257,1.7345,1.7263,1.6979,0.0,0.0,0.0,0.0,1.4945,1.4588,1.5111,1.6646,1.7608,0.0,2.0534,0.0,0.0,2.1598,2.1269,2.1101,2.1195,2.3429,2.4578,2.5054,2.8738,3.1248,3.2796,3.3105,3.3299,0.0,3.3392,3.3409,3.3325,3.284,3.2972,3.3223,3.2075,3.1711,3.1708,3.169,3.1226,3.0691,3.0684,3.07,3.0626,3.0365,3.0818,3.1423,3.1631,3.07,2.9758,2.987,2.8917,2.778,0.0,2.7906,2.8612,0.0,0.0,0.0,0.0,0.0,0.0,0.0,0.0,0.0,0.0,2.2006,2.2298,2.1446,2.0764,2.0087,1.9456,1.9403,2.0466,2.2946,2.4216,2.5894,2.8129,3.074,3.1969,3.169,3.1874,3.1869,3.1699,3.1699,3.1781,3.1929,3.1929,3.2028,3.2224,3.2494,3.277,3.2999,3.316,3.3293,3.3401,3.3401,3.3401,3.3401,3.3401,3.3401,3.3401,0.0,0.0,0.0,0.0,0.0,0.0,0.0,1.4116,0.0,1.5658,0.0,1.6762,1.6885,1.7345,1.7643,1.7643,0.0,1.6998,1.645,1.6511,1.6212,1.5403,1.5326,1.6105,1.7836,1.839,0.0,0.0,0.0,0.0,2.1229,2.1141,2.1101,2.1195,2.3233,0.0,0.0,2.9216,3.1515,3.2837,3.2957,3.3159,3.3401,3.3401,3.3403,3.3272,3.2276,3.2463,3.303,3.2031,3.1711,3.1703,3.1702,3.1597,3.1498,3.1657,3.159,3.1378,3.1029,3.1299,3.1698,3.1709,3.1702,3.1384,3.0175,3.0307,3.026,2.874,2.8422,2.8413,0.0,0.0,0.0,0.0,0.0,0.0,0.0,0.0,0.0,0.0,0.0,0.0,2.0349,1.9671,1.9403,1.9402,1.9399,2.01,2.1706,2.235,2.4367,2.8086,3.0908,3.2214,3.1923,3.212,3.2089,3.1814,3.1738,3.1699,3.1699,3.1699,3.1702,3.1711,3.1982,3.2424,3.2944,3.2984,3.3159,3.3401,3.3401,3.3401,3.3401,3.3401,3.3401,3.3401,0.0,0.0,0.0,0.0,0.0,1.4205,1.4966,1.5374,1.5869,1.6652,1.7385,1.7866,1.8009,1.7914,1.7854,1.7854,1.7555,0.0,0.0,0.0,0.0,1.6294,1.5946,1.7397,2.0851,1.9624,2.0682,0.0,0.0,0.0,2.1825,2.1328,2.1101,2.1181,2.305,2.5288,2.775,2.9366,0.0,3.1981,3.2717,3.3159,3.3401,3.3401,3.3403,3.3372,3.3173,3.2623,3.1971,3.1776,3.1711,3.1698,3.1712,3.1017,3.0409,3.1421,3.0997,3.0411,3.1302,3.162,3.1698,3.1698,3.1704,3.1369,3.0186,2.998,2.9973,2.9671,2.9593,2.96,2.9604,0.0,0.0,0.0,0.0,0.0,0.0,0.0,0.0,0.0,0.0,2.2234,2.3558,2.1099,1.9397,1.9395,1.9397,2.1179,2.5248,2.2897,2.3503,2.8065,3.0106,3.1746,3.3079,3.2242,3.2031,3.245,3.194,3.1699,3.1699,3.1699,3.169,3.1721,3.1986,3.2329,3.2688,3.2904,3.3159,3.3401,3.3401,3.3401,3.3401,3.3401,3.3401,3.3401,0.0,0.0,0.0,0.0,0.0,0.0,0.0,1.657,0.0,1.6984,1.7371,1.7623,1.7623,1.7846,1.7976,1.7901,1.7656,1.7446,1.7304,1.7188,1.6958,1.6614,1.7585,0.0,2.2203,2.169,2.2662,2.5314,0.0,0.0,2.1783,2.1317,2.1101,2.1168,2.2671,2.5048,0.0,0.0,2.9962,3.1517,3.2423,3.2876,3.3024,3.3293,3.3315,3.3184,3.311,3.2732,3.2207,3.1829,3.1711,3.1698,3.1705,3.1304,3.095,3.1529,3.1292,3.0965,3.1549,3.17,3.17,3.17,3.1694,3.1557,3.0968,3.083,3.0657,3.0023,2.99,2.9725,2.9138,2.4683,0.0,0.0,0.0,0.0,0.0,0.0,0.0,0.0,0.0,0.0,0.0,0.0,2.0287,0.0,0.0,2.101,2.2683,2.1709,2.299,2.713,2.869,3.0433,3.2495,3.2284,3.2156,3.2131,3.1839,3.1699,3.1699,3.1699,3.1699,3.1701,3.1971,3.229,3.2621,3.3039,3.328,3.3401,3.3401,3.3401,3.3401,3.3401,3.3401,3.3401,0.0,1.3475,0.0,0.0,1.5203,0.0,1.6648,1.746,1.7826,1.7378,1.7405,1.7446,1.7398,1.784,1.8105,1.7996,1.7792,1.7602,1.7453,1.7324,1.7107,1.6817,1.8508,2.0546,2.2879,2.3018,2.3846,0.0,0.0,0.0,2.1497,2.1216,2.1168,2.1349,2.2609,2.4731,0.0,0.0,2.947,3.1279,3.2142,3.2581,3.2716,3.3092,3.3132,3.2983,3.2825,3.2754,3.2665,3.204,3.1771,3.1708,3.1694,3.1692,3.1702,3.1698,3.1696,3.1695,3.1709,3.1692,3.1639,3.1378,3.1511,3.1638,3.138,3.1326,3.1053,3.0099,2.99,2.9541,2.8418,2.5138,0.0,0.0,0.0,0.0,0.0,0.0,0.0,0.0,0.0,0.0,2.2094,2.1523,2.1104,2.1098,2.0878,2.0452,1.9798,2.0606,2.2501,2.5556,2.7302,2.9329,3.1678,3.2177,3.2226,3.1889,3.1763,3.1699,3.1699,3.1699,3.1751,3.183,3.1968,3.2235,3.2634,3.3186,3.3401,3.3401,3.3401,3.3401,3.3401,3.3401,3.3401,3.3401,0.0,0.0,0.0,0.0,0.0,0.0,1.6924,1.7704,1.8287,1.8347,1.8375,1.8449,1.8614,1.8423,1.8287,1.8259,1.8016,1.7786,1.7588,1.746,1.7311,1.7161,1.7071,1.9015,2.3249,2.1961,2.2648,0.0,0.0,2.2508,0.0,2.1107,2.139,2.1981,2.342,2.4846,0.0,2.8139,2.9811,3.1253,3.1891,3.2477,3.2944,3.2742,3.2809,3.2971,3.2713,3.2618,3.2578,3.232,3.2001,3.1699,3.1696,3.1698,3.1693,3.1693,3.1697,3.1696,3.1705,3.1696,3.1437,3.0346,3.0887,3.1416,3.0315,3.006,3.0049,2.9922,2.9897,2.9547,2.842,2.7837,2.6192,0.0,0.0,0.0,0.0,0.0,0.0,0.0,0.0,0.0,0.0,2.0562,2.1099,2.1099,2.0148,1.9954,2.0887,2.1035,2.1746,2.3174,2.646,2.934,3.1674,3.176,3.2038,3.2514,3.1953,3.1699,3.1699,3.1699,3.1907,3.222,3.1883,3.2072,3.2634,3.3186,3.3401,3.3401,3.3401,3.3401,3.3401,3.3401,3.3401,3.3401,0.0,0.0,0.0,0.0,0.0,0.0,0.0,1.8144,1.8483,1.8654,1.8674,1.8654,1.862,1.8497,1.8395,1.8307,1.8124,1.7948,1.7792,1.7541,1.7338,1.7215,2.0004,2.223,2.3665,2.5633,2.6798,0.0,0.0,0.0,0.0,2.1268,2.1743,2.2939,2.352,2.4898,2.6867,2.8203,2.9608,3.1037,3.2008,3.2341,3.2261,3.25,3.2542,3.2477,3.2567,3.2523,3.2399,3.223,3.1965,3.1699,3.1699,3.1447,3.1156,3.1156,3.0904,3.0615,3.0628,3.061,3.0683,3.0912,3.1351,3.1375,3.0176,2.9898,2.9905,2.9905,2.9358,2.8732,2.8281,2.8206,2.7582,2.5675,0.0,0.0,0.0,0.0,0.0,0.0,0.0,0.0,0.0,0.0,0.0,0.0,0.0,0.0,0.0,2.0738,2.1973,2.3857,2.5299,2.752,3.0583,3.1336,3.1818,3.2055,3.1814,3.1699,3.1712,3.1959,3.2306,3.2711,3.2542,3.2717,3.3092,3.332,3.3401,3.3401,3.3401,3.3401,3.3401,3.3401,3.3401,3.3401,1.5829,0.0,1.6131,0.0,1.7142,1.7467,1.8321,1.8483,1.8571,1.8771,1.8806,1.8756,1.8659,1.8605,1.8571,1.8511,1.8287,1.8125,1.8016,1.7717,1.7467,1.727,2.1444,0.0,2.4157,2.7712,2.9165,2.8344,2.6874,0.0,0.0,2.1475,2.2018,2.3675,2.4138,2.5491,2.7489,2.8641,2.9913,3.1261,3.2102,3.2261,3.1993,3.2246,3.2235,3.2131,3.2381,3.243,3.2359,3.2167,3.1971,3.1808,3.1714,3.1422,3.1033,3.0847,3.05,3.0191,3.0384,3.0423,3.0636,3.149,3.1705,3.138,3.018,2.9901,2.9911,2.9898,2.9,2.82,2.8196,2.8203,2.8191,2.8199,0.0,0.0,0.0,0.0,0.0,0.0,2.2849,2.0598,2.0593,1.9869,0.0,0.0,0.0,0.0,0.0,0.0,2.1862,2.3523,2.4233,2.6315,2.9866,3.1092,3.1707,3.1699,3.1699,3.1699,3.1726,3.2186,3.2562,3.2891,3.3039,3.3186,3.3293,3.3374,3.3401,3.3326,3.251,3.2699,3.3301,3.2485,3.2711,3.3401,1.6369,1.6754,1.7208,1.7948,1.8199,1.8395,1.8737,1.8634,1.8571,1.8771,1.8806,1.8845,1.8972,1.8879,1.8845,1.8972,1.8565,1.8307,1.8307,1.8037,1.7752,0.0,0.0,2.2428,2.4734,2.6657,2.7984,2.8687,0.0,0.0,2.2864,0.0,2.2138,2.4065,2.5658,2.6861,2.7802,2.9615,3.1045,3.2091,3.2104,3.2302,3.2527,3.194,3.1862,3.2104,3.2104,3.2316,3.2541,3.221,3.2104,3.2051,3.1781,3.1687,3.1561,3.0971,3.0797,3.0921,3.1523,3.1682,3.1674,3.1699,3.1694,3.1382,3.0173,2.9901,2.9902,2.9903,2.8989,2.82,2.8196,2.8196,2.8206,2.8195,0.0,0.0,0.0,0.0,0.0,0.0,2.0133,1.9421,1.9425,1.9401,0.0,0.0,0.0,0.0,0.0,0.0,0.0,2.114,2.3398,0.0,2.9866,3.1096,3.1692,3.1699,3.1699,3.1699,3.1726,3.2326,3.2594,3.2634,3.3172,3.324,3.3038,3.3293,3.3401,3.3125,3.0407,3.1012,3.3062,3.0356,3.1075,3.3401,1.7087,1.727,1.7528,1.7894,1.8233,1.8517,1.8757,1.8899,1.8972,1.8933,1.9021,1.9842,2.1853,2.1951,2.1064,0.0,2.0446,2.0531,0.0,1.792,1.7616,1.7419,2.1704,2.4309,2.4795,2.8743,3.0776,3.0754,0.0,0.0,0.0,2.5351,2.6683,2.8034,2.8558,2.9078,2.9601,3.0553,3.1288,3.1849,3.2288,3.2261,3.2007,3.2233,3.2222,3.2158,3.2571,3.2517,3.2289,3.2408,3.2181,3.1821,3.1739,3.1542,3.1319,3.1132,3.1046,3.1042,3.1234,3.1494,3.1697,3.1697,3.1708,3.1378,3.018,2.9901,2.9902,2.9889,2.9603,2.913,2.8341,2.8209,2.8193,2.8201,2.8194,0.0,2.8195,0.0,0.0,0.0,2.0783,2.0564,2.056,1.9866,0.0,0.0,0.0,0.0,0.0,0.0,0.0,0.0,2.54,0.0,2.9876,3.1094,3.1693,3.1699,3.1699,3.1913,3.2326,3.2514,3.2796,3.3146,3.3334,3.3348,3.328,3.3361,3.3401,3.3314,3.2435,3.1089,2.9852,3.1491,3.1454,3.0596,1.7568,1.7704,1.788,1.8193,1.8491,1.8727,1.8859,1.9021,1.9094,1.9006,1.9027,1.9748,2.1621,2.2709,0.0,2.0838,2.1098,2.0513,1.851,1.8008,1.7677,1.7406,2.2583,2.5318,2.4964,2.9945,0.0,3.2111,3.0632,2.8553,2.598,2.7486,2.8799,2.992,3.0378,3.0516,3.0486,3.1119,3.157,3.1876,3.2249,3.2182,3.1888,3.2154,3.2128,3.2009,3.2491,3.2424,3.2131,3.2342,3.2155,3.1822,3.1727,3.1555,3.1396,3.1396,3.1359,3.1324,3.1324,3.1518,3.1699,3.1699,3.17,3.1377,3.019,2.989,2.9904,2.9893,2.9907,2.9549,2.8402,2.8195,2.8198,2.8197,2.8192,2.8034,2.7591,0.0,2.2736,0.0,0.0,0.0,0.0,2.0462,2.0518,0.0,0.0,0.0,0.0,0.0,2.2262,2.481,2.7463,2.9392,3.0557,3.1318,3.1692,3.1699,3.1843,3.2163,3.2594,3.2594,3.2891,3.3388,3.3293,3.3307,3.3401,3.3401,3.3401,3.3301,3.2259,3.1089,3.0114,3.1391,3.076,2.9293,1.7854,1.8017,1.8247,1.8703,1.8899,1.9007,1.9006,1.9021,1.9027,1.9021,1.89,1.8939,1.9259,2.1516,2.3212,2.372,0.0,0.0,1.8497,1.8233,1.7977,1.7736,2.2774,2.5578,2.5515,3.0439,3.2928,3.2713,3.0915,2.9457,2.8377,2.8343,2.8939,3.0068,3.1206,3.1281,3.0634,3.1379,3.1839,3.208,3.208,3.2067,3.2051,3.1848,3.1754,3.1806,3.205,3.2131,3.2131,3.2104,3.2091,3.2024,3.1781,3.1699,3.1699,3.1699,3.1674,3.166,3.1687,3.1674,3.166,3.1687,3.17,3.1372,3.0181,2.9895,2.9917,3.0007,2.9969,2.9573,2.8505,2.825,2.8191,2.8201,2.814,2.7647,2.6443,2.3216,2.1013,0.0,0.0,0.0,2.1219,2.1272,2.1761,0.0,0.0,0.0,0.0,2.2125,2.354,2.8067,2.9307,3.048,3.1685,3.1701,3.1695,3.1704,3.2069,3.2376,3.2609,3.2595,3.2878,3.3388,3.3119,3.3146,3.3401,3.3401,3.3401,3.315,3.0584,3.1151,3.3087,3.0533,2.9344,2.9014,1.8016,0.0,1.8199,1.8517,1.8816,1.9027,1.9143,1.9242,1.9276,1.9169,1.9041,1.9803,2.2041,2.0932,2.094,2.3216,2.2503,2.0872,1.8354,1.8037,1.8824,2.0824,2.3923,2.6578,2.8676,3.1731,3.2857,3.1971,3.1501,3.09,3.0163,2.9709,3.013,3.1293,3.1578,3.1594,3.1436,3.1617,3.1747,3.1788,3.1788,3.1788,3.1834,3.2246,3.2393,3.2393,3.246,3.2475,3.2448,3.2197,3.1969,3.1781,3.1714,3.1699,3.1699,3.1699,3.1528,3.1371,3.1634,3.1515,3.1383,3.1634,3.17,3.1373,3.0177,2.9893,3.0155,3.1083,3.0545,2.9822,2.955,2.8792,2.8196,2.8198,2.7429,2.6396,2.5197,2.2015,2.0134,0.0,2.0864,2.1512,2.3571,2.2979,2.3348,0.0,0.0,2.2811,2.6737,2.5808,2.6089,2.8137,2.9309,3.0485,3.1682,3.1705,3.1692,3.1707,3.1803,3.2167,3.2742,3.2491,3.2754,3.3388,3.3119,3.3146,3.3401,3.3401,3.3401,3.3339,3.2686,3.2837,3.3326,3.2674,2.9775,2.6176,1.8232,1.8287,1.8375,1.8673,1.8978,1.9188,1.9203,1.931,1.9349,1.9217,1.9081,1.9604,2.1163,1.9884,1.95,2.0978,2.1063,2.0214,1.8312,1.8071,1.9191,2.1872,2.4461,2.7068,2.9744,3.2327,3.3124,3.2109,3.168,3.1382,3.1201,3.0884,3.1068,3.1707,3.1988,3.2243,3.245,3.2219,3.1945,3.1702,3.1703,3.1702,3.1739,3.206,3.2297,3.2455,3.2393,3.2369,3.2342,3.2158,3.1916,3.1699,3.1699,3.1699,3.1699,3.1699,3.1568,3.1436,3.1463,3.1331,3.1274,3.1626,3.17,3.1532,3.0867,3.0723,3.0746,3.086,3.0357,2.9741,2.9212,2.8615,2.8192,2.8205,2.6713,2.4967,2.3244,2.0925,2.0222,2.2446,2.2706,2.3629,2.6004,2.5194,2.4352,2.4001,2.3696,0.0,2.7242,2.728,2.7763,2.8938,3.0117,3.1044,3.1686,3.1698,3.1963,3.2489,3.2488,3.2552,3.2711,3.2776,3.2844,3.29,3.2902,3.3029,3.3227,3.3348,3.3401,3.3401,3.3401,3.3401,3.3401,3.3401,2.9927,2.5202,1.8449,1.8523,1.8639,1.8953,1.9222,1.9363,1.9257,1.933,1.9364,1.9257,1.9094,1.9007,1.9007,1.8879,1.8722,1.8557,1.8709,1.8648,1.8287,1.8145,1.9451,2.2536,2.4823,2.7411,3.0419,3.2685,3.3439,3.2661,3.1864,3.1608,3.1842,3.1793,3.1822,3.1895,3.2469,3.296,3.3364,3.2921,3.2333,3.1706,3.1706,3.1704,3.1699,3.1699,3.191,3.2214,3.219,3.219,3.2202,3.2158,3.1971,3.1767,3.1819,3.1794,3.1754,3.1754,3.1727,3.1634,3.1344,3.1278,3.1338,3.1623,3.1707,3.1707,3.1707,3.1697,3.1411,3.0375,3.0038,2.9545,2.8411,2.8202,2.8195,2.8199,2.588,2.338,2.1377,0.0,2.0884,2.4212,2.4913,2.5946,2.8001,2.7278,2.5429,2.24,2.4798,2.649,2.6666,2.7641,2.8802,3.013,3.1159,3.1695,3.1702,3.1871,3.2444,3.3403,3.3404,3.3152,3.2727,3.3199,3.3062,3.2466,3.2585,3.2798,3.3065,3.3267,3.3361,3.3401,3.3401,3.3401,3.3401,3.3401,2.9927,2.5266,1.8469,1.864,1.8811,1.8973,1.9222,1.9382,1.9363,1.9383,1.9382,1.9363,1.9154,1.9007,1.9007,1.8879,1.8785,1.8757,1.8771,1.8614,1.8158,1.8017,2.029,2.5574,2.5715,2.8164,3.3484,3.3519,3.3293,3.2931,3.2785,3.2634,3.2454,3.2295,3.2358,3.2645,3.309,3.3314,3.3391,3.33,3.2668,3.1703,3.1707,3.1697,3.1699,3.1699,3.1742,3.1861,3.2348,3.2591,3.2644,3.2361,3.2168,3.209,3.2368,3.2274,3.205,3.205,3.1888,3.1699,3.1634,3.162,3.1632,3.1693,3.1705,3.1705,3.1705,3.1709,3.1646,3.147,3.0612,2.9543,2.8411,2.8195,2.8191,2.8195,2.4516,2.1519,2.1149,0.0,2.1761,2.4305,2.6392,2.7789,2.8159,2.8035,2.7681,2.7139,2.6658,2.684,2.7872,2.8101,2.9189,3.1348,3.1606,3.1692,3.1703,3.2656,3.3226,3.3405,3.3401,3.3359,3.3284,3.3355,3.3332,3.3182,3.2268,3.2433,3.3321,3.3146,3.3199,3.3401,3.3401,3.3401,3.3401,3.3401,2.9927,2.5535,1.8742,1.8905,1.9062,1.9188,1.9413,1.9556,1.9556,1.9556,1.9522,1.9402,1.929,1.9169,1.9072,1.8962,1.8879,1.8806,1.8709,1.8511,1.8233,1.8145,1.9935,2.4001,2.5397,2.8668,3.4181,3.3574,3.3119,3.2998,3.2863,3.2728,3.2594,3.2643,3.2723,3.281,3.3217,3.3402,3.3401,3.3402,3.3097,3.2555,3.1943,3.1701,3.1702,3.1705,3.1701,3.1746,3.2027,3.2548,3.3068,3.2609,3.2412,3.2381,3.2415,3.2333,3.2165,3.1945,3.1675,3.1411,3.1388,3.1376,3.1352,3.1245,3.1461,3.1708,3.1702,3.17,3.1519,3.0859,3.0293,2.9744,2.9209,2.8604,2.7982,2.7339,2.3776,2.1096,2.11,2.1104,2.245,2.6108,2.7511,2.819,2.8201,2.8199,2.8197,2.8208,2.7681,2.7607,2.8178,2.8789,2.9904,3.1654,3.1697,3.1996,3.2609,3.3138,3.3403,3.3402,3.3397,3.3401,3.3401,3.3406,3.3401,3.3374,3.2841,3.2567,3.2523,3.2999,3.3293,3.3401,3.3401,3.3401,3.3401,3.3401,2.9927,2.5586,1.8973,1.9109,1.9242,1.9378,1.9571,1.971,1.971,1.971,1.9639,1.9486,1.9398,1.9291,1.9134,1.9016,1.8913,1.8811,1.862,1.8434,1.8306,1.8273,1.9434,2.2077,2.5472,2.9484,3.4113,3.348,3.3092,3.3092,3.2248,3.1836,3.1836,3.2044,3.2085,3.2036,3.2982,3.3401,3.34,3.3394,3.3396,3.3295,3.2157,3.171,3.17,3.1702,3.1868,3.2092,3.2109,3.2672,3.3341,3.2914,3.2706,3.2588,3.2562,3.2469,3.2304,3.2005,3.1628,3.1306,3.1246,3.1234,3.1199,3.1056,3.1359,3.1706,3.1705,3.148,3.1097,3.0455,3.0098,2.9894,2.9901,2.8963,2.7802,2.6596,2.4345,2.2749,2.2751,2.2509,2.3782,2.773,2.8424,2.8603,2.8604,2.8359,2.8206,2.8206,2.8193,2.8314,2.8579,2.9694,3.0734,3.1669,3.1959,3.2526,3.3397,3.3403,3.34,3.3401,3.3401,3.3401,3.3401,3.3401,3.3407,3.3393,3.339,3.29,3.2157,3.2901,3.3297,3.3401,3.3405,3.2876,3.222,3.3078,2.9924,2.5676,1.8973,1.9109,1.9242,1.9378,1.9571,1.971,1.971,1.971,1.9695,1.9674,1.9415,1.9218,1.9183,1.8968,1.8811,1.8806,1.862,1.8434,1.8306,1.8179,1.9345,2.2077,2.7038,3.106,3.3871,3.3561,3.3361,3.3361,3.0799,2.9538,2.955,2.9562,2.9574,2.9675,3.2246,3.3401,3.34,3.3394,3.3396,3.3297,3.2162,3.1708,3.169,3.17,3.2359,3.3277,3.3277,3.3333,3.3395,3.335,3.2998,3.2674,3.3164,3.297,3.2567,3.2549,3.2115,3.166,3.166,3.166,3.1649,3.1649,3.1662,3.1699,3.1698,3.0844,3.032,3.1368,3.0675,2.9905,2.9896,2.8965,2.7798,2.6592,2.7126,2.7672,2.7688,2.6711,2.655,2.8027,2.9128,2.9765,2.9773,2.8818,2.8193,2.8197,2.8194,2.8659,2.9715,3.0908,3.1607,3.1698,3.2724,3.332,3.3409,3.3404,3.3399,3.3401,3.3401,3.3401,3.3401,3.3401,3.34,3.3399,3.3395,3.3347,3.3234,3.2832,3.2948,3.3389,3.3403,3.1313,2.8729,3.2137,2.9916,2.5958,1.9094,1.9237,1.9378,1.9556,1.9654,1.971,1.971,1.971,1.971,1.971,1.9481,1.9275,1.9142,1.9012,1.8844,1.8626,1.8537,1.8409,1.8199,1.8124,2.0114,2.468,2.641,2.9426,3.4059,3.3655,3.256,3.0861,2.98,2.8431,2.6789,2.8495,2.9293,2.942,3.2171,3.3401,3.34,3.3407,3.2992,3.2304,3.1871,3.212,3.2742,3.2755,3.3024,3.3412,3.3397,3.3399,3.3395,3.3409,3.3259,3.3139,3.3336,3.3267,3.2956,3.2256,3.2382,3.2598,3.1885,3.1702,3.1699,3.1699,3.1699,3.1695,3.1699,3.1344,3.0927,3.0639,3.023,2.9895,2.9895,2.9551,2.887,2.7712,2.7581,2.8021,2.9105,2.7615,2.711,2.9026,2.9644,2.9896,2.9896,2.9508,2.9254,2.926,2.9254,2.9762,3.0946,3.1456,3.2023,3.2728,3.3177,3.3395,3.3404,3.3398,3.3401,3.3401,3.3401,3.3401,3.3401,3.3401,3.3401,3.34,3.3394,3.3395,3.3375,3.318,3.3219,3.3403,3.3391,2.9772,2.4718,2.6119,2.6035,2.574,1.9115,1.9202,1.9344,1.9571,1.9605,1.9625,1.9695,1.971,1.971,1.971,1.9481,1.928,1.9142,1.8963,1.8748,1.8523,1.8415,1.8301,1.8111,1.8002,2.0097,2.4942,2.5439,2.7906,3.284,3.3253,3.2058,2.9293,2.8431,2.661,2.3955,2.5843,2.7185,2.8126,3.0886,3.2598,3.34,3.3395,3.2947,3.2239,3.2239,3.2704,3.3399,3.3399,3.3395,3.3409,3.3397,3.3401,3.34,3.3408,3.3409,3.3398,3.3404,3.3397,3.3246,3.2455,3.2789,3.3235,3.2458,3.2239,3.2161,3.1785,3.1702,3.1707,3.1699,3.17,3.147,3.0644,3.0479,3.0475,3.0474,3.0467,3.0218,2.9435,2.8636,2.8412,2.9241,2.8281,2.7963,2.9227,2.968,2.9911,2.9911,2.9903,3.0055,3.0438,3.047,3.0832,3.1657,3.1694,3.2225,3.3358,3.3396,3.3401,3.3401,3.3401,3.3401,3.3401,3.3401,3.3401,3.3401,3.3401,3.3401,3.3401,3.3401,3.3401,3.3401,3.3401,3.3391,3.3068,2.9595,2.519,2.0905,2.207,2.365,2.5586,1.8973,1.9007,1.9081,1.9349,1.9404,1.9466,1.9674,1.971,1.971,1.971,1.9415,1.9203,1.9203,1.8781,1.8503,1.8503,1.8253,1.8105,1.8105,1.7792,1.8975,2.2024,2.4347,2.6952,2.9901,3.2188,3.1995,2.9243,2.6495,2.3762,2.1064,2.109,2.2571,2.5317,2.8075,3.0823,3.34,3.3394,3.3397,3.3397,3.3397,3.3397,3.3399,3.3408,3.3401,3.3401,3.3401,3.3401,3.3399,3.3392,3.3399,3.3385,3.3392,3.3397,3.3402,3.3408,3.3398,3.3403,3.3404,3.3397,3.313,3.1995,3.1702,3.1696,3.1695,3.17,3.1699,3.1699,3.1692,3.1699,3.1702,3.17,3.171,3.169,3.0705,2.9525,2.839,2.9204,2.9476,2.8348,2.9213,2.9905,2.9905,2.9905,3.0409,3.1605,3.1702,3.1705,3.17,3.1711,3.2234,3.3359,3.3405,3.3401,3.3401,3.3401,3.3401,3.3401,3.3401,3.3401,3.3401,3.3401,3.3401,3.3401,3.3401,3.3401,3.3401,3.3401,3.3359,3.2188,2.125,1.7002,1.7445,2.1111,2.3625,2.5586,1.8973,1.9007,1.904,1.9237,1.9344,1.9417,1.9481,1.9605,1.9654,1.9507,1.9325,1.9169,1.9075,1.8713,1.8469,1.8375,1.8199,1.8064,1.7976,1.7874,1.817,1.8942,2.1288,2.4009,2.7057,2.7476,2.6293,2.3543,2.2726,2.0929,1.8275,2.0201,2.2571,2.5307,2.7884,3.0651,3.3374,3.3093,3.3144,3.3393,3.3393,3.3393,3.3407,3.3399,3.3401,3.3401,3.3401,3.3401,3.3399,3.3392,3.2864,3.2217,3.2202,3.2752,3.3402,3.3401,3.3397,3.3405,3.3401,3.3398,3.3331,3.2973,3.2286,3.1703,3.1702,3.1708,3.1698,3.1698,3.1702,3.169,3.1701,3.1704,3.1701,3.1702,3.1407,3.1048,3.0699,3.0461,3.0098,2.9471,3.0075,3.0701,3.1124,3.1158,3.1316,3.1671,3.1704,3.1704,3.1701,3.2458,3.305,3.3384,3.3405,3.3401,3.3401,3.3401,3.3401,3.3401,3.3401,3.3401,3.3401,3.3401,3.3401,3.3401,3.3401,3.3401,3.3401,3.3401,2.8846,2.1569,1.8277,1.7002,1.7133,1.8238,2.1418,2.5048,1.8899,1.8919,1.8953,1.9094,1.9188,1.9256,1.931,1.9413,1.9462,1.9344,1.9202,1.9096,1.9006,1.8645,1.8395,1.8307,1.8124,1.7996,1.7901,1.7786,1.767,1.7595,1.8877,2.1015,2.4024,2.4818,2.3852,2.1103,2.1053,1.9599,1.6916,1.8527,2.1298,2.4992,2.6487,2.9395,3.3151,3.2903,3.3034,3.3401,3.3401,3.3401,3.3401,3.3401,3.3397,3.339,3.339,3.3398,3.3401,3.3402,3.2638,3.1701,3.1697,3.2274,3.293,3.2758,3.3054,3.3401,3.34,3.3398,3.3399,3.3406,3.2881,3.2254,3.18,3.1705,3.1693,3.1694,3.1701,3.17,3.1689,3.207,3.2218,3.1768,3.1695,3.1697,3.1697,3.1287,3.0882,3.0643,3.0929,3.1296,3.1651,3.1695,3.1707,3.1707,3.1702,3.1697,3.17,3.2776,3.3406,3.3408,3.3399,3.3401,3.3401,3.3401,3.3401,3.3401,3.3401,3.3401,3.3401,3.3401,3.3401,3.3401,3.3401,3.3401,3.3401,3.3401,2.6919,1.6994,1.7001,1.6998,1.6994,1.7003,1.9793,2.3336,1.8806,1.8806,1.8845,1.8953,1.8987,1.9041,1.9169,1.9188,1.9183,1.9169,1.9062,1.8973,1.8938,1.8552,1.8273,1.8273,1.805,1.7888,1.7874,1.7589,1.7467,1.7561,1.7202,1.8237,2.0862,2.3249,2.3242,2.0735,2.0582,1.921,1.6696,1.6797,1.9583,2.4512,2.4717,2.7783,3.2784,3.2782,3.303,3.3399,3.3399,3.3399,3.3399,3.3399,3.34,3.3381,3.3281,3.3256,3.3256,3.3262,3.2566,3.1704,3.1698,3.1949,3.2158,3.1804,3.2445,3.3267,3.3306,3.3354,3.338,3.3264,3.326,3.2997,3.2077,3.1781,3.1728,3.1832,3.1843,3.1844,3.1858,3.2694,3.3064,3.2018,3.184,3.1812,3.1702,3.1706,3.1701,3.1704,3.1689,3.1701,3.1704,3.1704,3.1704,3.1704,3.1707,3.1704,3.1703,3.1854,3.2388,3.3369,3.3396,3.3401,3.3401,3.3401,3.3401,3.3401,3.3401,3.3401,3.3401,3.3401,3.3401,3.3401,3.3401,3.3401,3.3401,3.3403,2.7206,1.7679,1.7191,1.7001,1.6991,1.6991,1.8738,2.1103,1.8806,1.8806,1.8811,1.884,1.8934,1.9006,1.9041,1.9128,1.9115,1.8913,1.8859,1.8743,1.8483,1.8267,1.8145,1.8145,1.7996,1.7826,1.7677,1.7602,1.748,1.7284,1.7195,1.7398,1.7926,1.8499,1.849,1.7882,1.7699,1.7297,1.6748,1.8668,2.1319,2.4587,2.6429,2.9261,3.265,3.2644,3.2944,3.3392,3.3392,3.3392,3.3392,3.3392,3.3402,3.3281,3.2379,3.2068,3.2075,3.2064,3.1896,3.1698,3.1705,3.1754,3.1807,3.1742,3.1872,3.2161,3.2659,3.3068,3.3187,3.2283,3.2077,3.2234,3.2886,3.2341,3.1953,3.2846,3.3034,3.3019,3.3038,3.3237,3.3316,3.3063,3.303,3.2713,3.1824,3.1706,3.1696,3.1693,3.1702,3.1696,3.1706,3.1695,3.1695,3.1695,3.17,3.1701,3.17,2.4607,2.4511,3.3127,3.3396,3.3401,3.3401,3.3401,3.3401,3.3401,3.3401,3.3401,3.3401,3.3401,3.3401,3.3401,3.3401,3.3401,3.3402,3.3401,2.9451,2.2984,1.8683,1.6999,1.6991,1.6991,1.8738,2.1103,1.8806,1.8806,1.8806,1.8806,1.8859,1.8899,1.8899,1.8884,1.8815,1.8674,1.8654,1.8565,1.8321,1.8232,1.8145,1.8016,1.7942,1.7806,1.7609,1.7541,1.7412,1.7215,1.7141,1.7073,1.6998,1.6991,1.6991,1.6991,1.7975,1.8466,1.8522,2.094,2.3496,2.6128,2.7359,2.9479,3.2172,3.2171,3.2334,3.2649,3.3181,3.3392,3.3343,3.2797,3.2585,3.2516,3.1903,3.1689,3.1702,3.1702,3.17,3.1699,3.1699,3.1699,3.169,3.1693,3.1791,3.194,3.2121,3.259,3.2945,3.2597,3.25,3.2668,3.327,3.2932,3.2683,3.3282,3.34,3.3399,3.3398,3.339,3.3399,3.3398,3.3396,3.2999,3.1854,3.1703,3.1706,3.1705,3.2171,3.231,3.1752,3.1701,3.1921,3.2471,3.2506,3.2504,3.2511,2.264,2.2042,3.3056,3.3399,3.3401,3.3401,3.3401,3.3401,3.3401,3.3401,3.3401,3.3401,3.3401,3.3401,3.3401,3.3401,3.3401,3.3402,3.3404,2.8601,2.0999,1.8129,1.7,1.7162,1.8464,1.9871,2.1103,1.8806,1.8806,1.8806,1.8806,1.8806,1.8785,1.8757,1.8605,1.8482,1.8449,1.8435,1.8381,1.8247,1.8232,1.8145,1.7922,1.7901,1.7806,1.7582,1.7467,1.7331,1.7161,1.7059,1.6991,1.6991,1.6991,1.6991,1.6991,1.927,2.0406,2.0461,2.326,2.5721,2.7816,2.826,2.9666,3.1696,3.1696,3.1711,3.1778,3.2723,3.3118,3.3019,3.2059,3.1692,3.1696,3.1696,3.1695,3.1701,3.1693,3.1695,3.1707,3.1689,3.1704,3.1707,3.1689,3.1861,3.1994,3.1833,3.2185,3.2711,3.3179,3.3297,3.3318,3.339,3.3404,3.3397,3.3394,3.3404,3.3401,3.3401,3.3401,3.3401,3.3401,3.3398,3.3073,3.2127,3.199,3.1992,3.1983,3.2822,3.3022,3.2076,3.1813,3.2174,3.3319,3.3399,3.3393,3.3407,2.297,2.2042,3.3058,3.3392,3.3404,3.3401,3.3401,3.3401,3.3401,3.3401,3.3401,3.3401,3.3401,3.3401,3.3401,3.3401,3.3401,3.3327,3.239,2.6442,1.788,1.7254,1.7007,1.7333,2.0092,2.08,2.0475,1.8806,1.8806,1.8806,1.8806,1.8806,1.8737,1.8571,1.8523,1.8415,1.8179,1.8145,1.8105,1.7976,1.7948,1.7942,1.7901,1.7901,1.7765,1.7453,1.7406,1.7284,1.7032,1.7005,1.6991,1.6991,1.6991,1.6991,1.6991,1.927,2.0406,2.0498,2.5121,2.7467,2.79,3.0163,3.1368,3.1693,3.1693,3.171,3.1707,3.1878,3.1926,3.1914,3.1769,3.1693,3.1693,3.1693,3.1704,3.1704,3.1703,3.1698,3.1707,3.1708,3.1705,3.1694,3.1695,3.1739,3.1821,3.2139,3.2419,3.2649,3.2831,3.2873,3.2977,3.3316,3.3398,3.34,3.3398,3.3399,3.3401,3.3401,3.3401,3.3401,3.3401,3.3398,3.336,3.3185,3.3165,3.3169,3.3166,3.3305,3.3346,3.3183,3.2275,3.2172,3.33,3.3399,3.3395,3.3404,2.2968,2.204,3.3046,3.3399,3.3401,3.3401,3.3401,3.3401,3.3401,3.3401,3.3401,3.3401,3.3401,3.3401,3.3401,3.3401,3.3401,3.3025,2.8263,2.4503,2.1444,1.8248,1.7004,1.7333,2.0092,1.9597,1.7882,1.8806,1.8806,1.8757,1.8654,1.8722,1.8709,1.8429,1.8395,1.8321,1.8124,1.8105,1.805,1.7908,1.7901,1.7901,1.7901,1.7901,1.7765,1.7426,1.7392,1.7277,1.7005,1.6991,1.6991,1.6991,1.6991,1.7745,1.9292,2.1503,2.3291,2.4717,2.8295,2.9984,3.0031,3.1189,3.1699,3.1699,3.1699,3.1695,3.1694,3.1694,3.1694,3.1694,3.1694,3.1699,3.1699,3.1699,3.2108,3.2547,3.1913,3.1694,3.1813,3.2451,3.2215,3.1705,3.1704,3.1699,3.1794,3.22,3.25,3.2788,3.3069,3.3139,3.3103,3.2971,3.3187,3.3401,3.3401,3.3401,3.3401,3.3401,3.3401,3.3401,3.3401,3.3408,3.3402,3.3402,3.3407,3.3392,3.3401,3.3402,3.3394,3.3396,3.2941,3.2859,3.336,3.3407,3.073,2.4567,1.9631,1.9227,2.4088,3.0198,3.339,3.3401,3.3401,3.3401,3.3401,3.3401,3.3401,3.3401,3.3401,3.3401,3.3401,3.3401,3.3401,3.2975,2.7478,2.2914,1.9271,1.7648,1.7934,1.9449,2.0657,2.0331,1.9462]}]]